[[{"header":{"parameterUnit":"m.s-1","parameterCategory":1,"la1":30.6,"la2":28.766,"lo1":-90.7593,"lo2":-88.6598,"dy":0.0162,"dx":0.0183,"nx":116,"ny":114,"refTime":"2024-03-05T18:00:00:Z","depth":0,"parameterNumber":2,"parameterNumberName":"U-component_of_WINDS"},"data":[0.0,0.0,0.0,0.0,0.0,0.0,0.0,0.0,0.0,0.0,0.0,0.0,0.0,0.0,0.0,0.0,0.0,0.0,0.0,0.0,0.0,0.0,0.0,0.0,0.0,0.0,0.0,0.0,0.0,0.0,0.0,0.0,0.0,0.0,0.0,0.0,0.0,0.0,0.0,0.0,0.0,0.0,0.0,0.0,0.0,0.0,0.0,0.0,0.0,0.0,0.0,0.0,0.0,0.0,0.0,0.0,0.0,0.0,0.0,0.0,0.0,0.0,0.0,0.0,0.0,0.0,0.0,0.0,0.0,0.0,0.0,0.0,0.0,0.0,0.0,0.0,0.0,0.0,0.0,0.0,0.0,0.0,0.0,0.0,0.0,0.0,0.0,0.0,0.0,0.0,0.0,0.0,0.0,0.0,0.0,0.0,0.0,0.0,0.0,0.0,0.0,0.0,0.0,0.0,0.0,0.0,0.0,0.0,0.0,0.0,0.0,0.0,0.0,0.0,0.0,0.0,0.0,0.0,0.0,0.0,0.0,0.0,0.0,0.0,0.0,0.0,0.0,0.0,0.0,0.0,0.0,0.0,0.0,0.0,0.0,0.0,0.0,0.0,0.0,0.0,0.0,0.0,0.0,0.0,0.0,0.0,0.0,0.0,0.0,0.0,0.0,0.0,0.0,0.0,0.0,0.0,0.0,0.0,0.0,0.0,0.0,0.0,0.0,0.0,0.0,0.0,0.0,0.0,0.0,0.0,0.0,0.0,0.0,0.0,0.0,0.0,0.0,0.0,0.0,0.0,0.0,0.0,0.0,0.0,0.0,0.0,0.0,0.0,0.0,0.0,0.0,0.0,0.0,0.0,0.0,0.0,0.0,0.0,0.0,0.0,0.0,0.0,0.0,0.0,0.0,0.0,0.0,0.0,0.0,0.0,0.0,0.0,0.0,0.0,0.0,0.0,0.0,0.0,0.0,0.0,0.0,0.0,0.0,0.0,0.0,0.0,0.0,0.0,0.0,0.0,0.0,0.0,0.0,0.0,0.0,0.0,0.0,0.0,0.0,0.0,0.0,0.0,0.0,0.0,0.0,0.0,0.0,0.0,0.0,0.0,0.0,0.0,0.0,0.0,0.0,0.0,0.0,0.0,0.0,0.0,0.0,0.0,0.0,0.0,0.0,0.0,0.0,0.0,0.0,0.0,0.0,0.0,0.0,0.0,0.0,0.0,0.0,0.0,0.0,0.0,0.0,0.0,0.0,0.0,0.0,0.0,0.0,0.0,0.0,0.0,0.0,0.0,0.0,0.0,0.0,0.0,0.0,0.0,0.0,0.0,0.0,0.0,0.0,0.0,0.0,0.0,0.0,0.0,0.0,0.0,0.0,0.0,0.0,0.0,0.0,0.0,0.0,0.0,0.0,0.0,0.0,0.0,0.0,0.0,0.0,0.0,0.0,0.0,0.0,0.0,0.0,0.0,0.0,0.0,0.0,0.0,0.0,0.0,0.0,0.0,0.0,0.0,0.0,0.0,0.0,0.0,0.0,0.0,0.0,0.0,0.0,0.0,0.0,0.0,0.0,0.0,0.0,0.0,0.0,0.0,0.0,0.0,0.0,0.0,0.0,0.0,0.0,0.0,0.0,0.0,0.0,0.0,0.0,0.0,0.0,0.0,0.0,0.0,0.0,0.0,0.0,0.0,0.0,0.0,0.0,0.0,0.0,0.0,0.0,0.0,0.0,0.0,0.0,0.0,0.0,0.0,0.0,0.0,0.0,0.0,0.0,0.0,0.0,0.0,0.0,0.0,0.0,0.0,0.0,0.0,0.0,0.0,0.0,0.0,0.0,0.0,0.0,0.0,0.0,0.0,0.0,0.0,0.0,0.0,0.0,0.0,0.0,0.0,0.0,0.0,0.0,0.0,0.0,0.0,0.0,0.0,0.0,0.0,0.0,0.0,0.0,0.0,0.0,0.0,0.0,0.0,0.0,0.0,0.0,0.0,0.0,0.0,0.0,0.0,0.0,0.0,0.0,0.0,0.0,0.0,0.0,0.0,0.0,0.0,0.0,0.0,0.0,0.0,0.0,0.0,0.0,0.0,0.0,0.0,0.0,0.0,0.0,0.0,0.0,0.0,0.0,0.0,0.0,0.0,0.0,0.0,0.0,0.0,0.0,0.0,0.0,0.0,0.0,0.0,0.0,0.0,0.0,0.0,0.0,0.0,0.0,0.0,0.0,0.0,0.0,0.0,0.0,0.0,0.0,0.0,0.0,0.0,0.0,0.0,0.0,0.0,0.0,0.0,0.0,0.0,0.0,0.0,0.0,0.0,0.0,0.0,0.0,0.0,0.0,0.0,0.0,0.0,0.0,0.0,0.0,0.0,0.0,0.0,0.0,0.0,0.0,0.0,0.0,0.0,0.0,0.0,0.0,0.0,0.0,0.0,0.0,0.0,0.0,0.0,0.0,0.0,0.0,0.0,0.0,0.0,0.0,0.0,0.0,0.0,0.0,0.0,0.0,0.0,0.0,0.0,0.0,0.0,0.0,0.0,0.0,0.0,0.0,0.0,0.0,0.0,0.0,0.0,0.0,0.0,0.0,0.0,0.0,0.0,0.0,0.0,0.0,0.0,0.0,0.0,0.0,0.0,0.0,0.0,0.0,0.0,0.0,0.0,0.0,0.0,0.0,0.0,0.0,0.0,0.0,0.0,0.0,0.0,0.0,0.0,0.0,0.0,0.0,0.0,0.0,0.0,0.0,0.0,0.0,0.0,0.0,0.0,0.0,0.0,0.0,0.0,0.0,0.0,0.0,0.0,0.0,0.0,0.0,0.0,0.0,0.0,0.0,0.0,0.0,0.0,0.0,0.0,0.0,0.0,0.0,0.0,0.0,0.0,0.0,0.0,0.0,0.0,0.0,0.0,0.0,0.0,0.0,0.0,0.0,0.0,0.0,0.0,0.0,0.0,0.0,0.0,0.0,0.0,0.0,0.0,0.0,0.0,0.0,0.0,0.0,0.0,0.0,0.0,0.0,0.0,0.0,0.0,0.0,0.0,0.0,0.0,0.0,0.0,0.0,0.0,0.0,0.0,0.0,0.0,0.0,0.0,0.0,0.0,0.0,0.0,0.0,0.0,0.0,0.0,0.0,0.0,0.0,0.0,0.0,0.0,0.0,0.0,0.0,0.0,0.0,0.0,0.0,0.0,0.0,0.0,0.0,0.0,0.0,0.0,0.0,0.0,0.0,0.0,0.0,0.0,0.0,0.0,0.0,0.0,0.0,0.0,0.0,0.0,0.0,0.0,0.0,0.0,0.0,0.0,0.0,0.0,0.0,0.0,0.0,0.0,0.0,0.0,0.0,0.0,0.0,0.0,0.0,0.0,0.0,0.0,0.0,0.0,0.0,0.0,0.0,0.0,0.0,0.0,0.0,0.0,0.0,0.0,0.0,0.0,0.0,0.0,0.0,0.0,0.0,0.0,0.0,0.0,0.0,0.0,0.0,0.0,0.0,0.0,0.0,0.0,0.0,0.0,0.0,0.0,0.0,0.0,0.0,0.0,0.0,0.0,0.0,0.0,0.0,0.0,0.0,0.0,0.0,0.0,0.0,0.0,0.0,0.0,0.0,0.0,0.0,0.0,0.0,0.0,0.0,0.0,0.0,0.0,0.0,0.0,0.0,0.0,0.0,0.0,0.0,0.0,0.0,0.0,0.0,0.0,0.0,0.0,0.0,0.0,0.0,0.0,0.0,0.0,0.0,0.0,0.0,0.0,0.0,0.0,0.0,0.0,0.0,0.0,0.0,0.0,0.0,0.0,0.0,0.0,0.0,0.0,0.0,0.0,0.0,0.0,0.0,0.0,0.0,0.0,0.0,0.0,0.0,0.0,0.0,0.0,0.0,0.0,0.0,0.0,0.0,0.0,0.0,0.0,0.0,0.0,0.0,0.0,0.0,0.0,0.0,0.0,0.0,0.0,0.0,0.0,0.0,0.0,0.0,0.0,0.0,0.0,0.0,0.0,0.0,0.0,0.0,0.0,0.0,0.0,0.0,0.0,0.0,0.0,0.0,0.0,0.0,0.0,0.0,0.0,0.0,0.0,0.0,0.0,0.0,0.0,0.0,0.0,0.0,0.0,0.0,0.0,0.0,0.0,0.0,0.0,0.0,0.0,0.0,0.0,0.0,0.0,0.0,0.0,0.0,0.0,0.0,0.0,0.0,0.0,0.0,0.0,0.0,0.0,0.0,0.0,0.0,0.0,0.0,0.0,0.0,0.0,0.0,0.0,0.0,0.0,0.0,0.0,0.0,0.0,0.0,0.0,0.0,0.0,0.0,0.0,0.0,0.0,0.0,0.0,0.0,0.0,0.0,0.0,0.0,0.0,0.0,0.0,0.0,0.0,0.0,0.0,0.0,0.0,0.0,0.0,0.0,0.0,0.0,0.0,0.0,0.0,0.0,0.0,0.0,0.0,0.0,0.0,0.0,0.0,0.0,0.0,0.0,0.0,0.0,0.0,0.0,0.0,0.0,0.0,0.0,0.0,0.0,0.0,0.0,0.0,0.0,0.0,0.0,0.0,0.0,0.0,0.0,0.0,0.0,0.0,0.0,0.0,0.0,0.0,0.0,0.0,0.0,0.0,0.0,0.0,0.0,0.0,0.0,0.0,0.0,0.0,0.0,0.0,0.0,0.0,0.0,0.0,0.0,0.0,0.0,0.0,0.0,0.0,0.0,0.0,0.0,0.0,0.0,0.0,0.0,0.0,0.0,0.0,0.0,0.0,0.0,0.0,0.0,0.0,0.0,0.0,0.0,0.0,0.0,0.0,0.0,0.0,0.0,0.0,0.0,0.0,0.0,0.0,0.0,0.0,0.0,0.0,0.0,0.0,0.0,0.0,0.0,0.0,0.0,0.0,0.0,0.0,0.0,0.0,0.0,0.0,0.0,0.0,0.0,0.0,0.0,0.0,0.0,0.0,0.0,0.0,0.0,0.0,0.0,0.0,0.0,0.0,0.0,0.0,0.0,0.0,0.0,0.0,0.0,0.0,0.0,0.0,0.0,0.0,0.0,0.0,0.0,0.0,0.0,0.0,0.0,0.0,0.0,0.0,0.0,0.0,0.0,0.0,0.0,0.0,0.0,0.0,0.0,0.0,0.0,0.0,0.0,0.0,0.0,0.0,0.0,0.0,0.0,0.0,0.0,0.0,0.0,0.0,0.0,0.0,0.0,0.0,0.0,0.0,0.0,0.0,0.0,0.0,0.0,0.0,0.0,0.0,0.0,0.0,0.0,0.0,0.0,0.0,0.0,0.0,0.0,0.0,0.0,0.0,0.0,0.0,0.0,0.0,0.0,0.0,0.0,0.0,0.0,0.0,0.0,0.0,0.0,0.0,0.0,0.0,0.0,0.0,0.0,0.0,0.0,0.0,0.0,0.0,0.0,0.0,0.0,0.0,0.0,0.0,0.0,0.0,0.0,0.0,0.0,0.0,0.0,0.0,0.0,0.0,0.0,0.0,0.0,0.0,0.0,0.0,0.0,0.0,0.0,0.0,0.0,0.0,0.0,0.0,0.0,0.0,0.0,0.0,0.0,0.0,0.0,0.0,0.0,0.0,0.0,0.0,0.0,0.0,0.0,0.0,0.0,0.0,0.0,0.0,0.0,0.0,0.0,0.0,0.0,0.0,0.0,0.0,0.0,0.0,0.0,0.0,0.0,0.0,0.0,0.0,0.0,0.0,0.0,0.0,0.0,0.0,0.0,0.0,0.0,0.0,0.0,0.0,0.0,0.0,0.0,0.0,0.0,0.0,0.0,0.0,0.0,0.0,0.0,0.0,0.0,0.0,0.0,0.0,0.0,0.0,0.0,0.0,0.0,0.0,0.0,0.0,0.0,0.0,0.0,0.0,0.0,0.0,0.0,0.0,0.0,0.0,0.0,0.0,0.0,0.0,0.0,0.0,0.0,0.0,0.0,0.0,0.0,0.0,0.0,0.0,0.0,0.0,0.0,0.0,0.0,0.0,0.0,0.0,0.0,0.0,0.0,0.0,0.0,0.0,0.0,0.0,0.0,0.0,0.0,0.0,0.0,0.0,0.0,0.0,0.0,0.0,0.0,0.0,5.3393,5.2601,0.0,0.0,0.0,0.0,0.0,0.0,0.0,0.0,0.0,0.0,0.0,0.0,0.0,0.0,0.0,0.0,0.0,0.0,0.0,0.0,0.0,0.0,0.0,0.0,0.0,0.0,0.0,0.0,0.0,0.0,0.0,0.0,0.0,0.0,0.0,0.0,6.3602,6.3602,6.3602,6.3602,6.3602,6.3193,6.2747,6.2339,0.0,0.0,0.0,0.0,0.0,0.0,0.0,0.0,0.0,0.0,0.0,0.0,0.0,0.0,0.0,0.0,0.0,0.0,0.0,0.0,0.0,0.0,0.0,0.0,0.0,0.0,0.0,0.0,0.0,0.0,0.0,0.0,0.0,0.0,0.0,0.0,0.0,0.0,0.0,0.0,0.0,0.0,0.0,0.0,0.0,0.0,0.0,0.0,0.0,0.0,0.0,0.0,0.0,0.0,0.0,0.0,0.0,0.0,0.0,0.0,0.0,0.0,0.0,0.0,0.0,0.0,0.0,0.0,0.0,0.0,5.4419,5.3808,0.0,0.0,0.0,0.0,0.0,0.0,0.0,0.0,0.0,0.0,0.0,0.0,0.0,0.0,0.0,0.0,0.0,0.0,0.0,0.0,0.0,0.0,0.0,6.3147,6.3242,6.3382,6.3382,6.3511,0.0,0.0,0.0,0.0,0.0,6.3602,6.3602,6.3602,6.3602,6.3602,6.3602,6.3602,6.3602,6.3602,6.3602,6.3602,6.3602,0.0,0.0,0.0,0.0,0.0,0.0,0.0,0.0,0.0,0.0,0.0,0.0,0.0,0.0,0.0,0.0,0.0,0.0,0.0,0.0,0.0,0.0,0.0,0.0,0.0,0.0,0.0,0.0,0.0,0.0,0.0,0.0,0.0,0.0,0.0,0.0,0.0,0.0,0.0,0.0,0.0,0.0,0.0,0.0,0.0,0.0,0.0,0.0,0.0,0.0,0.0,0.0,0.0,0.0,0.0,0.0,0.0,0.0,0.0,0.0,0.0,0.0,0.0,5.5234,5.5354,5.559,5.559,5.5648,5.5786,5.5234,5.5053,5.5174,5.4869,0.0,0.0,0.0,0.0,0.0,0.0,0.0,0.0,0.0,0.0,0.0,0.0,0.0,0.0,0.0,0.0,0.0,0.0,0.0,0.0,0.0,6.3242,6.3382,6.3382,6.3511,6.3557,6.3602,0.0,6.3602,6.3602,6.3602,6.3602,6.3602,6.3602,6.3602,6.3602,6.3602,6.3602,6.3602,6.3602,6.3602,6.3602,6.3602,6.3602,6.3602,0.0,0.0,0.0,0.0,0.0,0.0,0.0,0.0,0.0,0.0,0.0,0.0,0.0,0.0,0.0,0.0,0.0,0.0,0.0,0.0,0.0,0.0,0.0,0.0,0.0,0.0,0.0,0.0,0.0,0.0,0.0,0.0,0.0,0.0,0.0,0.0,0.0,0.0,0.0,0.0,0.0,5.5049,5.4739,0.0,0.0,0.0,0.0,0.0,0.0,0.0,0.0,0.0,0.0,0.0,0.0,0.0,5.5378,5.5273,5.5578,5.5729,5.5786,5.6106,5.6106,5.5844,5.5844,5.5764,5.5531,5.5174,0.0,5.5786,5.5729,0.0,0.0,0.0,0.0,0.0,0.0,0.0,0.0,0.0,0.0,0.0,0.0,0.0,0.0,0.0,0.0,0.0,0.0,0.0,0.0,0.0,6.3242,6.3382,6.3382,6.3465,6.3511,6.3602,6.3602,6.3602,6.3602,6.3602,6.3602,6.3602,6.3602,6.3602,6.3602,6.3602,6.3602,6.3602,6.3602,6.3602,6.3602,6.3602,6.3379,6.2896,6.245,0.0,0.0,0.0,0.0,0.0,0.0,0.0,0.0,0.0,0.0,0.0,0.0,0.0,0.0,0.0,0.0,0.0,0.0,0.0,0.0,0.0,0.0,0.0,0.0,0.0,0.0,0.0,0.0,0.0,0.0,0.0,0.0,0.0,0.0,0.0,0.0,0.0,0.0,0.0,5.5018,5.4896,5.4992,5.4683,5.4557,0.0,0.0,0.0,0.0,0.0,0.0,0.0,0.0,0.0,5.5294,5.5234,5.5294,5.5472,5.5413,5.5555,5.5901,5.6049,5.6162,5.6162,5.6162,5.6049,5.5706,5.5555,5.559,5.5648,5.5437,5.5354,5.5294,0.0,0.0,0.0,0.0,5.4683,5.4494,0.0,0.0,0.0,0.0,0.0,0.0,0.0,0.0,0.0,0.0,0.0,0.0,6.3051,6.3242,6.3382,6.3382,6.3428,6.3511,6.3602,6.3602,6.3602,6.3602,6.3602,6.3602,6.3602,6.3602,6.3602,6.3602,6.3602,6.3602,6.3602,6.3602,6.3602,6.3602,6.3379,6.297,6.2376,6.1781,6.141,6.1261,0.0,0.0,0.0,0.0,0.0,0.0,0.0,0.0,0.0,0.0,0.0,0.0,0.0,0.0,0.0,0.0,0.0,0.0,0.0,0.0,0.0,0.0,0.0,0.0,0.0,0.0,0.0,0.0,0.0,0.0,0.0,0.0,0.0,0.0,0.0,0.0,0.0,5.4807,5.4807,5.4992,5.4683,5.4557,0.0,0.0,0.0,0.0,0.0,0.0,5.5354,5.5472,5.5531,5.559,5.5472,5.5472,5.5706,5.5413,5.5496,5.6049,5.5844,5.5936,5.6162,5.6106,5.5936,5.5671,5.5671,5.5613,5.559,5.5294,5.5294,5.5472,5.5413,5.5234,5.4992,5.493,5.4683,5.4494,0.0,0.0,0.0,0.0,0.0,0.0,0.0,0.0,0.0,0.0,0.0,6.3051,6.3147,6.3289,6.3382,6.3382,6.3511,6.3602,6.3602,6.3602,6.3602,6.3602,6.3602,6.3602,6.3602,6.3602,6.3602,6.3602,6.3602,6.3602,6.3602,6.3602,6.3602,6.3565,6.2822,6.245,6.2413,6.2376,6.1893,6.1187,6.1261,0.0,0.0,0.0,0.0,0.0,0.0,0.0,0.0,0.0,0.0,0.0,0.0,0.0,0.0,0.0,0.0,0.0,0.0,0.0,0.0,0.0,0.0,0.0,0.0,0.0,0.0,0.0,0.0,0.0,0.0,0.0,0.0,0.0,0.0,0.0,0.0,0.0,0.0,5.5053,5.4683,0.0,0.0,0.0,0.0,5.4992,5.4992,5.4992,5.5053,5.5354,5.5648,5.5844,5.6162,5.6328,5.6328,5.6049,5.6049,5.6383,5.5822,5.5531,5.5531,5.5234,5.5053,5.5053,5.5053,5.5319,5.5844,5.559,5.5472,5.5472,5.5174,5.4992,5.493,5.462,5.4494,5.4494,0.0,0.0,0.0,0.0,0.0,0.0,0.0,0.0,6.2855,6.3002,6.3051,6.3194,6.3289,6.3465,6.3511,6.3511,6.3557,6.3602,6.3602,6.3602,6.3602,6.3602,6.3602,6.3602,6.3602,6.3602,6.3602,6.3602,6.3602,6.3602,6.3602,6.3602,6.3602,6.3602,6.3305,6.2896,6.2339,6.1261,6.063,6.037,6.037,6.037,0.0,0.0,0.0,0.0,0.0,0.0,0.0,0.0,0.0,0.0,0.0,0.0,0.0,0.0,0.0,0.0,0.0,0.0,0.0,0.0,0.0,0.0,0.0,0.0,0.0,0.0,0.0,0.0,0.0,0.0,0.0,0.0,0.0,0.0,0.0,0.0,0.0,5.5688,5.541,0.0,5.5907,5.5598,5.539,5.5329,5.5294,5.5413,5.5555,5.5671,5.5613,5.5319,5.5648,5.6069,5.6528,5.6622,5.71,5.7882,5.7654,5.7539,5.7539,5.7211,5.6947,5.6799,5.6613,5.6578,5.6755,5.6143,5.5953,5.6049,5.5706,5.5437,5.5294,5.493,5.4683,5.4494,0.0,0.0,0.0,0.0,0.0,0.0,0.0,0.0,6.2904,6.3051,6.3194,6.3289,6.3465,6.3557,6.3602,6.3602,6.3602,6.3602,6.3602,6.3602,6.3602,6.3602,6.3602,6.3602,6.3602,6.3602,6.3602,6.3602,6.3602,6.3602,6.3602,6.3602,6.3602,6.3602,6.3602,6.3305,6.271,6.1336,6.0444,5.9924,5.9924,5.9738,5.951,0.0,0.0,0.0,0.0,0.0,0.0,0.0,0.0,0.0,0.0,0.0,0.0,0.0,0.0,0.0,0.0,0.0,0.0,0.0,0.0,0.0,0.0,0.0,0.0,0.0,0.0,0.0,0.0,0.0,0.0,0.0,0.0,0.0,0.0,5.4494,5.4765,5.5501,5.5381,5.5444,5.5942,5.5633,5.539,5.5507,5.5413,5.5578,5.6117,5.6117,5.62,5.6245,5.6482,5.6846,5.7282,5.7435,5.7917,5.8738,5.8472,5.8414,5.8566,5.8237,5.7998,5.7973,5.7728,5.7728,5.7719,5.7193,5.7058,5.7077,5.6113,5.5648,5.5472,5.5113,5.4807,5.4494,0.0,0.0,0.0,0.0,0.0,0.0,0.0,6.2904,6.3051,6.3147,6.3289,6.3465,6.3557,6.3602,6.3602,6.3602,6.3602,6.3602,6.3602,6.3602,6.3602,6.3602,6.3602,6.3602,6.3602,6.3602,6.3602,6.3602,6.3602,6.3602,6.3602,6.3602,6.3602,6.3602,6.3602,6.3602,6.3565,6.2784,6.1484,5.9998,5.9924,5.9441,5.8698,0.0,0.0,0.0,0.0,0.0,0.0,0.0,0.0,0.0,0.0,0.0,0.0,0.0,0.0,0.0,0.0,0.0,0.0,0.0,0.0,0.0,0.0,0.0,0.0,0.0,0.0,0.0,0.0,0.0,0.0,0.0,0.0,0.0,5.4494,5.4494,5.4529,5.4529,5.4529,5.478,5.5507,5.5269,5.5209,5.5507,5.5269,5.5523,5.6596,5.6631,5.7282,5.8645,5.8681,5.8681,5.8681,5.8485,5.852,5.8845,5.8259,5.8139,5.8474,5.8078,5.8139,5.8438,5.8343,5.852,5.8752,5.8716,5.8716,5.8481,5.6435,5.5602,5.5543,5.5148,5.4842,5.4494,0.0,0.0,0.0,0.0,0.0,0.0,0.0,6.2805,6.2953,6.3147,6.3194,6.3373,6.3557,6.3602,6.3602,6.3602,6.3602,6.3602,6.3602,6.3602,6.3602,6.3602,6.3602,6.3602,6.3602,6.3602,6.3602,6.3602,6.3602,6.3602,6.3602,6.3602,6.3602,6.3602,6.3602,6.3602,6.3602,6.3379,6.2673,6.1633,6.0407,5.9441,5.8698,0.0,0.0,0.0,0.0,0.0,0.0,0.0,0.0,0.0,0.0,0.0,0.0,0.0,0.0,0.0,0.0,0.0,0.0,0.0,0.0,0.0,0.0,0.0,0.0,0.0,0.0,0.0,0.0,0.0,0.0,0.0,5.4683,5.4807,5.4494,5.4494,5.489,5.5907,5.5792,5.5916,5.6611,5.616,5.6038,5.6611,5.634,5.6631,5.7765,5.78,5.7906,5.8058,5.8237,5.8639,5.923,5.9953,6.0677,6.1307,6.1661,6.191,6.1971,6.1131,6.076,6.0786,5.9972,5.9788,6.0022,5.9455,5.9207,5.91,5.7966,5.7518,5.7388,5.6283,5.5293,5.4494,0.0,0.0,0.0,0.0,0.0,0.0,0.0,6.2855,6.2953,6.3147,6.3242,6.3336,6.3557,6.3602,6.3602,6.3602,6.3602,6.3602,6.3602,6.3602,6.3602,6.3602,6.3602,6.3602,6.3602,6.3602,6.3602,6.3602,6.3602,6.3602,6.3602,6.3602,6.3602,6.3602,6.3602,6.3602,6.3602,6.3602,6.3156,6.2301,6.1336,6.0258,5.9181,5.8846,5.8572,5.8363,5.8614,5.8572,5.8319,5.815,0.0,0.0,0.0,0.0,0.0,0.0,0.0,0.0,0.0,0.0,0.0,0.0,0.0,0.0,0.0,0.0,0.0,0.0,0.0,0.0,0.0,0.0,0.0,0.0,5.4683,5.4745,5.4529,5.462,5.5043,5.5828,5.6143,5.6535,5.7046,5.6912,5.7026,5.7565,5.7268,5.7621,5.8697,5.9111,5.937,5.9663,6.0164,6.064,6.1067,6.1747,6.2307,6.277,6.3199,6.3377,6.3377,6.2764,6.2489,6.2426,6.1742,6.1628,6.1716,6.1254,6.0864,6.0438,0.0,0.0,0.0,0.0,5.6033,5.5426,0.0,0.0,0.0,0.0,0.0,0.0,0.0,6.2904,6.3051,6.3147,6.3289,6.3428,6.3557,6.3602,6.3602,6.3602,6.3602,6.3602,6.3602,6.3602,6.3602,6.3602,6.3602,6.3602,6.3602,6.3602,6.3602,6.3602,6.3602,6.3602,6.3602,6.3602,6.3602,6.3602,6.3602,6.3602,6.3602,6.3602,6.3193,6.2524,6.245,6.141,5.9812,5.9107,5.8772,5.8698,5.8698,5.8698,5.8656,5.8319,0.0,0.0,0.0,0.0,0.0,0.0,0.0,0.0,0.0,0.0,0.0,0.0,0.0,0.0,0.0,0.0,0.0,0.0,0.0,0.0,0.0,0.0,0.0,0.0,5.4494,5.4557,5.4529,5.4876,5.5192,5.5131,5.5994,5.6751,5.7211,5.761,5.8033,5.8438,5.821,5.8597,5.9643,6.0458,0.0,0.0,0.0,6.3377,6.3377,6.3484,6.352,6.352,6.3627,6.3663,6.3663,6.3555,6.352,6.352,6.3413,6.3377,6.3377,6.3377,6.2985,6.2103,5.949,5.8027,5.7364,5.7105,5.694,5.6702,0.0,0.0,0.0,0.0,0.0,0.0,0.0,6.2805,6.2904,6.3147,6.3194,6.3326,6.3557,6.3602,6.3602,6.3602,6.3602,6.3602,6.3602,6.3602,6.3602,6.3602,6.3602,6.3602,6.3602,6.3602,6.3602,6.3602,6.3602,6.3602,6.3602,6.3602,6.3602,6.3602,6.3602,6.3602,6.3602,6.3602,6.3527,6.3305,6.2673,6.141,5.9887,5.9738,5.9292,5.8698,5.8698,5.8698,5.8698,5.8614,5.8406,5.8194,5.806,5.7831,0.0,0.0,0.0,0.0,0.0,0.0,0.0,0.0,0.0,0.0,0.0,0.0,0.0,0.0,0.0,0.0,0.0,0.0,0.0,5.4557,5.4745,5.4807,5.4557,5.5514,5.6204,5.5897,5.6309,5.6962,5.7895,5.8107,5.858,5.9514,5.9881,6.0529,6.1711,6.246,6.2959,6.3163,6.3306,6.3377,6.3377,6.4055,6.4376,6.4376,6.5019,0.0,6.5304,6.4662,6.4376,6.4341,6.3663,6.3377,6.3377,6.3377,6.3182,6.2648,6.0822,5.9327,5.8159,5.8094,5.7552,5.6771,0.0,0.0,0.0,0.0,0.0,0.0,0.0,6.2805,6.2904,6.3147,6.3194,6.3326,6.3557,6.3602,6.3602,6.3602,6.3602,6.3602,6.3602,6.3602,6.3602,6.3602,6.3602,6.3602,6.3602,6.3602,6.3602,6.3602,6.3602,6.3602,6.3602,6.3602,6.3602,6.3602,6.3602,6.3602,6.3602,6.3602,6.3602,6.3565,6.3156,6.2264,6.1076,6.0221,5.9664,5.9255,5.8846,5.8698,5.8698,5.8698,5.8572,5.8406,5.8406,5.8275,5.8051,0.0,0.0,0.0,0.0,0.0,0.0,0.0,0.0,0.0,0.0,0.0,0.0,0.0,0.0,5.5259,5.462,0.0,5.4869,5.4557,5.5119,5.5583,5.5397,5.6272,5.6772,5.6388,5.748,5.8474,5.9041,5.9787,6.0547,6.1058,6.1686,6.223,6.2806,6.3591,6.4019,6.4019,6.4376,6.459,6.459,6.5019,6.5197,6.5233,6.5625,6.5804,6.5804,6.5375,6.5197,6.5197,6.4769,6.459,6.4555,6.4162,6.3796,6.3371,6.2011,6.0674,5.9482,5.89,5.8354,5.784,0.0,0.0,0.0,0.0,0.0,0.0,0.0,6.2805,6.2904,6.3147,6.3194,6.3326,6.3557,6.3602,6.3602,6.3602,6.3602,6.3602,6.3602,6.3602,6.3602,6.3602,6.3602,6.3602,6.3602,6.3602,6.3602,6.3602,6.3602,6.3602,6.3602,6.3602,6.3602,6.3602,6.3602,6.3602,6.3602,6.3602,6.3602,6.3602,6.3602,6.323,6.245,6.0815,6.0072,5.9812,5.8995,5.8698,5.8698,5.8698,5.8698,5.8698,5.8698,5.8698,5.8572,5.7821,5.7401,0.0,0.0,0.0,0.0,0.0,0.0,0.0,0.0,5.624,5.5716,5.5887,5.5943,5.5694,5.4896,5.5096,5.5262,5.4799,5.5674,5.6412,5.6412,5.7137,5.7506,5.7183,5.8627,5.9846,6.0226,6.1462,6.2342,6.2485,6.3199,6.3627,6.3627,6.4412,6.484,6.484,6.5482,6.5804,6.5804,6.5804,6.5804,6.5804,6.5804,6.5804,6.5804,6.5804,6.5804,6.5804,6.5804,6.574,6.5604,6.4963,6.4486,6.4089,6.2982,6.1946,6.0945,5.9702,5.9254,5.915,0.0,0.0,0.0,0.0,0.0,0.0,0.0,0.0,6.2904,6.3147,6.3194,6.3326,6.3557,6.3602,6.3602,6.3602,6.3602,6.3602,6.3602,6.3602,6.3602,6.3602,6.3602,6.3602,6.3602,6.3602,6.3602,6.3602,6.3602,6.3602,6.3602,6.3602,6.3602,6.3602,6.3602,6.3602,6.3602,6.3602,6.3602,6.3602,6.3602,6.3565,6.3305,6.167,6.0593,5.9812,5.8995,5.8698,5.8698,5.8698,5.8698,5.8698,5.8698,5.8698,5.8572,5.7821,5.7583,5.7388,5.6546,5.6617,5.6881,5.6933,5.7188,5.7388,0.0,5.7138,5.6845,5.6912,5.6546,5.609,5.5543,5.6165,5.648,5.5623,5.6437,5.7213,5.7213,5.8094,5.88,5.9062,5.902,5.969,6.1388,6.1981,6.2556,6.3234,6.4019,6.4483,6.4483,6.5233,6.5661,6.5661,6.5768,6.5804,6.5804,6.5804,6.5804,6.5804,6.5804,6.5804,6.5804,6.5804,6.5804,6.5804,6.5804,6.5575,6.5278,6.5171,6.4972,6.4495,6.338,6.2892,6.2509,6.0739,6.0082,5.9944,0.0,0.0,0.0,0.0,0.0,0.0,0.0,0.0,0.0,6.3051,6.3147,6.3242,6.3465,6.3557,6.3602,6.3602,6.3602,6.3602,6.3602,6.3602,6.3602,6.3602,6.3602,6.3602,6.3602,6.3602,6.3602,6.3602,6.3602,6.3602,6.3602,6.3602,6.3602,6.3602,6.3602,6.3602,6.3602,6.3602,6.3602,6.3602,6.3602,6.3602,6.3416,6.1819,6.0964,6.0555,5.9701,5.9107,0.0,5.9255,5.9107,5.8698,5.8698,5.8698,5.8572,5.7821,5.7583,5.7534,5.7188,5.7188,5.7437,5.7914,5.7831,5.7737,5.8142,5.8103,5.8006,5.8154,5.8217,5.8214,5.7707,5.7517,5.7384,5.7009,5.7674,5.8234,5.8234,5.9151,6.0194,6.096,6.0786,6.0972,6.1955,6.303,6.377,6.4091,6.484,6.5304,6.5304,6.5625,6.5804,6.5804,6.5804,6.5804,6.5804,6.5804,6.5804,6.5804,6.5804,6.5804,6.5804,6.5804,6.5804,6.5804,6.5804,6.5704,6.551,6.5278,6.5145,6.4908,6.3974,6.3658,6.3379,6.1534,6.084,6.0806,0.0,0.0,0.0,0.0,0.0,0.0,0.0,0.0,0.0,0.0,6.3099,6.3279,6.3465,6.3557,6.3602,6.3602,6.3602,6.3602,6.3602,6.3602,6.3602,6.3602,6.3602,6.3602,6.3602,6.3602,6.3602,6.3602,6.3602,6.3602,6.3602,6.3602,6.3602,6.3602,6.3602,6.3602,6.3602,6.3602,6.3602,6.3602,6.3602,6.3602,6.3416,6.1819,6.1336,6.141,6.0295,5.9282,5.8683,5.9499,5.9153,5.84,5.84,5.84,5.8275,5.7631,5.752,5.7615,5.7751,5.7813,5.8055,5.8732,5.8607,5.8465,5.9079,5.9246,5.9237,5.9381,5.97,5.9801,5.9275,5.8923,5.858,5.821,5.8853,5.9354,5.9354,6.0309,6.1264,6.2199,6.2479,6.2666,6.2913,6.3948,6.4697,6.4912,6.5482,6.5804,6.5804,6.5804,6.5804,6.5804,6.5804,6.5804,6.5804,6.5804,6.5804,6.5804,6.5804,6.5804,6.5804,6.5804,6.5804,6.5804,6.5804,6.574,6.564,6.5344,6.5145,6.5011,6.4323,6.4111,6.39,6.2468,6.1806,6.1599,0.0,0.0,0.0,0.0,0.0,0.0,0.0,0.0,0.0,0.0,0.0,0.0,0.0,6.3602,6.3602,6.3602,6.3602,6.3602,6.3602,6.3602,6.3602,6.3602,6.3602,6.3602,6.3602,6.3602,6.3602,6.3602,6.3602,6.3602,6.3602,6.3602,6.3602,6.3602,6.3602,6.3602,6.3602,6.3602,6.3602,6.3602,6.3602,6.3602,6.3416,6.1819,6.167,6.2153,6.0518,5.9153,5.8252,5.9145,5.8611,5.7631,5.7631,5.7631,5.7534,5.7138,5.7298,5.7691,5.807,5.8413,5.8811,5.9228,5.9627,5.9943,6.0407,6.0535,6.0535,6.0535,6.0441,6.0201,5.9611,6.0264,6.0485,5.9091,5.9796,6.0574,6.0574,6.1246,6.1903,6.2271,6.3627,6.4555,6.4555,6.459,6.4947,6.5697,6.5804,6.5804,6.5804,6.5804,6.5804,6.5804,6.5804,6.5804,6.5804,6.5804,6.5804,6.5804,6.5804,6.5804,6.5804,6.5804,6.5804,6.5804,6.5804,6.5575,6.5212,6.5212,6.5011,6.4637,6.4252,6.4111,6.4039,6.3677,6.3082,6.2324,0.0,0.0,0.0,0.0,0.0,0.0,0.0,0.0,0.0,0.0,0.0,0.0,0.0,0.0,0.0,0.0,6.204,6.192,6.274,6.2822,6.3044,6.3602,6.3602,6.3602,6.3602,6.3602,6.3602,6.3602,6.3602,6.3602,6.3602,6.3602,6.3602,6.3602,6.3602,6.3602,6.3602,6.3602,6.3602,6.3602,6.3602,6.3305,6.2747,6.219,6.1352,6.0387,0.0,5.9743,5.9053,5.9626,5.8811,5.7583,5.7583,5.7947,5.836,5.8497,5.8646,5.8862,5.9284,5.9651,6.0073,6.0478,6.0692,6.0809,6.0981,6.1419,6.1789,6.1789,6.1776,6.1711,6.1536,6.1281,6.0906,6.0235,6.0569,6.1165,6.17,6.1996,6.2663,6.4088,6.4455,6.484,6.534,6.5411,6.5518,6.5768,6.5804,6.5804,6.5804,6.5804,6.5804,6.5804,6.5804,6.5804,6.5804,6.5804,6.5804,6.5804,6.5804,6.5804,6.5804,6.5804,6.5804,6.5804,6.5804,6.574,6.5575,6.5278,6.5145,6.4944,6.4323,6.4111,6.4039,6.3712,6.3427,6.3186,0.0,0.0,0.0,0.0,0.0,0.0,0.0,0.0,0.0,0.0,0.0,0.0,0.0,0.0,0.0,0.0,0.0,6.1061,6.1752,6.1879,6.2339,6.3156,6.3193,6.3305,6.3602,6.3602,6.3602,6.3602,6.3602,6.3602,6.3602,6.3602,6.3602,6.3602,6.3602,6.3602,6.3602,6.3305,6.3342,6.3565,6.3305,6.2859,6.2376,6.1908,6.095,0.0,5.9736,5.9383,5.9006,5.927,5.8377,5.7261,5.75,5.8115,5.8822,5.9564,5.9727,5.9924,6.0528,6.0823,6.1107,6.1545,6.1633,6.1707,6.2004,6.245,6.2822,6.2822,6.2682,6.2567,6.2251,6.1915,6.1451,6.0747,6.1295,6.1946,6.2331,6.2796,6.3607,6.4878,6.5028,6.5233,6.5768,6.5804,6.5804,6.5804,6.5804,6.5804,6.5804,6.5804,6.5804,6.5804,6.5804,6.5804,6.5804,6.5804,6.5804,6.5804,6.5804,6.5804,6.5804,6.5804,6.5804,6.5804,6.5804,6.5804,6.5804,6.551,6.5344,6.5145,6.4533,6.4182,6.4039,6.3712,6.36,6.36,0.0,0.0,0.0,0.0,0.0,0.0,0.0,0.0,0.0,0.0,0.0,0.0,0.0,0.0,0.0,0.0,0.0,0.0,6.0582,6.0892,6.1484,6.2301,6.2294,6.2666,6.3527,6.3565,6.3565,6.3557,6.3602,6.3602,6.3557,6.3602,6.3602,6.3602,6.3602,6.3602,6.3565,6.2747,6.2859,6.349,6.2673,6.2301,6.2146,6.1006,6.0535,6.0257,5.8667,5.8103,5.8156,5.8139,5.737,5.658,5.7438,5.8188,5.8995,6.025,6.0576,6.0827,6.163,6.1861,6.1956,6.2361,6.245,6.2673,6.3453,6.3602,6.3602,6.3557,6.3242,6.2718,6.1933,6.2112,6.1987,6.0793,6.1878,6.2825,6.2463,6.3663,6.4626,6.4662,6.534,6.5804,6.5804,6.5804,6.5804,6.5804,6.5804,6.5804,6.5804,6.5804,6.5804,6.5804,6.5804,6.5804,6.5804,6.5804,6.5804,6.5804,6.5804,6.5804,6.5804,6.5804,6.5804,6.5804,6.5804,6.5804,6.5804,6.5804,6.5575,6.5145,6.4843,6.4428,6.4039,6.3712,6.36,6.36,0.0,0.0,0.0,0.0,0.0,0.0,0.0,0.0,0.0,0.0,0.0,0.0,0.0,0.0,0.0,0.0,0.0,0.0,5.9651,5.978,6.0367,6.1484,6.1217,6.1587,6.271,6.271,6.2872,6.3147,6.3465,6.3465,6.3147,6.3465,6.3602,6.3602,6.3602,6.3602,6.3565,6.2747,6.2524,6.2636,6.1819,6.1113,6.0549,6.0563,5.9799,5.8713,5.8304,5.7778,5.7329,0.0,0.0,0.0,5.8818,5.9502,5.9937,6.1475,6.2135,6.2425,6.2622,6.2899,6.3169,6.326,6.3305,6.3379,6.3565,6.3602,6.3511,6.3194,6.2581,6.1933,6.1472,6.1696,6.164,6.0757,6.217,6.342,6.3581,6.4194,6.493,6.5873,0.0,6.5804,6.5804,6.5804,6.5804,6.5804,6.5804,6.5804,6.5804,6.5804,6.5804,6.5804,6.5804,6.5804,6.5804,6.5804,6.5804,6.5804,6.5804,6.5804,6.5804,6.5804,6.5804,6.5804,6.5804,6.5804,6.5804,6.5804,6.5575,6.5145,6.4843,6.4428,6.4039,6.3712,6.36,6.36,0.0,0.0,0.0,0.0,0.0,0.0,0.0,0.0,0.0,0.0,0.0,0.0,0.0,0.0,0.0,0.0,0.0,0.0,0.0,5.875,5.93,6.0374,6.033,6.0609,6.1329,6.1678,6.2085,6.245,6.253,6.2621,6.2724,6.2621,6.2562,6.2562,6.2562,6.2562,6.2487,6.167,6.1521,0.0,0.0,6.0333,5.9918,6.001,5.9154,5.7857,5.7746,0.0,0.0,0.0,0.0,5.8486,5.9648,6.0464,6.1281,6.2311,0.0,6.3051,6.3194,6.3419,6.3602,6.3602,6.3602,6.3602,6.3602,6.3602,6.3511,6.3099,6.2479,6.1915,6.1528,6.1806,6.195,6.1486,6.2867,6.4093,6.4291,6.4813,6.543,6.6074,6.5958,6.5804,6.5804,6.5804,6.5804,6.5804,6.5804,6.5804,6.5804,6.5804,6.5946,6.6303,6.5982,6.5804,6.5804,6.5804,6.5804,6.5804,6.5804,6.5804,6.5804,6.5804,6.5804,6.5804,6.5804,6.5704,6.5575,6.5575,6.5212,6.474,6.4463,6.4217,6.3858,6.3673,6.36,6.36,0.0,0.0,0.0,0.0,0.0,0.0,0.0,0.0,0.0,0.0,6.0065,0.0,0.0,0.0,0.0,0.0,0.0,0.0,0.0,0.0,0.0,5.9173,5.9479,5.9715,5.9969,6.0646,6.1189,6.1603,6.1345,6.1515,6.2101,6.1478,6.1187,6.1224,6.1143,6.11,6.1063,6.0129,6.0203,6.0833,5.9943,5.961,5.9566,0.0,5.8443,5.7534,0.0,0.0,0.0,0.0,5.8653,5.9943,6.0103,6.1163,6.2508,6.2965,6.3099,6.3147,6.3511,6.3602,6.3602,6.3602,6.3602,6.3602,6.3602,6.3602,6.3465,6.3002,6.2567,6.2219,6.1824,6.2059,6.2259,6.2292,6.3595,6.4597,6.4527,6.5359,6.5931,6.5931,6.5931,6.5867,6.5804,6.5911,6.5946,6.5946,6.6053,6.6053,6.5946,6.6053,6.641,6.7124,6.6482,6.6053,6.5946,6.5946,6.5911,6.5804,6.5804,6.5804,6.5804,6.5804,6.5804,6.574,6.574,6.551,6.5145,6.5145,6.474,6.4111,6.4111,6.393,6.36,6.36,6.36,6.36,0.0,0.0,0.0,0.0,0.0,0.0,0.0,0.0,0.0,0.0,5.9516,5.9284,0.0,0.0,0.0,0.0,0.0,0.0,0.0,0.0,0.0,0.0,5.8134,5.8593,5.99,5.976,6.0029,6.0756,6.1048,6.1048,6.0849,6.1093,6.1187,6.1224,6.0839,6.0665,6.0628,5.9454,5.9102,5.9175,5.8322,5.7993,5.7946,5.7556,0.0,0.0,0.0,0.0,0.0,0.0,5.848,5.9679,6.07,6.1641,6.253,6.328,6.3511,6.3511,6.3557,6.3602,6.3602,6.3602,6.3602,6.3602,6.3602,6.3602,0.0,6.2654,6.2166,6.186,6.1732,6.1564,6.1487,6.178,6.3156,6.4224,6.4158,6.5455,6.6355,6.6355,6.6355,6.6207,6.5867,6.641,6.6767,6.6767,6.7338,6.741,6.6803,6.7374,6.7766,6.7909,6.7766,6.741,6.6803,6.6767,6.6446,6.5804,6.5804,6.5804,6.5804,6.5804,6.564,6.5278,6.5278,6.5078,6.4775,6.4775,6.4498,6.4111,6.4111,6.393,6.36,6.36,6.36,6.36,0.0,0.0,0.0,0.0,0.0,0.0,0.0,5.9679,5.945,5.945,5.9182,5.9149,5.9586,5.9018,5.8507,0.0,0.0,0.0,0.0,0.0,0.0,0.0,0.0,0.0,5.837,5.8454,5.8857,5.9626,0.0,5.9541,5.9909,5.9686,5.959,5.959,5.959,5.959,5.959,5.8969,5.864,5.838,5.8014,5.7774,5.7583,0.0,0.0,0.0,0.0,0.0,0.0,0.0,5.9181,6.0186,6.0944,6.2041,6.3119,6.349,6.3602,6.3602,6.3602,6.3602,6.3602,6.3602,6.3602,6.3602,6.3602,0.0,0.0,6.2603,6.2255,6.2005,6.1768,6.1451,6.148,6.2197,6.3163,6.4063,6.4635,6.5718,6.6476,6.6476,6.6476,6.6474,6.6439,6.6767,6.716,6.7517,6.8302,6.8373,6.7588,6.8302,6.8516,6.8088,6.8516,6.8337,6.7552,6.7552,6.7374,6.6981,6.6589,6.641,6.641,6.5753,6.5344,6.5212,6.5011,6.474,6.4428,6.4428,6.4145,6.3858,6.3858,6.3712,6.36,6.36,6.36,6.36,0.0,0.0,0.0,0.0,0.0,0.0,0.0,5.9012,5.9012,5.9012,5.9012,5.9149,5.9418,5.9085,5.8597,0.0,0.0,0.0,0.0,0.0,0.0,0.0,0.0,0.0,0.0,0.0,0.0,5.8531,5.7971,0.0,0.0,0.0,0.0,0.0,5.8275,5.8363,5.8486,5.8363,5.8186,0.0,0.0,5.7867,0.0,0.0,0.0,0.0,0.0,0.0,0.0,0.0,5.9909,6.0748,6.1069,6.2279,6.3602,6.3602,6.3602,6.3602,6.3602,6.3602,6.3602,6.3602,6.3602,6.3602,6.3602,6.3602,0.0,6.2705,6.25,6.2255,6.1933,6.1394,6.1377,0.0,6.3036,6.3836,6.4924,6.5981,6.6655,6.6772,6.6714,6.674,6.7068,6.7318,6.7712,6.8463,6.9353,6.9532,6.8658,6.9229,6.9265,6.8623,6.9229,6.9091,6.8204,6.8271,6.8199,6.7955,6.7385,6.71,6.7064,6.6093,6.5467,6.519,6.4952,6.4498,6.3967,6.3967,6.3858,6.36,6.36,6.36,6.36,6.36,6.36,6.36,0.0,0.0,0.0,0.0,0.0,0.0,0.0,5.9012,5.9012,5.9012,5.9012,5.9012,5.9081,5.8657,5.8189,0.0,0.0,0.0,0.0,0.0,0.0,0.0,0.0,0.0,0.0,0.0,0.0,5.7692,5.7914,0.0,0.0,0.0,0.0,0.0,0.0,5.7338,5.7679,5.7289,0.0,0.0,0.0,0.0,0.0,0.0,0.0,0.0,0.0,0.0,0.0,0.0,0.0,6.1122,6.1092,6.2266,6.3602,6.3602,0.0,0.0,6.3602,6.3602,6.3602,6.3602,6.3602,6.3602,6.3602,0.0,6.3465,6.3051,6.2618,6.2397,6.2308,6.143,6.0854,6.127,6.2256,6.3315,6.4245,6.5929,6.7157,6.763,6.7305,6.7143,6.7497,6.8255,6.9012,6.9769,7.1003,7.125,7.0332,7.0336,7.0371,7.03,7.0336,6.9878,6.861,6.8991,6.8635,6.7619,6.7548,6.7513,6.7513,6.706,6.6284,6.5262,6.5262,6.4662,6.3673,6.3673,6.3673,6.36,6.36,6.36,6.36,6.36,6.36,6.36,0.0,0.0,0.0,0.0,0.0,0.0,5.9012,5.9012,5.9012,5.9012,5.9012,5.9012,5.9012,5.8872,5.8349,5.7393,0.0,0.0,0.0,0.0,0.0,0.0,0.0,0.0,0.0,0.0,5.7239,5.7239,5.7138,0.0,0.0,0.0,0.0,0.0,0.0,5.7737,5.7914,5.7534,0.0,0.0,0.0,0.0,0.0,0.0,0.0,0.0,0.0,0.0,0.0,0.0,0.0,0.0,6.1349,6.2303,0.0,0.0,6.3419,6.3602,6.3602,6.3602,6.3602,6.3602,6.3602,6.3602,6.3602,0.0,6.3511,6.3099,6.2668,6.2271,6.2041,6.1081,6.0512,6.1257,6.1911,6.2811,6.4287,6.5605,6.6641,6.7268,6.7213,6.7498,6.8632,6.9067,6.9757,7.1028,7.1612,7.1732,7.1359,7.1295,7.1295,7.1295,7.1074,7.0601,6.9839,6.9704,6.9283,6.8609,6.8151,6.7905,6.7905,6.7018,6.6415,6.599,6.5769,6.5406,6.4945,6.4462,6.4255,6.422,6.3772,6.36,6.36,6.36,6.36,6.36,0.0,0.0,0.0,0.0,0.0,5.8426,5.8633,5.8668,5.8771,5.8978,5.9012,5.9012,5.9012,5.9012,5.8494,5.7235,5.7631,0.0,0.0,0.0,0.0,0.0,0.0,0.0,0.0,0.0,5.7036,5.6829,5.6812,5.6984,0.0,0.0,5.7726,5.7923,0.0,0.0,0.0,0.0,0.0,0.0,0.0,0.0,0.0,0.0,0.0,0.0,0.0,0.0,0.0,0.0,0.0,0.0,0.0,0.0,0.0,0.0,6.3289,6.3465,6.3557,6.3602,6.3602,6.3602,6.3602,6.3602,0.0,0.0,6.3511,6.3242,6.2682,6.2219,6.1987,6.0903,6.0388,6.1198,6.1658,6.242,6.4058,6.513,6.61,6.6988,6.6874,6.7491,6.9477,7.012,7.1003,7.2255,7.2328,7.2328,7.2328,7.2328,7.2212,7.1854,7.1295,7.0907,7.0673,7.0061,6.9598,6.9417,6.867,6.8243,6.8243,6.7347,6.674,6.6532,6.6339,6.6083,6.5842,6.529,6.5048,6.4979,6.4462,6.4255,6.4255,6.4014,6.391,6.3876,0.0,0.0,0.0,0.0,0.0,0.0,5.7805,5.7909,5.8185,5.8909,5.9012,5.9012,5.9012,5.9012,5.8426,5.6909,5.7097,0.0,0.0,0.0,0.0,0.0,0.0,0.0,0.0,0.0,5.7188,5.6383,5.7188,5.7388,5.6984,5.7388,5.7583,5.7583,0.0,0.0,0.0,0.0,0.0,0.0,0.0,0.0,0.0,0.0,0.0,0.0,0.0,0.0,0.0,0.0,0.0,0.0,0.0,6.1667,6.3099,0.0,6.3289,6.3099,6.3511,6.3602,6.3602,6.3602,6.3602,6.3602,0.0,6.3602,6.3602,6.3602,6.288,6.2324,6.236,6.114,6.0325,6.0903,6.1501,6.2287,6.3392,6.4563,6.5815,6.6952,6.6368,6.6956,6.9741,7.1581,7.2853,7.332,7.3372,7.3372,7.3372,7.3372,7.2853,7.1707,7.1002,7.0673,7.0907,6.9849,6.949,6.9814,6.9048,6.867,6.867,6.8319,6.7669,6.698,6.698,6.6566,6.5876,6.5876,6.5876,6.5876,6.5876,6.5876,6.5773,6.4979,6.4703,6.4565,0.0,0.0,0.0,0.0,0.0,0.0,0.0,5.715,5.7219,5.746,5.7495,5.7495,5.7495,5.7495,5.7081,5.6081,5.6784,0.0,0.0,0.0,0.0,0.0,0.0,0.0,0.0,0.0,5.7102,5.6776,5.7036,5.7239,5.7388,5.7239,5.7486,5.7923,5.7679,5.7726,0.0,0.0,0.0,0.0,0.0,0.0,0.0,0.0,0.0,0.0,0.0,0.0,0.0,0.0,0.0,0.0,0.0,0.0,0.0,6.3419,6.3511,6.3465,6.3557,6.3602,6.3602,6.3602,6.3602,6.3602,6.3602,6.3602,6.3602,6.3602,6.2917,6.236,6.2324,6.1104,6.045,6.1487,6.1938,6.2611,6.3883,6.5215,6.6344,6.7045,6.8422,6.963,7.0539,7.2198,7.3268,7.3372,7.3372,7.3372,7.3372,7.3372,7.3215,7.2853,7.2212,7.1757,7.1609,7.0267,6.9527,6.9382,6.867,6.8319,6.8319,6.8162,6.798,6.7738,6.7738,6.7601,6.7359,6.6842,6.6635,6.66,6.6083,6.5876,6.5842,6.56,6.5497,6.5393,0.0,0.0,0.0,0.0,0.0,0.0,0.0,5.6357,5.646,5.6771,5.6805,5.6805,5.6805,5.6805,5.6495,5.5701,5.624,0.0,0.0,0.0,0.0,0.0,0.0,0.0,5.5294,5.6221,5.6757,5.6829,5.6948,5.7188,5.7388,5.7289,5.7388,5.769,5.7774,5.7867,0.0,0.0,0.0,0.0,0.0,0.0,5.7583,0.0,0.0,0.0,0.0,0.0,0.0,0.0,0.0,0.0,0.0,0.0,0.0,0.0,6.3602,6.3602,6.3602,6.3602,6.3602,6.3602,6.3511,6.3419,6.3557,0.0,6.3419,6.3557,6.3099,6.2567,6.2376,6.1279,6.0722,6.1804,6.2062,6.2676,6.4116,6.5274,6.6247,6.6874,6.9225,7.0819,7.0717,7.2251,7.3357,7.3372,7.332,7.3357,7.3372,7.3372,7.3372,7.3372,7.265,7.2212,7.2189,7.074,6.999,7.006,6.9273,6.8787,6.8517,6.8517,6.8362,6.8083,6.8083,6.8083,0.0,6.7601,6.7428,6.7359,6.6911,6.6704,6.6669,6.6393,6.629,6.6186,0.0,0.0,0.0,0.0,0.0,0.0,0.0,5.5529,5.5805,5.6529,5.6633,5.6633,5.6633,5.6633,5.6357,5.5598,5.5529,0.0,0.0,0.0,0.0,0.0,0.0,0.0,5.4992,5.5658,5.6185,5.6546,5.6964,5.7102,5.7036,5.7437,5.7388,5.7036,5.7737,5.7877,0.0,0.0,0.0,0.0,5.7583,5.7583,0.0,0.0,0.0,0.0,0.0,0.0,0.0,0.0,0.0,0.0,0.0,0.0,0.0,0.0,0.0,0.0,0.0,6.3602,6.3602,6.3602,6.3289,6.3099,6.3511,0.0,0.0,6.3511,6.3289,6.2904,6.2412,6.1472,6.1045,6.1932,6.2071,6.2682,6.4287,6.5154,6.5914,6.6736,6.9117,7.0665,7.0475,7.2076,7.3252,7.3372,7.3305,7.3252,7.3372,7.3372,7.3372,7.3372,7.248,7.2248,7.2723,7.1159,7.0704,7.1422,7.0637,6.9884,6.9235,6.9273,6.8863,6.8083,6.8162,6.8162,6.8083,6.8083,6.8083,6.8083,6.8083,6.8083,6.8014,6.7325,6.7083,6.6945,0.0,0.0,0.0,0.0,0.0,0.0,0.0,0.0,0.0,0.0,5.5046,5.5046,5.5046,5.5046,5.4977,0.0,0.0,0.0,0.0,0.0,0.0,0.0,0.0,0.0,5.4992,5.5658,5.6313,5.6964,5.7302,5.7486,5.7437,5.7534,5.7388,5.6984,5.7486,5.7821,0.0,0.0,0.0,0.0,5.7388,5.7486,0.0,0.0,0.0,0.0,5.8105,5.8275,0.0,0.0,0.0,0.0,0.0,0.0,0.0,0.0,6.3602,6.3602,6.3602,0.0,6.3602,6.3602,6.3289,6.3099,0.0,0.0,0.0,0.0,0.0,6.2768,6.2076,6.1659,6.1651,6.2393,6.3293,6.4354,6.5569,6.6592,6.7652,6.883,7.0087,7.113,7.171,7.2659,7.3252,7.3372,7.3305,7.3252,7.3372,7.3372,7.3372,7.3372,7.3,7.2779,7.2927,7.1818,7.1286,7.1422,7.0637,6.9884,6.9235,6.9743,6.9347,6.8162,6.8746,6.8593,6.8083,6.8083,6.8083,6.8083,6.8083,6.8083,6.8083,6.7911,6.7842,6.7738,0.0,0.0,0.0,0.0,0.0,0.0,0.0,0.0,0.0,0.0,5.4494,5.4494,5.4494,5.4494,5.4494,0.0,0.0,0.0,0.0,0.0,0.0,0.0,0.0,5.4557,5.4745,5.5484,5.6095,5.6773,5.7029,5.7166,5.7252,5.7015,5.6652,5.6347,5.6845,5.7498,0.0,0.0,0.0,0.0,5.7642,0.0,0.0,0.0,0.0,0.0,5.8006,5.8231,0.0,5.8275,5.8893,6.0053,0.0,0.0,0.0,0.0,6.3465,6.3557,6.3336,6.3465,6.3557,6.3373,6.3002,6.2855,6.3242,0.0,0.0,0.0,0.0,6.3099,6.2442,6.2182,6.2294,6.3166,6.3911,6.493,6.6609,6.7568,6.8518,6.9484,7.0337,7.1153,7.1969,7.2573,7.3054,7.3305,7.3199,7.3199,7.3372,7.3372,7.3372,7.3372,7.3252,7.3145,7.2982,7.2307,7.2011,7.1891,7.1485,7.0937,7.0232,7.0637,7.0024,6.867,6.9013,6.8787,6.8083,6.8083,6.8083,6.8083,6.8083,6.8083,6.8083,6.8083,6.8083,6.8093,0.0,0.0,0.0,0.0,0.0,0.0,0.0,0.0,0.0,0.0,0.0,0.0,0.0,0.0,0.0,0.0,0.0,0.0,0.0,0.0,0.0,0.0,5.4494,5.4494,5.4494,5.5284,5.5851,5.6313,5.6491,5.6685,5.6721,5.6313,5.5907,5.5613,5.6257,5.7065,0.0,0.0,0.0,0.0,5.8105,0.0,0.0,0.0,0.0,0.0,0.0,0.0,0.0,5.8319,5.8941,6.0053,6.0929,0.0,0.0,0.0,0.0,0.0,6.3099,6.3289,6.3511,6.3194,6.2805,6.2603,6.3002,0.0,0.0,0.0,0.0,0.0,0.0,6.2892,0.0,6.3965,6.4493,6.5496,6.7447,6.8171,6.8791,6.9619,7.0272,7.1087,7.2013,7.2484,7.2835,7.3199,7.3091,7.3145,7.3372,7.3372,7.3372,7.3372,7.332,7.3252,7.2982,7.2667,7.2553,7.2496,7.2496,7.2108,7.1422,7.1485,7.074,6.9347,6.9347,6.8938,6.8241,6.8162,6.8083,6.8083,6.8083,6.8083,6.8083,6.8083,6.8162,6.8284,0.0,0.0,0.0,0.0,0.0,0.0,0.0,0.0,0.0,0.0,0.0,0.0,0.0,0.0,0.0,0.0,0.0,0.0,0.0,0.0,0.0,5.4494,5.4494,5.4494,5.4494,5.5402,5.5773,5.5738,5.6456,5.6616,5.615,5.6385,5.6313,5.5964,5.633,5.6757,5.7315,5.7877,0.0,5.8572,5.8275,0.0,0.0,0.0,0.0,0.0,0.0,0.0,0.0,5.8614,5.921,6.0053,6.0929,0.0,0.0,0.0,0.0,0.0,6.3099,6.3289,6.3557,6.3511,6.3194,6.3002,6.3419,0.0,0.0,0.0,0.0,0.0,0.0,6.3481,6.4353,0.0,6.6323,6.7825,6.8321,6.8457,6.9063,7.0499,7.0694,7.1309,7.2865,7.2963,7.3037,7.3199,7.3199,7.3252,7.3372,7.3372,7.3357,7.3252,7.3145,7.2982,7.2723,7.2872,7.2816,7.2496,7.2496,7.2108,7.1422,7.2048,7.1547,7.0163,7.0163,6.9672,6.9013,6.8397,6.8083,6.8083,6.8083,6.8083,6.8083,6.8083,6.8319,6.8676,0.0,0.0,0.0,0.0,0.0,0.0,0.0,0.0,0.0,0.0,0.0,0.0,0.0,0.0,0.0,0.0,0.0,0.0,0.0,0.0,5.4494,5.4494,5.4494,5.4494,5.4494,5.5601,5.5964,5.5484,5.6295,5.6259,5.568,5.5507,5.568,5.5984,5.6185,5.6652,5.7401,5.7877,5.8194,5.8363,0.0,0.0,0.0,0.0,0.0,0.0,0.0,0.0,0.0,0.0,5.9081,5.9801,6.0839,0.0,0.0,0.0,0.0,0.0,6.2855,6.3147,6.3602,6.3602,6.3289,6.3051,6.3242,0.0,0.0,0.0,0.0,0.0,0.0,0.0,6.5012,6.5939,6.7395,6.8408,6.8408,6.8828,6.9534,7.0568,7.0983,7.1669,7.2834,7.2816,7.2816,7.3091,7.2982,7.3,7.3305,7.3252,7.3145,7.3091,7.3037,7.2927,7.2723,7.2779,7.2723,7.2496,7.2496,7.2285,7.2011,7.238,7.1891,7.0872,7.0872,7.0436,6.9778,6.9013,6.8711,6.867,6.8241,6.8083,6.8083,6.8319,6.9087,6.9919,0.0,0.0,0.0,0.0,0.0,0.0,0.0,0.0,0.0,0.0,0.0,0.0,0.0,0.0,0.0,0.0,0.0,0.0,0.0,5.4494,5.4494,5.4494,5.4494,5.4557,5.4745,5.568,5.5872,5.5402,5.5872,5.5851,5.5164,5.4807,5.5044,5.5794,5.5907,5.6492,5.7388,5.7784,5.8015,5.8105,0.0,0.0,0.0,0.0,0.0,0.0,0.0,0.0,0.0,0.0,0.0,0.0,0.0,0.0,0.0,6.2397,6.2953,6.3419,6.2654,6.3002,6.3602,6.3602,0.0,6.3147,6.3147,0.0,0.0,0.0,0.0,0.0,0.0,6.4716,6.5868,6.7354,6.8097,6.8457,6.8358,6.9113,6.9929,7.0449,7.1209,7.1967,7.265,7.261,7.2667,7.2927,7.2835,7.289,7.3145,7.3037,7.2982,7.2927,7.2927,7.2872,7.2667,7.2667,7.261,7.2496,7.2496,7.2496,7.2496,7.2496,7.2167,7.1646,7.1485,7.1067,7.0503,6.9743,6.9419,6.9309,6.8746,6.8474,6.8474,6.8973,6.999,7.1095,0.0,0.0,0.0,0.0,0.0,0.0,0.0,0.0,0.0,0.0,0.0,0.0,0.0,0.0,0.0,0.0,0.0,0.0,0.0,5.4494,5.4494,5.4494,5.4494,5.4772,5.5343,5.5461,5.5461,5.5402,5.5461,5.5164,5.4557,5.4869,5.4992,5.5113,5.5671,5.6146,5.6635,5.7338,5.7821,5.8105,5.8529,0.0,0.0,0.0,0.0,0.0,0.0,0.0,0.0,0.0,0.0,0.0,0.0,0.0,6.2397,6.2397,6.2953,6.3419,6.2654,6.3002,6.3602,6.3602,0.0,0.0,6.3557,0.0,0.0,0.0,0.0,0.0,0.0,6.6054,6.7428,6.8283,6.8468,6.8506,6.8457,6.9211,6.9979,7.0605,7.1263,7.1967,7.265,7.2723,7.2723,7.2723,7.2872,7.2982,7.2982,7.2982,7.2927,7.2723,7.2723,7.2667,7.2496,7.2496,7.2496,7.2496,7.2496,7.2496,7.2496,7.2496,7.2438,7.238,7.1707,7.1359,7.1259,7.0503,7.006,6.9743,6.9671,6.949,6.9305,7.0129,7.0872,7.1511,0.0,0.0,0.0,0.0,0.0,0.0,0.0,0.0,0.0,0.0,0.0,0.0,0.0,0.0,0.0,0.0,0.0,0.0,0.0,5.4494,5.4494,5.4494,5.4494,5.4772,5.5402,5.5402,5.5224,5.4834,5.4834,5.4834,5.4807,5.4745,5.5018,5.5658,5.5887,5.633,5.6912,5.7642,5.7831,5.7821,5.8186,5.8186,0.0,0.0,0.0,0.0,0.0,0.0,0.0,0.0,5.959,6.0199,6.1577,6.2194,6.2449,6.2705,6.3002,6.3147,6.2855,6.3194,6.3602,6.3602,0.0,0.0,0.0,0.0,0.0,0.0,0.0,0.0,0.0,0.0,6.7577,6.8394,6.8506,6.8506,6.8506,6.9521,7.0383,7.0576,7.1598,7.2392,7.2573,7.2667,7.2723,7.2723,7.2779,7.2779,7.2779,7.2723,7.2667,7.2553,7.2553,7.2553,7.2496,7.2496,7.2496,7.2496,7.2496,7.2496,7.2496,7.2496,7.2496,7.2496,7.2226,7.2108,7.2048,7.1295,7.1002,7.0836,7.0163,6.999,7.0095,7.0131,7.0642,7.1295,0.0,0.0,0.0,0.0,0.0,0.0,0.0,0.0,0.0,0.0,0.0,0.0,0.0,0.0,0.0,0.0,0.0,0.0,5.4494,5.4494,5.4494,5.4494,5.4494,5.4683,5.5104,5.5104,5.5018,5.4772,5.462,5.462,5.4869,5.4683,5.5044,5.5887,5.6075,5.651,5.7102,5.769,5.7821,5.7631,5.7969,5.7969,0.0,0.0,0.0,0.0,0.0,0.0,0.0,0.0,5.9859,6.0551,6.1753,6.2315,6.2449,6.2755,6.2904,6.3002,6.3002,6.3289,6.3602,0.0,0.0,0.0,0.0,0.0,0.0,0.0,6.5236,0.0,0.0,0.0,0.0,6.8431,6.8506,6.8506,6.8506,6.9767,7.0665,7.0507,7.1784,7.2667,7.2496,7.2553,7.2667,7.2667,7.2667,7.2667,7.2667,7.2553,7.2496,7.2496,7.2496,7.2496,7.2496,7.2496,7.2496,7.2496,7.2496,7.2496,7.2496,7.2496,7.2496,7.2496,7.2496,7.2496,7.2438,7.2011,7.1854,7.1757,7.093,7.077,7.1002,7.0842,7.1038,7.1458,0.0,0.0,0.0,0.0,0.0,0.0,0.0,0.0,0.0,0.0,0.0,0.0,0.0,0.0,0.0,0.0,0.0,0.0,5.4494,5.4529,5.4529,5.4494,5.4494,5.4494,5.4494,5.4494,5.4772,5.5402,5.4772,5.4494,5.4494,5.4869,5.5174,5.5531,5.6201,5.6688,5.7036,5.7437,5.7583,5.7631,5.7969,5.8105,5.815,0.0,0.0,0.0,0.0,0.0,0.0,0.0,6.0464,6.1317,6.2561,6.2755,6.2397,6.2397,6.2705,6.3002,6.3002,6.3289,6.3602,0.0,0.0,0.0,0.0,0.0,0.0,0.0,0.0,6.7317,6.7317,6.7986,6.8506,6.8506,6.8506,6.8506,6.8506,6.973,7.0665,7.0507,7.1784,7.2667,7.2496,7.2496,7.2496,7.2496,7.2496,7.2496,7.2496,7.2496,7.2496,7.2496,7.2496,7.2496,7.2496,7.2496,7.2496,7.2496,7.2496,7.2496,7.2496,7.2496,7.2496,7.2496,7.2496,7.2496,7.2496,7.2667,7.2573,7.2365,7.2034,7.1915,7.1975,7.248,7.2365,7.1975,0.0,0.0,0.0,0.0,0.0,0.0,0.0,0.0,0.0,0.0,0.0,0.0,0.0,0.0,0.0,0.0,0.0,0.0,5.4494,5.4896,5.4957,5.4494,5.4494,5.4494,5.4494,5.4494,5.4557,5.4807,5.4557,5.462,5.4869,5.493,5.5174,5.5531,5.5901,5.6257,5.6688,5.7338,5.7583,5.7631,5.7969,5.7969,5.7726,0.0,0.0,0.0,0.0,0.0,0.0,0.0,0.0,0.0,6.2,6.2202,6.2449,6.2755,6.2904,6.3051,6.3373,6.3511,0.0,0.0,0.0,0.0,0.0,0.0,0.0,0.0,6.7428,6.8134,6.8134,6.8357,6.8506,6.8506,6.8506,6.8506,6.8506,6.9198,6.9932,7.0434,7.125,7.1929,7.2459,7.261,7.261,7.2496,7.261,7.261,7.2496,7.2496,7.2496,7.2496,7.2496,7.2496,7.2496,7.2496,7.2496,7.2496,7.2496,7.2496,7.2496,7.2496,7.2496,7.2496,7.2496,7.2496,7.2496,7.2816,7.289,7.2945,7.2593,7.248,7.2422,7.2212,7.2034,7.1915,0.0,0.0,0.0,0.0,0.0,0.0,0.0,0.0,0.0,0.0,5.6111,5.5658,0.0,0.0,0.0,0.0,0.0,0.0,0.0,5.5164,5.5104,5.4494,5.4494,5.4494,5.4494,5.4494,5.4494,5.4494,5.4494,5.4683,5.4992,5.4992,5.5234,5.5706,5.6014,5.6311,5.674,5.7188,5.7338,5.7388,5.7546,5.7631,5.7619,0.0,0.0,0.0,0.0,0.0,0.0,0.0,0.0,0.0,6.1733,6.2041,6.2412,6.2668,6.2867,6.3099,6.3511,6.3602,0.0,0.0,0.0,0.0,0.0,0.0,0.0,0.0,6.8171,6.8506,6.8506,6.8506,6.8506,6.8506,6.8506,6.8457,6.8408,6.8911,6.9421,6.9885,7.0441,7.1138,7.1945,7.2075,7.2279,7.2459,7.2553,7.261,7.2496,7.2496,7.2496,7.2496,7.2496,7.2496,7.2496,7.2496,7.2496,7.2496,7.2496,7.2496,7.2496,7.2496,7.2496,7.2496,7.2553,7.261,7.276,7.2982,7.3145,7.3252,7.3054,7.2963,7.2908,7.2593,7.2386,7.2153,0.0,0.0,5.8305,5.8042,0.0,0.0,0.0,0.0,0.0,0.0,5.6704,5.6166,0.0,0.0,0.0,0.0,0.0,0.0,5.5461,5.5402,5.5104,5.4494,5.4494,5.4494,5.4494,5.4494,5.4494,5.4494,5.4494,5.462,5.493,5.4992,5.5259,5.5844,5.6257,5.6582,5.6881,5.6984,5.7072,5.7144,5.7093,5.7384,5.7959,5.8977,0.0,0.0,0.0,0.0,0.0,0.0,0.0,0.0,6.1712,6.1987,6.2308,6.2324,6.2668,6.3099,6.3465,0.0,0.0,0.0,0.0,0.0,6.5831,6.6834,6.7614,6.8357,0.0,6.8506,6.8506,6.8506,6.8506,6.8506,6.8506,6.8457,6.8309,6.8786,6.9163,6.9115,6.9669,7.0293,7.1138,7.1284,7.1615,7.2349,7.2459,7.2496,7.2496,7.2496,7.2496,7.2496,7.2496,7.2496,7.2496,7.2496,7.2496,7.2496,7.2496,7.2496,7.2496,7.2496,7.2496,7.2496,7.2667,7.2779,7.2982,7.3145,7.3305,7.3372,7.3372,7.3372,7.3372,7.3372,7.3108,7.2686,0.0,0.0,5.8305,5.8042,0.0,0.0,0.0,0.0,0.0,0.0,0.0,0.0,0.0,0.0,0.0,0.0,0.0,0.0,5.5461,5.5402,5.5104,5.4494,5.4494,5.4494,5.4494,5.4494,5.4494,5.4494,5.4494,5.4494,5.462,5.4869,5.5053,5.5234,5.5786,5.607,5.6182,5.6776,5.755,5.8383,5.8042,5.8507,5.9429,5.9042,5.8898,0.0,0.0,0.0,0.0,0.0,0.0,0.0,6.1712,6.1768,6.1933,6.2255,6.2668,6.3002,6.3099,6.3373,0.0,0.0,6.4568,6.5756,6.6797,6.7688,6.832,6.8468,6.8506,6.8506,6.8506,6.8506,6.8506,6.8506,6.8506,6.8457,6.8309,6.8356,6.8535,6.9041,6.91,6.9486,7.0293,7.0954,7.1394,7.1578,7.2165,7.2496,7.2496,7.2496,7.2496,7.2496,7.2496,7.2496,7.2496,7.2496,7.2496,7.2496,7.2496,7.2496,7.2496,7.2496,7.2496,7.2496,7.2667,7.2779,7.2982,7.3145,7.3305,7.3372,7.3372,7.3372,7.3372,7.3372,7.3108,7.263,0.0,0.0,0.0,0.0,0.0,0.0,0.0,0.0,0.0,0.0,0.0,0.0,0.0,0.0,0.0,0.0,5.6704,5.6438,5.5887,5.5543,5.5104,5.4494,5.4494,5.4494,5.4494,5.4494,5.4494,5.4494,5.4494,5.4557,5.4745,5.493,5.5174,5.5437,5.5729,5.617,5.673,5.7083,5.7872,5.8717,5.8502,5.8916,5.9631,5.96,5.9689,5.9962,6.081,0.0,0.0,0.0,0.0,0.0,0.0,0.0,6.2041,6.2041,6.2515,6.3002,0.0,0.0,0.0,6.4085,0.0,6.6277,6.7131,6.7948,6.8506,6.8506,6.8506,6.8506,6.8506,6.8506,6.8506,6.8506,6.8506,6.8408,6.8259,6.8121,6.8203,6.8436,6.8365,6.8641,6.9449,6.9926,7.0477,7.1248,7.1688,7.2092,7.2496,7.2496,7.2496,7.2496,7.2496,7.2496,7.2496,7.2496,7.2496,7.2496,7.2496,7.2496,7.2496,7.2496,7.2553,7.261,7.2779,7.2927,7.3091,7.3252,7.3357,7.3372,7.3372,7.3268,7.3071,7.3071,7.2742,7.2307,0.0,0.0,0.0,0.0,0.0,0.0,0.0,0.0,0.0,0.0,0.0,0.0,0.0,0.0,5.7266,0.0,0.0,0.0,5.633,5.5601,5.5079,5.4683,5.4557,5.4494,5.4494,5.4494,5.4494,5.4494,5.4494,5.462,5.493,5.493,5.5304,5.5941,5.5998,5.6688,5.7718,5.7774,5.8315,5.9143,5.903,5.9401,6.0013,6.0503,6.0972,6.136,6.1984,6.1933,6.1768,6.2041,0.0,0.0,0.0,0.0,6.2095,6.1768,6.2202,6.2768,0.0,0.0,0.0,6.4559,6.5413,0.0,6.6998,6.7814,6.8408,6.8408,6.8457,6.8506,6.8506,6.8506,6.8506,6.8506,6.8506,6.8408,6.8158,6.807,6.8004,6.7741,6.7687,6.7944,6.8641,6.8825,6.9522,7.0991,7.1248,7.1651,7.2459,7.2496,7.2496,7.2496,7.2496,7.2496,7.2496,7.2496,7.2496,7.2496,7.2496,7.2496,7.2496,7.2496,7.261,7.2723,7.2927,7.3091,7.3199,7.332,7.3372,7.3372,7.3372,7.3162,7.2798,7.2742,7.2365,7.1915,0.0,0.0,0.0,0.0,0.0,0.0,0.0,0.0,0.0,0.0,5.7867,5.7821,0.0,5.7821,5.7867,5.7867,5.6964,5.6384,5.633,0.0,0.0,5.5284,5.4772,5.4494,5.4494,5.4494,5.4494,5.4494,5.4494,5.4494,0.0,0.0,5.5154,5.6187,5.6395,5.7117,5.8249,5.8445,5.9437,6.0856,6.0449,6.1168,6.2425,6.177,6.1842,6.2109,6.1487,6.1466,6.1656,6.135,6.127,0.0,0.0,0.0,6.1292,6.16,6.1768,6.1878,0.0,0.0,6.3331,0.0,6.5138,6.5667,0.0,0.0,6.7893,6.7893,6.8222,6.8506,6.8506,6.8506,6.8506,6.8506,6.8506,6.8408,6.8158,6.807,6.8004,6.7741,6.7687,6.7724,6.7834,6.8495,6.9302,7.0183,7.0917,7.1651,7.2459,7.2496,7.2496,7.2496,7.2496,7.2496,7.2496,7.2496,7.2496,7.2496,7.2496,7.2496,7.2496,7.261,7.2667,7.2723,7.2927,7.3091,7.3199,7.332,7.3372,7.3372,7.3372,7.3372,7.3268,7.2853,7.2365,7.1854,0.0,0.0,0.0,0.0,0.0,0.0,0.0,0.0,0.0,0.0,0.0,5.8088,5.7997,5.7997,5.7867,5.7498,5.6757,5.5999,5.5343,5.5104,5.4957,5.4896,5.462,5.4494,5.4494,5.4494,5.4494,5.4494,5.4494,0.0,0.0,5.534,5.5827,0.0,0.0,5.8166,5.9206,5.9573,6.0228,6.1151,6.1444,6.1822,6.2255,6.2149,6.2202,6.2344,6.1692,6.1544,6.1656,6.1523,6.1466,6.1466,6.1656,0.0,0.0,0.0,6.1487,0.0,6.2308,6.2718,6.3283,0.0,6.5101,6.5667,6.6766,6.7391,6.7841,6.8171,6.8358,6.8506,6.8506,6.8506,6.8506,6.8506,6.8506,6.8408,6.8158,6.807,6.8004,6.7741,6.7687,6.7687,6.7687,6.8017,6.8568,6.9376,7.0183,7.0991,7.1798,7.2275,7.2496,7.2496,7.2496,7.2496,7.2496,7.2496,7.2496,7.2496,7.2496,7.2496,7.2496,7.2667,7.2779,7.2872,7.3037,7.3199,7.3305,7.341,7.3372,7.3372,7.3108,7.2816,7.25,7.2071,7.1521,7.1074,0.0,0.0,0.0,0.0,0.0,0.0,0.0,0.0,0.0,0.0,0.0,5.8088,5.7997,0.0,0.0,0.0,5.6809,5.6055,5.5018,5.5224,5.5164,5.4745,5.4557,5.4494,5.4494,5.4494,5.4494,5.4494,0.0,0.0,5.5632,5.6397,5.6885,0.0,5.8154,5.9159,0.0,0.0,0.0,0.0,6.2132,6.2308,6.2202,6.2464,6.2654,6.2618,6.2095,6.1933,6.2041,0.0,6.1878,6.1878,6.1878,6.1878,0.0,0.0,0.0,0.0,0.0,0.0,6.2915,6.4029,6.4562,6.5081,0.0,0.0,6.7516,6.7996,6.8321,6.8457,6.8321,6.8408,6.8506,6.8506,6.8506,6.8408,6.8158,6.807,6.8004,6.7741,6.7687,6.7687,6.7687,6.7687,6.8017,6.8862,6.9633,7.044,7.1284,7.2055,7.2496,7.2496,7.2496,7.2496,7.2496,7.2496,7.2496,7.2496,7.2496,7.2496,7.2553,7.2723,7.2872,7.3037,7.3145,7.3305,7.3372,7.3372,7.332,7.3215,7.2853,7.2365,7.1854,7.1359,7.0979,7.0682,0.0,0.0,0.0,0.0,0.0,0.0,0.0,0.0,0.0,0.0,0.0,5.7997,5.7997,5.7997,5.7997,5.795,5.7401,5.6809,5.6221,5.5716,5.5402,5.5343,5.4772,0.0,5.4494,5.4494,5.4494,0.0,0.0,0.0,5.5632,5.7473,5.8456,5.8773,5.9178,5.976,6.0635,0.0,0.0,0.0,6.2397,6.2855,6.3465,6.3099,6.3194,6.3465,6.2654,0.0,0.0,0.0,0.0,0.0,6.236,6.236,6.2255,0.0,0.0,0.0,0.0,6.1768,0.0,6.2892,6.3069,6.3362,0.0,6.5515,6.6318,6.7011,6.7878,6.8321,6.793,6.8222,6.8506,6.8506,6.8506,6.8408,6.8158,6.807,6.8004,6.7741,6.7687,6.7687,6.7687,6.7687,6.8017,6.8862,6.9633,7.044,7.1284,7.2055,7.2496,7.2496,7.2496,7.2496,7.2496,7.2496,7.2496,7.2496,7.2496,7.2553,7.2723,7.2927,7.3037,7.3199,7.3199,7.3305,7.3372,7.3372,7.3162,7.2742,7.2686,7.2365,7.1854,7.1359,7.1204,7.1074,0.0,0.0,0.0,0.0,0.0,0.0,0.0,0.0,0.0,0.0,0.0,0.0,0.0,5.8042,5.7867,5.7594,5.7266,5.6861,5.633,5.651,5.6349,5.5751,5.5402,5.5079,5.4807,5.462,5.4736,0.0,0.0,5.6115,5.7116,5.7994,5.8711,5.9394,5.9902,6.0448,6.0974,6.16,0.0,0.0,6.2818,6.3194,6.3242,6.3336,6.3465,6.3511,0.0,0.0,0.0,0.0,0.0,0.0,0.0,0.0,0.0,0.0,0.0,0.0,0.0,0.0,0.0,6.2464,6.2767,6.3088,6.3821,6.5022,6.6153,6.668,6.7458,6.7982,6.7841,6.8171,6.8408,6.8084,6.8272,6.8408,6.8158,6.807,6.8004,6.7741,6.7687,6.7687,6.7687,6.7687,6.7797,6.8091,6.9339,7.022,7.0513,7.1798,7.2496,7.2496,7.2496,7.2496,7.2496,7.2496,7.2496,7.2496,7.261,7.2667,7.2723,7.2982,7.3145,7.3199,7.3305,7.3357,7.3372,7.3071,7.2853,7.263,7.2011,7.1646,7.1359,7.0913,7.075,7.075,0.0,0.0,0.0,0.0,0.0,0.0,0.0,0.0,0.0,5.8179,0.0,0.0,0.0,0.0,5.7867,5.7642,5.7546,5.7315,5.6757,5.7116,5.6978,5.6111,5.5773,5.5566,5.5523,5.4849,5.5104,0.0,0.0,0.0,0.0,5.8581,5.9129,5.9783,6.036,6.0732,0.0,0.0,0.0,6.1768,6.2768,6.3099,6.3051,0.0,0.0,0.0,0.0,0.0,0.0,0.0,0.0,0.0,0.0,0.0,0.0,0.0,0.0,0.0,6.1408,0.0,0.0,0.0,6.2221,6.2465,6.3166,6.4476,6.5752,6.6276,6.7237,6.7982,6.7841,6.8171,6.8321,6.7878,6.8222,6.8408,6.8158,6.807,6.8004,6.7741,6.7687,6.7687,6.7687,6.7687,6.7687,6.7687,6.9192,7.011,7.011,7.1615,7.2496,7.2496,7.2496,7.2496,7.2496,7.2496,7.2496,7.2553,7.2667,7.2779,7.289,7.3091,7.3252,7.3252,7.332,7.3372,7.3372,7.2908,7.2593,7.2365,7.1521,7.1074,7.0913,7.0615,7.0514,7.0514,0.0,0.0,0.0,0.0,0.0,0.0,0.0,0.0,5.8437,5.8486,0.0,0.0,0.0,0.0,0.0,5.8252,5.8378,5.8207,5.7631,5.7583,5.7252,5.651,5.5999,5.6024,5.6586,5.5286,5.5633,5.7719,5.7161,5.7578,5.8948,0.0,5.9783,6.0135,6.0485,6.0609,6.0671,0.0,6.135,6.1768,0.0,6.2654,6.3051,0.0,0.0,0.0,6.3602,6.3602,0.0,6.3602,0.0,0.0,0.0,0.0,0.0,0.0,0.0,0.0,0.0,0.0,0.0,0.0,6.1408,6.139,6.2609,6.3819,6.5004,6.5752,6.7288,6.8284,6.7841,6.8134,6.8321,6.7841,6.8222,6.8408,6.8121,6.807,6.7967,6.7741,6.7687,6.7687,6.7687,6.7687,6.7687,6.7687,6.9155,7.0073,7.011,7.1615,7.2496,7.2496,7.2496,7.2496,7.2496,7.2496,7.2553,7.2723,7.2723,7.289,7.3199,7.3199,7.3305,7.3372,7.3372,7.3372,7.332,7.2853,7.2365,7.1854,7.1395,7.0913,7.0514,7.0514,7.0514,7.0514,0.0,0.0,0.0,0.0,0.0,5.8492,5.8572,5.8443,5.8393,0.0,0.0,0.0,5.9161,5.9797,6.0129,5.9955,5.9955,5.9863,5.959,5.9674,5.9542,5.9161,5.8834,5.8734,5.8682,5.8024,5.8048,5.8677,5.8437,5.8822,5.9839,5.9709,6.0192,6.1322,6.0818,6.0878,6.1372,6.1487,0.0,6.2255,6.2668,6.3099,0.0,0.0,0.0,0.0,0.0,6.3602,6.3602,0.0,6.3602,6.3557,0.0,0.0,0.0,0.0,0.0,0.0,6.2078,0.0,0.0,0.0,0.0,0.0,6.152,6.2537,6.3602,6.413,6.5567,6.6733,6.689,6.7524,6.7982,6.7789,6.8222,6.8457,6.8259,6.8158,6.8055,6.7899,6.7741,6.7687,6.7687,6.7687,6.7687,6.7687,6.8641,6.9486,7.0073,7.1615,7.2496,7.2496,7.2496,7.2496,7.2496,7.261,7.2667,7.2723,7.2945,7.3091,7.3199,7.3305,7.3372,7.3372,7.3372,7.3215,7.2853,7.2328,7.2034,7.1854,7.1045,7.0615,7.0514,7.0514,7.0514,7.0514,0.0,0.0,5.8698,5.8698,5.8614,5.8492,5.8572,5.8782,5.8998,0.0,0.0,0.0,5.9973,6.0626,6.0885,6.0702,6.0794,6.0794,6.0748,6.0794,6.0748,6.0525,6.0115,5.9976,6.0082,5.9276,5.9302,6.0272,5.9657,5.9845,6.0711,6.0529,6.0831,6.1548,6.114,6.1315,0.0,0.0,0.0,0.0,6.2768,0.0,0.0,6.3557,6.3602,0.0,0.0,0.0,6.3602,6.3602,6.3602,0.0,0.0,0.0,0.0,0.0,0.0,0.0,0.0,0.0,0.0,6.1712,0.0,0.0,6.135,6.2438,6.3527,6.3826,6.5007,6.6191,6.6777,6.7271,6.7714,6.8047,6.8321,6.8457,6.8309,6.8208,6.8018,6.7952,6.7794,6.7687,6.7687,6.7687,6.7687,6.7687,6.8458,6.9265,7.0073,7.0991,7.1505,7.1505,7.1505,7.1561,7.1617,7.1673,7.1747,7.1857,7.2055,7.2161,7.2214,7.2318,7.2369,7.2369,7.2369,7.2124,7.1655,7.1107,7.1175,7.1547,7.0781,7.0514,7.0514,7.0514,7.0514,7.0514,0.0,0.0,5.8846,5.8846,5.88,5.8831,5.8953,5.9542,5.998,0.0,6.0648,6.1032,6.0812,6.1106,6.1226,6.1098,6.1315,6.1403,6.1403,6.1403,6.1359,6.1226,6.0603,6.0551,6.1126,5.9908,6.0123,6.1951,6.0807,6.0732,6.16,6.1584,6.1548,6.1472,6.1508,6.1933,6.2412,0.0,0.0,6.1933,6.2618,6.3002,0.0,0.0,6.3602,6.3602,6.3602,6.3602,6.3602,6.3602,6.3602,0.0,0.0,0.0,0.0,0.0,6.2515,0.0,0.0,0.0,0.0,6.1823,6.1823,0.0,6.1768,6.2907,6.3934,6.402,6.493,6.5975,6.6727,6.695,6.7246,6.7951,6.8185,6.8297,6.8309,6.8208,6.807,6.7952,6.7794,6.7741,6.7687,6.7687,6.7687,6.7687,6.8458,6.9229,6.9926,7.0036,7.011,7.011,7.0073,7.0184,7.0293,7.0347,7.0454,7.0717,7.0717,7.0768,7.092,7.092,7.092,7.092,7.092,7.0665,7.0202,6.9681,7.012,7.0995,7.0539,7.0443,7.0514,7.0514,7.0514,7.0514,5.8698,5.9218,5.9664,5.9664,6.0215,6.0661,6.0704,6.0809,6.0921,6.0796,6.1456,6.1974,6.2064,6.2658,6.3029,6.2937,6.2937,6.2891,6.2667,6.262,6.262,6.262,6.2475,6.2549,6.2744,6.25,6.2288,6.2235,6.1877,6.1824,6.2166,6.177,6.2093,6.2965,6.2464,6.2464,6.2855,0.0,0.0,6.2718,6.253,6.2867,6.3511,6.3557,6.3602,6.3602,6.3602,6.3602,6.3602,6.3602,6.3602,6.3557,0.0,0.0,0.0,6.3419,0.0,0.0,0.0,0.0,0.0,6.2718,6.2515,0.0,6.2219,6.2204,6.2313,6.2668,6.3182,6.3657,6.4213,6.4815,6.5343,6.5527,6.6338,6.7345,6.8297,6.8358,6.8208,6.8107,6.7915,6.7847,6.7687,6.7687,6.7687,6.7687,6.8458,6.8972,6.9119,6.9743,7.011,7.011,7.0184,7.0238,7.0293,7.0507,7.0665,7.0717,7.0819,7.087,7.092,7.092,7.092,7.092,7.092,7.0471,6.9624,6.9566,6.9794,7.0165,6.9716,6.9943,7.0514,7.0514,7.0514,7.0514,5.9961,6.0295,6.0555,6.0555,6.0927,6.1187,6.1187,6.1558,6.1737,6.1693,6.2398,6.2917,6.2917,6.3334,6.3557,6.3382,6.3465,6.3465,6.3289,6.3289,6.3289,6.3289,6.3242,6.3242,6.3289,6.3194,6.3051,6.2631,6.2668,6.2567,6.236,6.2376,6.2631,6.3099,6.2755,6.2755,6.2953,0.0,6.2412,6.3002,6.2768,0.0,6.3602,6.3602,6.3862,6.4196,6.4196,6.4196,6.4196,6.4196,6.3936,0.0,6.3602,6.3602,6.3602,6.3602,6.3602,6.3602,6.3602,6.3289,6.3002,6.3002,6.2855,0.0,0.0,6.2479,6.2464,6.2904,6.2652,6.264,6.3471,6.3621,6.3911,6.4729,6.5343,6.6095,6.7147,6.7877,6.8259,6.8208,6.8107,6.7952,6.7847,6.7794,6.7794,6.7687,6.8054,6.8365,6.8382,6.8787,6.9061,6.9115,6.9168,6.9236,6.9326,6.9429,6.9531,6.9632,6.9682,6.9732,6.9732,6.9732,6.9732,6.9732,6.9732,6.9199,6.8304,6.8304,6.8621,6.9089,6.9225,6.98,7.0514,7.0514,7.0514,7.0514,6.1261,6.1336,6.1447,6.1447,6.1558,6.167,6.167,6.2227,6.2636,6.2636,6.3193,6.3557,6.3465,6.3557,6.3557,6.3465,6.3557,6.3602,6.3557,6.3557,6.3557,6.3511,6.3419,6.3336,6.3336,6.3242,6.3194,6.3099,6.3194,6.3002,6.2603,6.3051,6.3099,6.2904,6.2953,0.0,0.0,0.0,0.0,6.3099,0.0,6.3242,6.3639,6.3788,6.4233,6.4828,6.5013,6.5051,6.5051,6.5051,6.4531,6.3825,6.3825,6.3713,6.3602,6.3602,6.3602,6.3602,6.3602,6.3336,6.3099,6.3099,6.3099,6.3099,0.0,0.0,0.0,6.3419,6.2682,6.2204,6.3231,6.2876,6.2799,6.3945,6.4433,6.4824,6.5371,6.6827,6.7852,6.8049,6.8097,6.8055,6.7952,6.7899,6.7847,6.7794,6.7741,6.7794,6.7952,6.7952,6.8004,6.807,6.8158,6.8208,6.8309,6.8309,6.8408,6.8506,6.8506,6.8506,6.8506,6.8506,6.8506,6.8506,6.8506,6.7982,6.7101,6.7101,6.7499,6.8159,6.8837,6.9658,7.0514,7.0514,7.0514,7.0514,6.1484,6.1781,6.2264,6.2264,6.2859,6.3342,6.3342,6.3416,6.3453,6.3453,6.3565,6.3602,0.0,0.0,0.0,0.0,0.0,0.0,6.3428,0.0,6.3336,6.3279,6.3194,6.3194,6.3194,6.3289,6.3336,6.3336,6.3336,6.3336,6.3289,6.3336,6.3336,6.3336,6.3465,0.0,0.0,0.0,6.3099,0.0,6.3147,6.3242,0.0,6.4419,6.4716,6.4902,6.5682,6.5942,6.5942,6.5942,6.5385,6.4679,6.4679,6.4196,6.3602,6.3602,6.3602,6.3602,6.3602,6.3557,6.3511,6.3511,6.3511,6.3511,6.3511,0.0,6.3002,6.3051,0.0,6.2344,6.2348,0.0,0.0,6.1388,6.2761,6.3716,6.3071,6.4696,6.6273,6.7111,6.7765,6.8055,6.7952,6.7794,6.7847,6.8055,6.7915,6.7952,6.807,6.8107,6.807,6.807,6.8208,6.8259,6.8309,6.8408,6.8457,6.8506,6.8506,6.8506,6.8506,6.8506,6.8506,6.8506,6.8506,6.7982,6.7101,6.7101,6.7499,6.8088,6.8195,6.9158,7.0514,7.0514,7.0514,7.0514,6.2747,6.2859,6.3119,6.3119,6.3379,6.3602,6.3602,6.3602,6.3602,6.3602,6.3602,6.3602,0.0,0.0,0.0,0.0,0.0,6.3557,0.0,0.0,6.3511,6.3419,6.3419,6.3419,6.3419,6.3511,6.3465,6.3382,6.3382,6.3336,6.3289,6.3336,6.3382,6.3419,6.3557,0.0,6.3242,0.0,6.3099,0.0,0.0,6.3944,6.4345,6.4679,6.5422,6.6388,6.7205,6.7205,6.6797,6.6797,6.6239,6.5571,6.5571,6.4976,6.4308,6.4308,6.3973,6.3602,6.3602,6.3602,6.3602,6.3602,6.3602,6.3602,6.3602,6.3289,6.3051,6.3289,0.0,0.0,0.0,0.0,0.0,0.0,6.2291,6.2829,6.2941,6.3996,6.5214,6.6162,6.6531,6.6837,6.7163,6.75,6.7741,6.7847,6.7899,6.7952,6.807,6.8208,6.8259,6.8358,6.8408,6.8408,6.8408,6.8457,6.8506,6.8506,6.8506,6.8506,6.8506,6.8506,6.8506,6.8506,6.8506,6.7982,6.7101,6.7101,6.7499,6.8088,6.8088,6.9087,7.0514,7.0514,7.0514,7.0514,6.3602,0.0,0.0,6.3602,6.3602,6.3602,6.3602,6.3602,6.3602,0.0,0.0,0.0,6.3602,6.3602,0.0,0.0,6.3602,6.3602,0.0,0.0,6.3602,0.0,0.0,0.0,0.0,6.3602,6.3557,6.3428,6.3428,6.3419,6.3326,6.3419,6.3428,6.3465,0.0,6.3465,6.3147,0.0,6.3258,6.3516,6.4106,6.4816,6.5496,6.5496,6.6388,6.7725,6.832,6.8134,6.7651,6.7651,6.7094,6.6425,6.6425,6.5868,6.5162,6.5162,6.4753,6.4233,6.401,6.3936,6.3899,6.3676,6.3602,6.3602,6.3602,6.3336,6.3242,6.3557,6.288,0.0,0.0,0.0,6.186,6.215,0.0,6.2493,6.2756,6.337,6.4217,6.5226,6.5509,6.5878,6.6367,6.7037,6.7463,6.7516,6.7804,6.8107,6.8208,6.8309,6.8408,6.8506,6.8506,6.8506,6.8506,6.8506,6.8506,6.8506,6.8506,6.8506,6.8506,6.8506,6.8506,6.8506,6.8506,6.7982,6.7137,6.7356,6.768,6.8123,6.8337,6.9265,7.0514,7.0514,7.0514,7.0514,6.3602,6.3602,0.0,0.0,0.0,6.3602,6.3602,0.0,0.0,0.0,0.0,0.0,0.0,0.0,0.0,0.0,0.0,6.3602,6.3602,0.0,6.3602,0.0,0.0,6.3602,0.0,0.0,6.3602,6.3602,6.3602,6.3602,6.3602,6.3602,6.3602,6.3602,6.3602,6.3602,6.3557,6.3557,6.4002,6.4707,6.4744,6.5794,6.7243,6.7243,6.7763,6.8468,6.8506,6.8506,6.8468,6.8468,6.7948,6.728,6.728,6.6722,6.6054,6.6054,6.6054,6.5831,6.5013,6.4791,6.4568,6.3788,6.3602,6.3602,6.3602,6.3602,6.3557,6.3602,6.3557,6.3511,6.3382,6.3336,6.303,6.216,6.2535,0.0,0.0,6.2426,6.3235,6.4291,6.509,6.5557,6.5743,6.6344,6.6824,6.7123,6.7864,6.8358,6.8457,6.8506,6.8506,6.8506,6.8506,6.8506,6.8506,6.8506,6.8506,6.8506,6.8506,6.8506,6.8506,6.8506,6.8506,6.8506,6.8506,6.7982,6.7174,6.7976,6.8186,6.8159,6.898,6.9765,7.0514,7.0514,7.0514,7.0514,6.3602,0.0,0.0,0.0,0.0,0.0,0.0,6.3602,0.0,0.0,0.0,0.0,0.0,6.4085,6.4419,0.0,0.0,6.5274,6.5274,6.5274,0.0,0.0,0.0,6.4159,0.0,0.0,0.0,0.0,6.3602,6.3602,6.3602,6.3602,6.3602,6.3602,0.0,6.3602,0.0,0.0,0.0,0.0,6.6017,6.7131,6.8097,6.8097,6.8283,6.8506,6.8506,6.8506,6.8506,6.8506,6.832,6.8097,6.8097,6.754,6.6908,6.6908,6.6537,6.6054,6.5756,6.5682,6.5608,6.5311,6.4828,6.4419,6.4419,6.401,6.3602,6.3602,6.3602,6.3602,6.3557,6.3465,6.3308,6.2965,6.301,6.3025,0.0,6.272,6.2915,6.3272,6.4081,6.4595,6.4646,6.5432,6.5962,6.6062,6.6951,6.7531,6.758,6.816,6.8506,6.8506,6.8506,6.8506,6.8506,6.8506,6.8506,6.8506,6.8506,6.8506,6.8506,6.8506,6.8506,6.8543,6.9063,6.8948,6.8421,6.8893,6.9165,6.9333,6.9328,6.98,7.0514,7.0514,7.0514,7.0514,6.3602,0.0,0.0,0.0,0.0,0.0,0.0,0.0,0.0,0.0,6.4048,0.0,6.4456,0.0,6.5274,0.0,6.5794,6.6091,6.6091,6.6091,0.0,6.5311,6.5274,0.0,0.0,0.0,0.0,0.0,0.0,6.3602,6.3602,6.3602,6.3602,6.3602,0.0,6.3602,6.3676,6.4456,6.4976,0.0,6.7057,6.806,6.8506,6.8506,6.8506,6.8506,6.8506,6.8506,6.8506,6.8506,6.8506,6.8506,6.8506,6.8134,6.7725,6.7725,6.7354,6.6908,6.6611,6.6537,6.6462,6.6165,6.5682,6.5274,6.5274,6.4865,6.4419,6.4085,6.4048,6.3936,6.3676,6.3511,6.3465,6.3465,6.3373,6.3194,0.0,6.2953,6.2904,6.2953,6.3332,6.3649,6.3663,6.4549,6.5127,6.5177,6.6149,6.6876,6.7135,6.7752,6.8208,6.8506,6.8506,6.8506,6.8506,6.8506,6.8506,6.8506,6.8506,6.8506,6.8506,6.8506,6.8654,6.8989,6.9472,6.9591,6.952,6.9791,6.9939,6.9985,6.9788,7.005,7.0514,7.0514,7.0514,7.0514,6.3602,6.3602,0.0,0.0,6.3639,0.0,0.0,0.0,6.3973,0.0,6.4865,6.5199,6.6017,6.6165,6.6239,6.6239,6.6277,6.6277,6.6277,6.6239,0.0,0.0,6.6165,6.6128,6.6091,0.0,0.0,0.0,0.0,0.0,6.3676,0.0,0.0,0.0,6.3602,0.0,6.3713,6.4531,6.5385,6.6351,6.7874,6.8543,6.858,6.858,6.858,6.8617,6.8543,6.8506,6.8506,6.8506,6.8506,6.8506,6.8506,6.8506,6.8506,6.8506,6.8506,6.8357,6.7577,6.7354,6.7205,6.6425,6.6202,6.6165,6.6165,6.6128,6.5868,6.5051,6.4865,6.4642,6.3825,6.3676,6.3676,6.3602,6.3511,6.3336,6.3231,6.3099,6.3051,6.3147,6.2953,6.2855,6.3002,6.3848,6.4388,6.453,6.544,6.6388,6.7205,6.728,6.7688,6.8468,6.8506,6.8506,6.8506,6.8506,6.8506,6.8506,6.8506,6.8506,6.8506,6.8506,6.8951,6.9732,6.9769,7.0013,7.0403,7.0689,7.0544,7.0121,7.0427,7.0514,7.0514,7.0514,7.0514,7.0514,6.3602,6.3602,6.3788,0.0,6.401,6.3825,0.0,0.0,0.0,0.0,6.5794,6.5868,6.6091,6.7168,6.7874,6.7874,6.8431,0.0,0.0,0.0,0.0,6.702,6.6982,6.6722,6.6128,6.5905,0.0,6.5794,0.0,0.0,6.4493,0.0,0.0,0.0,0.0,6.3936,6.4568,6.5422,6.6611,6.7948,6.8357,6.8877,6.9397,6.9397,6.9769,7.014,6.8951,6.8506,6.8506,6.8506,6.8506,6.8506,6.8506,6.8506,6.8506,6.8506,6.8506,6.8468,6.8246,6.8208,6.8134,6.7948,6.7428,6.6982,6.6982,6.6537,6.6054,6.5831,6.5794,6.5534,6.4679,6.4493,6.4308,6.3713,6.3511,6.3382,6.3336,6.3242,6.3147,6.3231,6.3147,6.3099,6.3147,6.3427,6.3669,6.3715,6.4587,6.5534,6.6351,6.6982,6.7688,6.8468,6.8506,6.8506,6.8506,6.8506,6.8506,6.8506,6.8506,6.8506,6.8506,6.8506,6.8951,6.9732,7.0363,7.1018,7.1769,7.2024,7.186,7.138,7.1131,7.0781,7.0514,7.0514,7.0514,7.0514,6.4716,6.4716,0.0,6.5311,0.0,0.0,6.5311,6.5385,0.0,6.6537,6.6945,0.0,6.7651,6.8803,6.9583,6.9583,6.9992,0.0,7.0252,0.0,0.0,6.8394,6.8357,6.7986,6.7168,6.6797,0.0,6.6611,0.0,0.0,6.5348,6.4531,6.4122,0.0,0.0,6.4382,6.4902,6.6128,6.7354,6.8543,6.8877,6.9323,0.0,7.0103,7.0512,7.0809,6.988,6.9583,6.9583,6.9583,6.9583,6.9583,6.9583,6.9323,6.9026,6.9026,6.8803,6.8506,6.8506,6.8506,6.8506,6.8506,6.8171,6.7837,6.7837,6.7465,6.7057,6.6722,6.6611,6.6388,6.5534,6.5088,6.4568,6.375,6.3557,6.3511,6.3511,6.3336,6.3289,6.3373,6.3289,6.3289,6.3373,6.3419,6.3428,6.3511,6.3965,6.4642,6.5496,6.6314,6.7168,6.7948,6.832,6.8506,6.8506,6.8506,6.8506,6.8506,6.8506,6.8506,6.8506,6.8506,6.8951,6.9732,7.0215,7.1069,7.2221,7.2115,7.2149,7.2153,7.1458,7.1045,7.0781,7.0547,7.0514,7.0514,6.6091,0.0,0.0,0.0,0.0,0.0,0.0,6.6314,0.0,6.7503,0.0,6.8989,6.9769,7.0586,7.1069,7.1069,0.0,7.1069,7.1069,7.0958,7.0623,6.9917,6.9769,6.9397,6.8691,6.7874,6.7465,0.0,0.0,0.0,6.6239,6.5385,6.4976,0.0,0.0,6.5051,6.5236,6.6797,6.7948,6.8729,6.9434,6.9843,7.0103,7.0809,7.1143,7.1255,7.1255,7.1106,7.092,7.092,7.092,7.092,7.092,7.0437,6.988,6.988,6.9286,6.8654,6.8654,6.858,6.8506,6.8506,6.8506,6.8506,6.8506,6.8506,6.832,6.7614,6.7465,6.7205,6.6425,6.5459,6.4568,6.3899,6.3676,6.3602,6.3602,6.3511,6.3465,6.3602,6.3511,0.0,6.3602,6.3511,6.3465,6.3602,6.3602,6.3973,6.4791,6.5645,6.6462,6.728,6.8097,6.8506,6.8506,6.8506,6.8506,6.8506,6.8506,6.8506,6.8506,6.8506,6.8951,6.9732,6.9732,7.0586,7.1998,7.1669,7.1968,7.263,7.1583,7.1204,7.1139,7.0682,7.0514,7.0514,0.0,0.0,0.0,0.0,0.0,6.7317,6.7986,6.754,6.7614,6.91,6.9397,6.9806,7.0623,7.1478,7.1961,7.1961,7.1961,0.0,0.0,0.0,0.0,7.0735,7.0066,6.9657,6.9509,6.8729,6.832,0.0,0.0,0.0,6.7094,6.6277,6.5868,6.5868,6.5868,6.6239,6.6945,6.7911,6.8766,6.9509,6.9657,7.0549,7.1775,7.1923,7.2369,7.2964,7.2964,7.2072,7.092,7.092,7.092,7.092,7.092,7.0809,7.0698,7.0698,7.014,6.9509,6.9509,6.9026,6.8506,6.8506,6.8506,6.8506,6.8506,6.8506,6.8468,6.832,6.832,6.806,6.7243,6.5868,6.4753,6.4642,6.4048,6.3602,6.3602,6.3557,6.3557,6.3602,6.3557,6.3557,6.3602,6.3557,6.3557,6.3602,6.3602,6.3973,6.4791,6.5645,6.6462,6.728,6.8097,6.8506,6.8506,6.8506,6.8506,6.8506,6.8506,6.8506,6.8506,6.8506,6.8951,6.9732,6.9732,7.0252,7.118,7.1835,7.2314,7.263,7.1583,7.1204,7.1139,7.0682,7.0514,7.0514,0.0,0.0,0.0,0.0,0.0,0.0,0.0,6.9174,6.9323,6.9657,7.0475,7.1143,7.1515,7.2295,7.2815,7.2815,7.2815,7.2815,7.2815,7.2444,7.1998,7.1589,7.118,7.0586,6.9732,6.9323,6.8951,6.8506,0.0,6.7948,6.7911,6.7094,6.6722,6.6722,6.6722,6.7168,6.7948,6.8357,6.8989,6.9769,7.0177,7.1069,7.2221,7.2629,7.3038,7.3372,7.3372,7.2889,7.2184,7.2184,7.2184,7.2184,7.2184,7.1923,7.1589,7.1589,7.0995,7.0252,6.9843,6.9434,6.9026,6.8617,6.8506,6.8506,6.8506,6.8506,6.8506,6.8506,6.8506,6.8246,6.7465,6.6648,6.5831,6.4939,6.4493,6.4085,6.3676,6.3602,6.3602,6.3602,6.3602,6.3602,6.3602,6.3602,6.3602,6.3602,6.3602,6.3788,6.4159,6.5422,6.6277,6.6685,6.7874,6.8506,6.8506,6.8506,6.8506,6.8506,6.8506,6.8506,6.8506,6.8506,6.8729,6.91,6.91,6.9546,7.04,7.1663,7.2303,7.2408,7.2102,7.2011,7.1891,7.1175,7.1045,7.1139,0.0,6.8654,0.0,0.0,6.9434,6.9992,6.9992,7.066,7.0958,7.0326,7.1366,7.2295,7.2666,7.3261,7.3707,7.3892,7.3892,7.3818,7.367,7.3632,7.3298,7.2481,7.2258,7.1589,7.0252,6.988,6.9397,0.0,0.0,6.8506,6.8506,6.7874,6.7577,6.7577,6.7577,6.7911,6.8506,6.8691,6.9249,7.0029,7.0846,7.1701,7.2518,7.3149,7.3372,7.3372,7.3372,7.3372,7.3372,7.3372,7.3372,7.3372,7.3372,7.2964,7.2444,7.2444,7.1849,7.1069,7.04,6.9992,6.9583,6.8914,6.8654,6.8506,6.8506,6.8506,6.8506,6.8506,6.8506,6.832,6.7688,6.7428,6.6871,6.5571,6.5199,6.4791,6.3973,6.3862,6.3788,6.3639,6.3602,6.3602,6.3602,6.3602,6.3602,6.3602,6.3602,6.3602,6.3602,6.5199,6.6091,6.6091,6.7688,6.8506,6.8506,6.8506,6.8506,6.8506,6.8506,6.8506,6.8506,6.8506,6.8506,6.8506,6.8506,6.8989,6.9843,7.1292,7.2035,7.2258,7.2558,7.2686,7.2573,7.1671,7.1609,7.1794,0.0,0.0,0.0,0.0,0.0,7.0809,7.0809,7.1515,7.2035,7.1961,7.2072,7.2741,7.419,7.4413,7.4784,7.549,7.5564,7.5267,7.4524,7.4487,7.4115,7.3298,7.2555,7.2109,7.1961,7.0475,6.9694,0.0,6.8877,6.8506,6.8506,6.8431,6.8394,6.8394,6.8394,6.8431,6.858,6.9286,7.0066,7.0883,7.1738,7.2555,7.3298,7.3372,7.3372,7.3372,7.3372,7.3372,7.3372,7.3372,7.3372,7.3372,7.3372,7.3335,7.3261,7.3261,7.2704,7.2035,7.1961,7.0846,6.9694,6.962,6.9063,6.8506,6.8506,6.8506,6.8506,6.8506,6.8506,6.8506,6.8431,6.78,6.7243,6.7094,6.6462,6.5682,6.4828,6.4716,6.4419,6.3713,6.3602,6.3602,6.3602,6.3602,6.3602,6.3602,6.3602,6.3602,6.3602,6.5199,6.6091,6.6091,6.7688,6.8506,6.8506,6.8506,6.8506,6.8506,6.8506,6.8506,6.8506,6.8506,6.8506,6.8506,6.8506,6.8989,6.9769,7.066,7.1478,7.2258,7.2558,7.2686,7.263,7.2034,7.1854,7.1915,0.0,0.0,0.0,0.0,0.0,7.1849,7.2332,7.3112,7.3781,7.4301,7.393,7.4041,7.5193,7.5304,7.5453,7.575,7.5787,7.5639,7.5341,7.5304,7.4933,7.4153,7.3781,7.3187,7.2221,7.1515,7.0958,7.0437,6.962,6.9249,6.9211,6.8729,6.8506,6.8543,6.9026,6.9249,6.9286,7.0103,7.092,7.1701,7.2035,7.2666,7.3372,7.3372,7.3372,7.3372,7.3372,7.3372,7.3372,7.3372,7.3372,7.3372,7.3372,7.3372,7.3372,7.3372,7.3149,7.2778,7.2295,7.1701,7.0958,6.9955,6.9472,6.91,6.8617,6.8506,6.8506,6.8506,6.8506,6.8506,6.8506,6.8246,6.7874,6.7391,6.7057,6.6537,6.5719,6.5571,6.5274,6.4419,6.4345,6.4159,6.3676,6.3602,6.3602,6.3602,6.3602,6.3602,6.3602,6.5199,6.6091,6.6091,6.7688,6.8506,6.8506,6.8506,6.8506,6.8506,6.8506,6.8506,6.8506,6.8506,6.8506,6.8506,6.8506,6.8691,6.9063,6.988,7.0698,7.1515,7.2177,7.2664,7.3071,7.2537,7.2537,7.265,7.092,7.1106,7.1366,7.1589,7.2332,7.3149,7.3967,7.4561,7.523,7.6047,7.5676,7.5527,7.6121,7.6159,7.627,7.6493,7.653,7.6419,7.6196,7.6159,7.5787,7.497,7.471,7.4041,7.2927,7.2406,7.1886,7.1292,7.0475,7.0066,7.0066,6.9472,6.9211,6.9249,6.9806,7.0066,7.014,7.0958,7.1626,7.2221,7.2444,7.2889,7.3372,7.3372,7.3372,7.3372,7.3372,7.3372,7.3372,7.3372,7.3372,7.3372,7.3372,7.3372,7.3372,7.3372,7.3372,7.3261,7.2704,7.2369,7.1923,7.0735,7.0066,6.9583,6.8989,6.8691,6.8506,6.8506,6.8506,6.8506,6.8506,6.8506,6.832,6.7763,6.7651,6.7391,6.6574,6.6462,6.6165,6.5274,6.5199,6.4865,6.4048,6.3973,6.3973,6.3973,6.3973,6.3973,6.3973,6.5311,6.6202,6.6462,6.78,6.8506,6.8506,6.8506,6.8506,6.8506,6.8506,6.8506,6.8506,6.8506,6.8506,6.8506,6.8506,6.8506,6.858,6.9397,7.0029,7.066,7.1775,7.2518,7.3075,7.2943,7.3108,7.3215,7.092,7.1589,7.2406,7.3224,7.4041,7.4821,7.5639,7.5787,7.6084,7.6939,7.705,7.705,7.705,7.705,7.7385,7.8202,7.8239,7.7905,7.7125,7.705,7.6679,7.5824,7.5007,7.4561,7.4561,7.3001,7.2184,7.2146,7.1329,7.092,7.092,7.0883,7.0883,7.0883,7.0883,7.092,7.0958,7.1812,7.2184,7.2258,7.3038,7.3372,7.3372,7.3372,7.3372,7.3372,7.3372,7.3372,7.3372,7.3372,7.3372,7.3372,7.3372,7.3372,7.3372,7.3372,7.3372,7.3372,7.3372,7.2778,7.2184,7.2146,7.092,6.9732,6.9694,6.91,6.8506,6.8506,6.8506,6.8506,6.8506,6.8506,6.8506,6.8506,6.8506,6.8208,6.7391,6.7317,6.6982,6.6202,6.6091,6.5756,6.4865,6.4791,6.4791,6.4791,6.4791,6.4791,6.4791,6.5645,6.6462,6.728,6.8097,6.8506,6.8506,6.8506,6.8506,6.8506,6.8506,6.8506,6.8506,6.8506,6.8506,6.8506,6.8506,6.8506,6.858,6.9397,6.9732,6.988,7.1552,7.2184,7.2295,7.3075,7.3372,7.332,7.3461,7.4078,7.471,7.497,7.523,7.5676,7.653,7.6679,7.6976,7.7793,7.7905,7.7905,7.7905,7.7905,7.8016,7.8276,7.8276,7.8165,7.7905,7.7905,7.7533,7.6716,7.6419,7.575,7.4598,7.4078,7.3558,7.3001,7.2184,7.1478,7.092,7.092,7.092,7.0958,7.1515,7.1775,7.1849,7.2666,7.3001,7.3038,7.3298,7.3372,7.3372,7.3372,7.3372,7.3372,7.3372,7.3372,7.3372,7.3372,7.3372,7.3372,7.3372,7.3372,7.3372,7.3372,7.3372,7.3372,7.3372,7.3187,7.2889,7.2332,7.1366,7.04,6.9843,6.91,6.8506,6.8506,6.8506,6.8506,6.8506,6.8506,6.8506,6.8506,6.8506,6.8431,6.8171,6.8134,6.7837,6.702,6.6945,6.6611,6.5794,6.5682,6.5682,6.5682,6.5682,6.5682,6.5682,6.6462,6.7057,6.7317,6.8097,6.8506,6.8506,6.8506,6.8506,6.8506,6.8506,6.8506,6.8506,6.8506,6.8506,6.8506,6.8506,6.8506,6.8543,6.8803,6.9211,6.9806,7.0883,7.1663,7.2295,7.3075,7.3372,7.332,7.5384,7.5574,7.5899,7.6233,7.627,7.6567,7.7422,7.7533,7.7719,7.8202,7.8276,7.8276,7.8276,7.8276,7.8276,7.8276,7.8276,7.8276,7.8276,7.8276,7.8053,7.757,7.7236,7.6604,7.5564,7.4896,7.4338,7.3818,7.3038,7.2369,7.1849,7.1849,7.1849,7.1849,7.2406,7.2629,7.2666,7.3187,7.3372,7.3372,7.3372,7.3372,7.3372,7.3372,7.3372,7.3372,7.3372,7.3372,7.3372,7.3372,7.3372,7.3372,7.3372,7.3372,7.3372,7.3372,7.3372,7.3372,7.3372,7.3372,7.3261,7.2778,7.1998,7.1106,6.9992,6.91,6.8506,6.8506,6.8506,6.8506,6.8506,6.8506,6.8506,6.8506,6.8506,6.8506,6.8506,6.8506,6.832,6.7837,6.7763,6.7428,6.6648,6.6574,6.6574,6.6574,6.6574,6.6685,6.6982,6.7205,6.7465,6.7763,6.8246,6.8506,6.8506,6.8506,6.8506,6.8506,6.8506,6.8506,6.8506,6.8506,6.8506,6.8506,6.8506,6.8506,6.8506,6.8506,6.8803,6.936,7.0475,7.1255,7.1849,7.2964,7.3372,7.332,7.6563,7.628,7.625,7.7013,7.7162,7.7422,7.8165,7.8276,7.8313,7.8351,7.8351,7.8388,7.8462,7.8425,7.8351,7.8351,7.8313,7.8276,7.8276,7.8276,7.8276,7.8276,7.757,7.7162,7.7087,7.5564,7.471,7.4598,7.3818,7.3447,7.3372,7.3372,7.3372,7.3372,7.3372,7.3372,7.3372,7.3372,7.3372,7.3372,7.3372,7.3372,7.3372,7.3372,7.3372,7.3372,7.3372,7.3372,7.3372,7.3372,7.3372,7.3372,7.3372,7.3372,7.3372,7.3372,7.3372,7.3372,7.3372,7.3372,7.3372,7.3372,7.2778,7.1738,7.0103,6.9137,6.858,6.8506,6.8506,6.8506,6.8506,6.8506,6.8506,6.8506,6.8506,6.8506,6.8506,6.8506,6.8506,6.8506,6.8506,6.8208,6.7465,6.7391,6.7391,6.7391,6.7391,6.7725,6.8468,6.78,6.7725,6.8506,6.8506,6.8506,6.8506,6.8506,6.8506,6.8506,6.8506,6.8506,6.8506,6.8506,6.8506,6.8506,6.8506,6.8506,6.8506,6.8506,6.8506,6.8654,7.0289,7.092,7.1106,7.2778,7.3372,7.332,7.7608,7.7891,7.8214,7.8052,7.8016,7.8053,7.8239,7.8276,7.8499,7.9131,7.9205,7.9428,8.0059,7.9576,7.9205,7.9205,7.8648,7.8276,7.8276,7.8276,7.8276,7.8276,7.809,7.7719,7.7087,7.6679,7.5861,7.4598,7.4413,7.4004,7.3372,7.3372,7.3372,7.3372,7.3372,7.3372,7.3372,7.3372,7.3372,7.3372,7.3372,7.3372,7.3372,7.3372,7.3372,7.3372,7.3372,7.3372,7.3372,7.3372,7.3372,7.3372,7.3372,7.3372,7.3372,7.3372,7.3372,7.3372,7.3372,7.3372,7.3372,7.3372,7.2778,7.1738,7.0103,6.9583,6.9249,6.8654,6.8506,6.8506,6.8506,6.8506,6.8506,6.8506,6.8506,6.8506,6.8506,6.8506,6.8506,6.8506,6.8506,6.8431,6.8246,6.8246,6.8246,6.8246,6.8246,6.832,6.8506,6.832,6.832,6.8506,6.8506,6.8506,6.8506,6.8506,6.8506,6.8506,6.8506,6.8506,6.8506,6.8506,6.8506,6.8506,6.8506,6.8506,6.8506,6.8506,6.8506,6.8654,7.0289,7.092,7.1106,7.2778,7.3372,7.3372,7.8806,7.8849,7.8854,7.8386,7.8276,7.8425,7.8796,7.8833,7.9131,7.9948,8.0059,8.0208,8.0654,8.032,8.0059,8.0059,7.8982,7.8276,7.8276,7.8276,7.8276,7.8276,7.8276,7.809,7.7645,7.7273,7.6456,7.5156,7.5156,7.4933,7.4487,7.4115,7.393,7.393,7.3558,7.3372,7.3372,7.3372,7.3372,7.3372,7.3372,7.3595,7.393,7.393,7.4153,7.4487,7.4487,7.4264,7.393,7.393,7.367,7.3372,7.3372,7.3372,7.3372,7.3372,7.3372,7.3372,7.3372,7.3372,7.3372,7.3372,7.2778,7.1961,7.1032,7.0252,6.9583,6.9137,6.8766,6.8506,6.8506,6.8506,6.8506,6.8506,6.8506,6.8506,6.8506,6.8506,6.8506,6.8506,6.8506,6.8506,6.8506,6.8506,6.8506,6.8506,6.8506,6.8506,6.8506,6.8506,6.8506,6.8506,6.8506,6.8506,6.8506,6.8506,6.8506,6.8506,6.8506,6.8506,6.8506,6.8506,6.8506,6.8506,6.8506,6.8506,6.8506,6.8506,6.8506,6.8654,7.0289,7.092,7.1106,7.2778,7.3372,7.3372,7.9878,7.9441,7.8991,7.8661,7.8517,7.8722,7.9539,7.9576,7.9799,8.058,8.0691,8.0728,8.0877,8.0877,8.0877,8.0877,7.9502,7.8611,7.8462,7.8351,7.8276,7.8276,7.8276,7.8276,7.8276,7.7608,7.6865,7.5973,7.5973,7.5936,7.5787,7.5081,7.4784,7.4747,7.4041,7.3744,7.3744,7.3744,7.3744,7.3744,7.3744,7.4153,7.4784,7.4784,7.5193,7.5787,7.5787,7.5341,7.4747,7.4635,7.4153,7.3558,7.341,7.3372,7.3372,7.3372,7.3372,7.3372,7.3372,7.3372,7.3372,7.3372,7.2889,7.2332,7.2221,7.1106,7.0029,6.9769,6.9174,6.8654,6.8543,6.8506,6.8506,6.8506,6.8506,6.8506,6.8506,6.8506,6.8506,6.8506,6.8506,6.8506,6.8506,6.8506,6.8506,6.8506,6.8506,6.8506,6.8506,6.8506,6.8506,6.8506,6.8506,6.8506,6.8506,6.8506,6.8506,6.8506,6.8506,6.8506,6.8506,6.8506,6.8506,6.8506,6.8506,6.8506,6.8506,6.8506,6.858,6.884,7.0326,7.0995,7.1292,7.2815,7.3372,7.3372,8.0391,7.992,7.9668,7.9855,7.9572,7.9576,8.0394,7.9948,7.9799,8.058,8.0691,8.0988,8.1694,8.1806,8.1806,8.1806,8.0877,8.0022,7.9354,7.8685,7.8276,7.8276,7.8276,7.8276,7.8276,7.8165,7.7682,7.6902,7.6902,7.6493,7.5787,7.5676,7.5601,7.5601,7.5453,7.5416,7.5416,7.5416,7.5416,7.5416,7.5416,7.549,7.5601,7.5601,7.5676,7.5787,7.5787,7.5713,7.549,7.4821,7.4524,7.4301,7.3595,7.3372,7.3372,7.3372,7.3372,7.3372,7.3372,7.3372,7.3372,7.3372,7.3298,7.3038,7.2332,7.1998,7.1403,6.9992,6.962,6.9323,6.8654,6.8506,6.8506,6.8506,6.8506,6.8506,6.8506,6.8506,6.8506,6.8506,6.8506,6.8506,6.8506,6.8506,6.8506,6.8506,6.8506,6.8506,6.8506,6.8506,6.8506,6.8506,6.8506,6.8506,6.8506,6.8506,6.8506,6.8506,6.8506,6.8506,6.8506,6.8506,6.8506,6.8506,6.8506,6.8506,6.8506,6.8506,6.8914,6.962,7.0549,7.1366,7.2109,7.3038,7.3372,7.3372,8.1727,8.1536,8.1254,8.0696,8.0205,7.9994,8.0405,7.9911,7.9799,8.058,8.0691,8.084,8.1248,8.1285,8.1285,8.1285,8.0914,8.0542,8.0171,7.9391,7.8722,7.8313,7.8276,7.8276,7.8276,7.8276,7.809,7.7719,7.7719,7.7533,7.7125,7.6679,7.6493,7.6456,7.601,7.5787,7.5787,7.5787,7.5787,7.5787,7.5787,7.6084,7.6493,7.6493,7.6753,7.7125,7.7125,7.6865,7.6419,7.6047,7.5341,7.4524,7.4153,7.3744,7.3372,7.3372,7.3372,7.3372,7.3372,7.3372,7.3372,7.3372,7.3372,7.3298,7.2927,7.2481,7.1961,7.1218,7.0326,6.962,6.9211,6.8803,6.8506,6.8506,6.8506,6.8506,6.8506,6.8506,6.8506,6.8506,6.8506,6.8506,6.8506,6.8506,6.8506,6.8506,6.8506,6.8506,6.8506,6.8506,6.8506,6.8506,6.8506,6.8506,6.8506,6.8506,6.8506,6.8506,6.8506,6.8506,6.8506,6.8506,6.8506,6.8506,6.8506,6.8766,6.9174,6.9174,6.962,7.0437,7.1292,7.1849,7.2295,7.3075,7.3372,7.3372,8.2447,8.2377,8.2072,8.1212,8.0658,8.044,8.058,8.0099,7.9874,8.0507,8.0507,8.0431,8.0431,8.058,8.0691,8.0691,8.0691,8.0617,8.0431,7.9837,7.9205,7.8611,7.8388,7.8276,7.8276,7.8276,7.8276,7.8276,7.8276,7.8276,7.8276,7.7645,7.7347,7.7347,7.6679,7.6382,7.6382,7.6382,7.6382,7.6382,7.6382,7.6753,7.7347,7.7347,7.7756,7.8276,7.8276,7.7905,7.7347,7.7162,7.6233,7.5081,7.471,7.4153,7.3632,7.3447,7.3372,7.3372,7.3372,7.3372,7.3372,7.3372,7.3372,7.3372,7.3372,7.2889,7.2406,7.2221,7.118,7.0215,7.0029,6.9472,6.9026,6.884,6.8803,6.8729,6.8543,6.8506,6.8506,6.8506,6.8506,6.8506,6.8506,6.8506,6.8506,6.8506,6.8506,6.8506,6.8506,6.8506,6.8506,6.8506,6.8506,6.8506,6.8506,6.8506,6.8506,6.8506,6.8506,6.8506,6.8506,6.8691,6.8803,6.8803,6.8989,6.9434,6.9992,6.9992,7.0475,7.1292,7.1923,7.2295,7.2518,7.3149,7.3372,7.3372,8.1215,8.0873,8.0812,8.1423,8.1136,8.1097,8.1854,8.0903,8.0192,8.023,7.9834,7.9576,7.9576,8.0245,8.0691,8.0691,8.0691,8.0357,7.9614,7.9502,7.9465,7.9391,7.8685,7.8276,7.8276,7.8276,7.8276,7.8276,7.8276,7.8276,7.8276,7.8239,7.8202,7.8202,7.8128,7.809,7.809,7.809,7.809,7.809,7.809,7.8128,7.8202,7.8202,7.8239,7.8276,7.8276,7.8239,7.809,7.7347,7.7013,7.6642,7.5081,7.4561,7.4338,7.3595,7.3372,7.3372,7.3372,7.3372,7.3372,7.3372,7.3372,7.3372,7.3372,7.3335,7.3075,7.2332,7.2072,7.1775,7.0958,7.0772,7.0512,6.9732,6.962,6.936,6.8617,6.8506,6.8506,6.8506,6.8506,6.8506,6.8506,6.8506,6.8506,6.8506,6.8506,6.8506,6.8506,6.8506,6.8506,6.8506,6.8506,6.8506,6.8506,6.8506,6.8506,6.8506,6.8506,6.8506,6.8543,6.9286,6.962,6.9657,7.04,7.0772,7.0846,7.0846,7.1329,7.2109,7.2146,7.2629,7.3298,7.3372,7.3372,7.3372,8.2554,8.2496,8.2318,8.2088,8.1652,8.1266,8.1073,8.0396,7.9755,7.9504,7.929,7.9119,7.8778,7.9019,7.9205,7.9205,7.9651,7.9837,7.9502,7.9948,7.9799,7.8796,7.8462,7.8276,7.8276,7.8276,7.8276,7.8276,7.8276,7.8276,7.8276,7.8276,7.8276,7.8276,7.8276,7.8276,7.8276,7.8276,7.8276,7.8276,7.8276,7.8276,7.8276,7.8276,7.8276,7.8276,7.8276,7.8276,7.8239,7.7942,7.7496,7.6865,7.5713,7.497,7.4413,7.3632,7.3372,7.3372,7.3372,7.3372,7.3372,7.3372,7.3372,7.3372,7.3372,7.3372,7.3298,7.3001,7.2518,7.2072,7.1775,7.1255,7.0809,7.0512,7.0475,7.0177,6.936,6.9249,6.9063,6.858,6.8506,6.8506,6.8506,6.8506,6.8506,6.8506,6.8506,6.8506,6.8506,6.8506,6.8506,6.8506,6.8506,6.8506,6.8506,6.8506,6.8766,6.9249,6.9249,6.9509,7.0029,7.0326,7.0475,7.0475,7.0772,7.1218,7.1701,7.1701,7.2184,7.2927,7.2927,7.3112,7.3372,7.3372,7.3372,7.3372,8.2708,8.2785,8.2631,8.2016,8.1666,8.1262,8.0688,8.0239,7.9794,7.9487,7.9161,7.8854,7.8565,7.8386,7.8276,7.8276,7.8796,7.9094,7.9094,7.9614,7.9576,7.8685,7.8425,7.8276,7.8276,7.8276,7.8276,7.8276,7.8276,7.8276,7.8276,7.8276,7.8276,7.8276,7.8276,7.8276,7.8276,7.8276,7.8276,7.8276,7.8276,7.8276,7.8276,7.8276,7.8276,7.8276,7.8276,7.8276,7.8276,7.8276,7.7905,7.731,7.6456,7.5453,7.4413,7.3632,7.3372,7.3372,7.3372,7.3372,7.3372,7.3372,7.3372,7.3372,7.3372,7.3372,7.3372,7.3372,7.2927,7.2555,7.2555,7.2072,7.1589,7.1366,7.1329,7.1032,7.0215,7.0103,6.988,6.9323,6.9249,6.9249,6.9249,6.9063,6.8877,6.8877,6.8654,6.8506,6.8506,6.8506,6.8506,6.8506,6.8766,6.8877,6.8877,6.8877,6.9174,6.9732,6.9992,7.04,7.092,7.118,7.1329,7.1329,7.1589,7.2035,7.2555,7.2555,7.2889,7.3372,7.3372,7.3372,7.3372,7.3372,7.3372,7.3372,8.1093,8.1093,8.1093,8.1093,8.1093,8.1093,8.1093,8.072,8.0391,8.0391,7.9621,7.9004,7.9004,7.8618,7.8276,7.8276,7.8276,7.8276,7.8276,7.8276,7.8648,7.9465,7.8722,7.8276,7.8276,7.8276,7.8276,7.8276,7.8276,7.8276,7.8276,7.8276,7.8276,7.8276,7.8276,7.8276,7.8276,7.8276,7.8276,7.8276,7.8276,7.8276,7.8276,7.8276,7.8276,7.8276,7.8276,7.8276,7.8276,7.8276,7.8276,7.8165,7.7347,7.5936,7.4413,7.3632,7.3372,7.3372,7.3372,7.3372,7.3372,7.3372,7.3372,7.3372,7.3372,7.3372,7.3372,7.3372,7.3372,7.3372,7.3372,7.3372,7.3112,7.2332,7.2184,7.1886,7.1032,7.092,7.092,7.092,7.092,7.092,7.092,7.0215,6.9732,6.9732,6.8989,6.8543,6.8543,6.8543,6.8543,6.8543,6.9286,6.9732,6.9732,6.9732,6.9732,6.9732,7.0549,7.092,7.0958,7.1812,7.2184,7.2221,7.3038,7.3372,7.3372,7.3372,7.3372,7.3372,7.3372,7.3372,7.3372,7.3372,7.3372,7.3372,8.1093,8.1093,8.1093,8.1093,8.1093,8.1093,8.1093,8.0959,8.0754,8.0428,8.0161,7.9751,7.9102,7.8854,7.8633,7.8332,7.8276,7.8276,7.8276,7.8276,7.8388,7.8648,7.8425,7.8276,7.8276,7.8276,7.8276,7.8276,7.8276,7.8276,7.8276,7.8276,7.8276,7.8276,7.8276,7.8276,7.8276,7.8276,7.8276,7.8276,7.8276,7.8276,7.8276,7.8276,7.8276,7.8276,7.8276,7.8276,7.8276,7.8276,7.8276,7.8053,7.6604,7.5453,7.4413,7.3632,7.3372,7.3372,7.3372,7.3372,7.3372,7.3372,7.3372,7.3372,7.3372,7.3372,7.3372,7.3372,7.3372,7.3372,7.3372,7.3372,7.3298,7.3075,7.3038,7.2741,7.1923,7.1812,7.1589,7.0995,7.092,7.092,7.092,7.0698,7.0549,7.0549,7.0326,7.0215,7.0215,7.0215,7.0215,7.0215,7.0437,7.0549,7.0549,7.0549,7.0846,7.1441,7.1701,7.2109,7.2666,7.2889,7.3038,7.3038,7.3298,7.3372,7.3372,7.3372,7.3372,7.3372,7.3372,7.3372,7.3372,7.3372,7.3372,7.3372,8.1093,8.1093,8.1093,8.1093,8.1093,8.1093,8.1093,8.1093,8.1029,8.072,8.054,8.0162,7.9621,7.9395,7.9102,7.8618,7.8441,7.8276,7.8276,7.8276,7.8276,7.8276,7.8276,7.8276,7.8276,7.8276,7.8276,7.8276,7.8276,7.8276,7.8276,7.8276,7.8276,7.8276,7.8276,7.8276,7.8276,7.8276,7.8276,7.8276,7.8276,7.8276,7.8276,7.8276,7.8276,7.8276,7.8276,7.8276,7.8276,7.8276,7.8276,7.8053,7.6716,7.5713,7.4896,7.4115,7.3632,7.3372,7.3372,7.3372,7.3372,7.3372,7.3372,7.3372,7.3372,7.3372,7.3372,7.3372,7.3372,7.3372,7.3372,7.3372,7.3372,7.3372,7.3372,7.3224,7.2741,7.2666,7.2481,7.1961,7.1886,7.1886,7.1886,7.1589,7.1292,7.0958,7.092,7.092,7.092,7.092,7.092,7.092,7.1255,7.1403,7.1403,7.1738,7.1998,7.2184,7.2518,7.2927,7.3372,7.3372,7.3372,7.3372,7.3372,7.3372,7.3372,7.3372,7.3372,7.3372,7.3372,7.3372,7.3372,7.3372,7.3372,7.3372,8.1093,8.1093,8.1093,8.1093,8.1093,8.1093,8.1093,8.1093,8.1093,8.1093,8.072,8.0467,8.0391,8.0002,7.9576,7.9102,7.8633,7.8441,7.8441,7.8441,7.8441,7.8441,7.8441,7.8441,7.8441,7.8332,7.8276,7.8276,7.8276,7.8276,7.8276,7.8276,7.8276,7.8276,7.8276,7.8276,7.8276,7.8276,7.8276,7.8276,7.8276,7.8276,7.8276,7.8276,7.8276,7.8276,7.8276,7.8276,7.8276,7.8276,7.8276,7.8165,7.7347,7.6493,7.5639,7.4821,7.4004,7.3372,7.3372,7.3372,7.3372,7.3372,7.3372,7.3372,7.3372,7.3372,7.3372,7.3372,7.3372,7.3372,7.3372,7.3372,7.3372,7.3372,7.3372,7.3372,7.3372,7.3372,7.3372,7.3372,7.3372,7.3372,7.3372,7.2741,7.1961,7.118,7.1143,7.1143,7.1143,7.1143,7.1143,7.1143,7.1886,7.2295,7.2295,7.3001,7.3001,7.2295,7.3038,7.3372,7.3372,7.3372,7.3372,7.3372,7.3372,7.3372,7.3372,7.3372,7.3372,7.3372,7.3372,7.3372,7.3372,7.3372,7.3372,7.3372,8.1093,8.1093,8.1093,8.1093,8.1093,8.1093,8.1093,8.1093,8.1093,8.1093,8.0991,8.0788,8.0428,8.0316,8.0043,7.9576,7.9441,7.9395,7.9395,7.9395,7.9395,7.9395,7.9395,7.9395,7.9395,7.8686,7.8276,7.8276,7.8276,7.8276,7.8276,7.8276,7.8276,7.8276,7.8276,7.8276,7.8276,7.8276,7.8276,7.8276,7.8276,7.8276,7.8276,7.8276,7.8276,7.8276,7.8276,7.8276,7.8276,7.8276,7.8276,7.8165,7.7347,7.6493,7.5639,7.4821,7.4004,7.3372,7.3372,7.3372,7.3372,7.3372,7.3372,7.3372,7.3372,7.3372,7.3372,7.3372,7.3372,7.3372,7.3372,7.3372,7.3372,7.3372,7.3372,7.3372,7.3372,7.3372,7.3372,7.3372,7.3372,7.3372,7.3372,7.3224,7.3038,7.2852,7.2852,7.2852,7.2852,7.2852,7.2852,7.2852,7.3038,7.3112,7.3112,7.3298,7.3298,7.3112,7.3298,7.3372,7.3372,7.3372,7.3372,7.3372,7.3372,7.3372,7.3372,7.3372,7.3372,7.3372,7.3372,7.3372,7.3372,7.3372,7.3372,7.3372,8.1093,8.1093,8.1093,8.1093,8.1093,8.1093,8.1093,8.1093,8.1093,8.1093,8.1093,8.1029,8.0754,8.0754,8.054,8.0043,7.9836,7.9708,7.9708,7.9708,7.9708,7.9708,7.9708,7.9708,7.9708,7.9208,7.8954,7.8954,7.8954,7.8854,7.8633,7.8633,7.8512,7.8276,7.8276,7.8276,7.8276,7.8276,7.8276,7.8276,7.8276,7.8276,7.8276,7.8276,7.8276,7.8276,7.8276,7.8276,7.8276,7.8276,7.8276,7.8202,7.7793,7.679,7.5713,7.5304,7.4301,7.3372,7.3372,7.3372,7.3372,7.3372,7.3372,7.3372,7.3372,7.3372,7.3372,7.3372,7.3372,7.3372,7.3372,7.3372,7.3372,7.3372,7.3372,7.3372,7.3372,7.3372,7.3372,7.3372,7.3372,7.3372,7.3372,7.3372,7.3372,7.3372,7.3372,7.3372,7.3372,7.3372,7.3372,7.3372,7.3372,7.3372,7.3372,7.3372,7.3372,7.3372,7.3372,7.3372,7.3372,7.3372,7.3372,7.3372,7.3372,7.3372,7.3372,7.3372,7.3372,7.3372,7.3372,7.3372,7.3372,7.3372,7.3372,7.3372,8.1093,8.1093,8.1093,8.1093,8.1093,8.1093,8.1093,8.1093,8.1093,8.1093,8.1093,8.1093,8.1093,8.1093,8.0926,8.054,8.0162,7.992,7.992,7.992,7.992,7.992,7.992,7.992,7.992,7.992,7.9878,7.9708,7.9708,7.9487,7.9112,7.9053,7.8789,7.8441,7.8332,7.8276,7.8276,7.8276,7.8276,7.8276,7.8276,7.8276,7.8276,7.8276,7.8276,7.8276,7.8276,7.8276,7.8276,7.8276,7.8276,7.8276,7.8276,7.7236,7.5973,7.5824,7.4747,7.3558,7.341,7.3372,7.3372,7.3372,7.3372,7.3372,7.3372,7.3372,7.3372,7.3372,7.3372,7.3424,7.349,7.349,7.354,7.3591,7.3641,7.3641,7.3641,7.354,7.349,7.349,7.3424,7.3372,7.3372,7.3372,7.3372,7.3372,7.3372,7.3372,7.3372,7.3372,7.3372,7.3372,7.3372,7.3372,7.3372,7.3372,7.3372,7.3372,7.3372,7.3372,7.3372,7.3372,7.3372,7.3372,7.3372,7.3372,7.3372,7.3372,7.3372,7.3372,7.3372,7.3372,7.3372,7.3372,7.3372,7.3372,8.1093,8.1093,8.1093,8.1093,8.1093,8.1093,8.1093,8.1093,8.1093,8.1093,8.1093,8.1093,8.1093,8.1093,8.1061,8.1029,8.0959,8.0926,8.0926,8.0926,8.0926,8.0926,8.0926,8.0926,8.0926,8.0926,8.054,7.9708,7.9708,7.9665,7.9621,7.9198,7.8954,7.8891,7.8458,7.8276,7.8276,7.8276,7.8276,7.8276,7.8276,7.8276,7.8276,7.8276,7.8276,7.8276,7.8276,7.8276,7.8276,7.8276,7.8276,7.8276,7.8276,7.7645,7.6753,7.601,7.5156,7.4264,7.3558,7.3372,7.3372,7.3372,7.3372,7.3372,7.3372,7.3372,7.3372,7.3372,7.3372,7.349,7.3821,7.3916,7.4056,7.4455,7.454,7.454,7.454,7.4192,7.3916,7.3916,7.3604,7.3372,7.3372,7.3372,7.3372,7.3372,7.3372,7.3372,7.3372,7.3372,7.3372,7.3372,7.3372,7.3372,7.3372,7.3372,7.3372,7.3372,7.3372,7.3372,7.3372,7.3372,7.3372,7.3372,7.3372,7.3372,7.3372,7.3372,7.3372,7.3372,7.3372,7.3372,7.3372,7.3372,7.3372,7.3372,8.1093,8.1093,8.1093,8.1093,8.1093,8.1093,8.1093,8.1093,8.1093,8.1093,8.1093,8.1093,8.1093,8.1093,8.1093,8.1093,8.1093,8.1093,8.1093,8.1093,8.1093,8.1093,8.1093,8.1093,8.1093,8.1093,8.0893,8.0503,8.0503,8.0354,8.0083,7.9878,7.9487,7.9004,7.8789,7.8565,7.8276,7.8276,7.8276,7.8276,7.8276,7.8276,7.8276,7.8276,7.8276,7.8276,7.8276,7.8276,7.8276,7.8276,7.8276,7.8276,7.8276,7.7719,7.7013,7.6642,7.5601,7.4524,7.4153,7.3707,7.3372,7.3372,7.3372,7.3372,7.3372,7.3372,7.3372,7.3372,7.3591,7.3811,7.3963,7.4199,7.446,7.4664,7.4705,7.4705,7.4705,7.4502,7.4287,7.4056,7.3653,7.3372,7.3372,7.3372,7.3372,7.3372,7.3372,7.3372,7.3372,7.3372,7.3372,7.3372,7.3372,7.3372,7.3372,7.3372,7.3372,7.3372,7.3372,7.3372,7.3372,7.3372,7.3372,7.3372,7.3372,7.3372,7.3372,7.3372,7.3372,7.3372,7.3372,7.3372,7.3372,7.3372,7.3372,7.3372]},{"header":{"parameterUnit":"m.s-1","parameterCategory":1,"la1":30.6,"la2":28.766,"lo1":-90.7593,"lo2":-88.6598,"dy":0.0162,"dx":0.0183,"nx":116,"ny":114,"refTime":"2024-03-05T18:00:00:Z","depth":0,"parameterNumber":3,"parameterNumberName":"V-component_of_WINDS"},"data":[0.0,0.0,0.0,0.0,0.0,0.0,0.0,0.0,0.0,0.0,0.0,0.0,0.0,0.0,0.0,0.0,0.0,0.0,0.0,0.0,0.0,0.0,0.0,0.0,0.0,0.0,0.0,0.0,0.0,0.0,0.0,0.0,0.0,0.0,0.0,0.0,0.0,0.0,0.0,0.0,0.0,0.0,0.0,0.0,0.0,0.0,0.0,0.0,0.0,0.0,0.0,0.0,0.0,0.0,0.0,0.0,0.0,0.0,0.0,0.0,0.0,0.0,0.0,0.0,0.0,0.0,0.0,0.0,0.0,0.0,0.0,0.0,0.0,0.0,0.0,0.0,0.0,0.0,0.0,0.0,0.0,0.0,0.0,0.0,0.0,0.0,0.0,0.0,0.0,0.0,0.0,0.0,0.0,0.0,0.0,0.0,0.0,0.0,0.0,0.0,0.0,0.0,0.0,0.0,0.0,0.0,0.0,0.0,0.0,0.0,0.0,0.0,0.0,0.0,0.0,0.0,0.0,0.0,0.0,0.0,0.0,0.0,0.0,0.0,0.0,0.0,0.0,0.0,0.0,0.0,0.0,0.0,0.0,0.0,0.0,0.0,0.0,0.0,0.0,0.0,0.0,0.0,0.0,0.0,0.0,0.0,0.0,0.0,0.0,0.0,0.0,0.0,0.0,0.0,0.0,0.0,0.0,0.0,0.0,0.0,0.0,0.0,0.0,0.0,0.0,0.0,0.0,0.0,0.0,0.0,0.0,0.0,0.0,0.0,0.0,0.0,0.0,0.0,0.0,0.0,0.0,0.0,0.0,0.0,0.0,0.0,0.0,0.0,0.0,0.0,0.0,0.0,0.0,0.0,0.0,0.0,0.0,0.0,0.0,0.0,0.0,0.0,0.0,0.0,0.0,0.0,0.0,0.0,0.0,0.0,0.0,0.0,0.0,0.0,0.0,0.0,0.0,0.0,0.0,0.0,0.0,0.0,0.0,0.0,0.0,0.0,0.0,0.0,0.0,0.0,0.0,0.0,0.0,0.0,0.0,0.0,0.0,0.0,0.0,0.0,0.0,0.0,0.0,0.0,0.0,0.0,0.0,0.0,0.0,0.0,0.0,0.0,0.0,0.0,0.0,0.0,0.0,0.0,0.0,0.0,0.0,0.0,0.0,0.0,0.0,0.0,0.0,0.0,0.0,0.0,0.0,0.0,0.0,0.0,0.0,0.0,0.0,0.0,0.0,0.0,0.0,0.0,0.0,0.0,0.0,0.0,0.0,0.0,0.0,0.0,0.0,0.0,0.0,0.0,0.0,0.0,0.0,0.0,0.0,0.0,0.0,0.0,0.0,0.0,0.0,0.0,0.0,0.0,0.0,0.0,0.0,0.0,0.0,0.0,0.0,0.0,0.0,0.0,0.0,0.0,0.0,0.0,0.0,0.0,0.0,0.0,0.0,0.0,0.0,0.0,0.0,0.0,0.0,0.0,0.0,0.0,0.0,0.0,0.0,0.0,0.0,0.0,0.0,0.0,0.0,0.0,0.0,0.0,0.0,0.0,0.0,0.0,0.0,0.0,0.0,0.0,0.0,0.0,0.0,0.0,0.0,0.0,0.0,0.0,0.0,0.0,0.0,0.0,0.0,0.0,0.0,0.0,0.0,0.0,0.0,0.0,0.0,0.0,0.0,0.0,0.0,0.0,0.0,0.0,0.0,0.0,0.0,0.0,0.0,0.0,0.0,0.0,0.0,0.0,0.0,0.0,0.0,0.0,0.0,0.0,0.0,0.0,0.0,0.0,0.0,0.0,0.0,0.0,0.0,0.0,0.0,0.0,0.0,0.0,0.0,0.0,0.0,0.0,0.0,0.0,0.0,0.0,0.0,0.0,0.0,0.0,0.0,0.0,0.0,0.0,0.0,0.0,0.0,0.0,0.0,0.0,0.0,0.0,0.0,0.0,0.0,0.0,0.0,0.0,0.0,0.0,0.0,0.0,0.0,0.0,0.0,0.0,0.0,0.0,0.0,0.0,0.0,0.0,0.0,0.0,0.0,0.0,0.0,0.0,0.0,0.0,0.0,0.0,0.0,0.0,0.0,0.0,0.0,0.0,0.0,0.0,0.0,0.0,0.0,0.0,0.0,0.0,0.0,0.0,0.0,0.0,0.0,0.0,0.0,0.0,0.0,0.0,0.0,0.0,0.0,0.0,0.0,0.0,0.0,0.0,0.0,0.0,0.0,0.0,0.0,0.0,0.0,0.0,0.0,0.0,0.0,0.0,0.0,0.0,0.0,0.0,0.0,0.0,0.0,0.0,0.0,0.0,0.0,0.0,0.0,0.0,0.0,0.0,0.0,0.0,0.0,0.0,0.0,0.0,0.0,0.0,0.0,0.0,0.0,0.0,0.0,0.0,0.0,0.0,0.0,0.0,0.0,0.0,0.0,0.0,0.0,0.0,0.0,0.0,0.0,0.0,0.0,0.0,0.0,0.0,0.0,0.0,0.0,0.0,0.0,0.0,0.0,0.0,0.0,0.0,0.0,0.0,0.0,0.0,0.0,0.0,0.0,0.0,0.0,0.0,0.0,0.0,0.0,0.0,0.0,0.0,0.0,0.0,0.0,0.0,0.0,0.0,0.0,0.0,0.0,0.0,0.0,0.0,0.0,0.0,0.0,0.0,0.0,0.0,0.0,0.0,0.0,0.0,0.0,0.0,0.0,0.0,0.0,0.0,0.0,0.0,0.0,0.0,0.0,0.0,0.0,0.0,0.0,0.0,0.0,0.0,0.0,0.0,0.0,0.0,0.0,0.0,0.0,0.0,0.0,0.0,0.0,0.0,0.0,0.0,0.0,0.0,0.0,0.0,0.0,0.0,0.0,0.0,0.0,0.0,0.0,0.0,0.0,0.0,0.0,0.0,0.0,0.0,0.0,0.0,0.0,0.0,0.0,0.0,0.0,0.0,0.0,0.0,0.0,0.0,0.0,0.0,0.0,0.0,0.0,0.0,0.0,0.0,0.0,0.0,0.0,0.0,0.0,0.0,0.0,0.0,0.0,0.0,0.0,0.0,0.0,0.0,0.0,0.0,0.0,0.0,0.0,0.0,0.0,0.0,0.0,0.0,0.0,0.0,0.0,0.0,0.0,0.0,0.0,0.0,0.0,0.0,0.0,0.0,0.0,0.0,0.0,0.0,0.0,0.0,0.0,0.0,0.0,0.0,0.0,0.0,0.0,0.0,0.0,0.0,0.0,0.0,0.0,0.0,0.0,0.0,0.0,0.0,0.0,0.0,0.0,0.0,0.0,0.0,0.0,0.0,0.0,0.0,0.0,0.0,0.0,0.0,0.0,0.0,0.0,0.0,0.0,0.0,0.0,0.0,0.0,0.0,0.0,0.0,0.0,0.0,0.0,0.0,0.0,0.0,0.0,0.0,0.0,0.0,0.0,0.0,0.0,0.0,0.0,0.0,0.0,0.0,0.0,0.0,0.0,0.0,0.0,0.0,0.0,0.0,0.0,0.0,0.0,0.0,0.0,0.0,0.0,0.0,0.0,0.0,0.0,0.0,0.0,0.0,0.0,0.0,0.0,0.0,0.0,0.0,0.0,0.0,0.0,0.0,0.0,0.0,0.0,0.0,0.0,0.0,0.0,0.0,0.0,0.0,0.0,0.0,0.0,0.0,0.0,0.0,0.0,0.0,0.0,0.0,0.0,0.0,0.0,0.0,0.0,0.0,0.0,0.0,0.0,0.0,0.0,0.0,0.0,0.0,0.0,0.0,0.0,0.0,0.0,0.0,0.0,0.0,0.0,0.0,0.0,0.0,0.0,0.0,0.0,0.0,0.0,0.0,0.0,0.0,0.0,0.0,0.0,0.0,0.0,0.0,0.0,0.0,0.0,0.0,0.0,0.0,0.0,0.0,0.0,0.0,0.0,0.0,0.0,0.0,0.0,0.0,0.0,0.0,0.0,0.0,0.0,0.0,0.0,0.0,0.0,0.0,0.0,0.0,0.0,0.0,0.0,0.0,0.0,0.0,0.0,0.0,0.0,0.0,0.0,0.0,0.0,0.0,0.0,0.0,0.0,0.0,0.0,0.0,0.0,0.0,0.0,0.0,0.0,0.0,0.0,0.0,0.0,0.0,0.0,0.0,0.0,0.0,0.0,0.0,0.0,0.0,0.0,0.0,0.0,0.0,0.0,0.0,0.0,0.0,0.0,0.0,0.0,0.0,0.0,0.0,0.0,0.0,0.0,0.0,0.0,0.0,0.0,0.0,0.0,0.0,0.0,0.0,0.0,0.0,0.0,0.0,0.0,0.0,0.0,0.0,0.0,0.0,0.0,0.0,0.0,0.0,0.0,0.0,0.0,0.0,0.0,0.0,0.0,0.0,0.0,0.0,0.0,0.0,0.0,0.0,0.0,0.0,0.0,0.0,0.0,0.0,0.0,0.0,0.0,0.0,0.0,0.0,0.0,0.0,0.0,0.0,0.0,0.0,0.0,0.0,0.0,0.0,0.0,0.0,0.0,0.0,0.0,0.0,0.0,0.0,0.0,0.0,0.0,0.0,0.0,0.0,0.0,0.0,0.0,0.0,0.0,0.0,0.0,0.0,0.0,0.0,0.0,0.0,0.0,0.0,0.0,0.0,0.0,0.0,0.0,0.0,0.0,0.0,0.0,0.0,0.0,0.0,0.0,0.0,0.0,0.0,0.0,0.0,0.0,0.0,0.0,0.0,0.0,0.0,0.0,0.0,0.0,0.0,0.0,0.0,0.0,0.0,0.0,0.0,0.0,0.0,0.0,0.0,0.0,0.0,0.0,0.0,0.0,0.0,0.0,0.0,0.0,0.0,0.0,0.0,0.0,0.0,0.0,0.0,0.0,0.0,0.0,0.0,0.0,0.0,0.0,0.0,0.0,0.0,0.0,0.0,0.0,0.0,0.0,0.0,0.0,0.0,0.0,0.0,0.0,0.0,0.0,0.0,0.0,0.0,0.0,0.0,0.0,0.0,0.0,0.0,0.0,0.0,0.0,0.0,0.0,0.0,0.0,0.0,0.0,0.0,0.0,0.0,0.0,0.0,0.0,0.0,0.0,0.0,0.0,0.0,0.0,0.0,0.0,0.0,0.0,0.0,0.0,0.0,0.0,0.0,0.0,0.0,0.0,0.0,0.0,0.0,0.0,0.0,0.0,0.0,0.0,0.0,0.0,0.0,0.0,0.0,0.0,0.0,0.0,0.0,0.0,0.0,0.0,0.0,0.0,0.0,0.0,0.0,0.0,0.0,0.0,0.0,0.0,0.0,0.0,0.0,0.0,0.0,0.0,0.0,0.0,0.0,0.0,0.0,0.0,0.0,0.0,0.0,0.0,0.0,0.0,0.0,0.0,0.0,0.0,0.0,0.0,0.0,0.0,0.0,0.0,0.0,0.0,0.0,0.0,0.0,0.0,0.0,0.0,0.0,0.0,0.0,0.0,0.0,0.0,0.0,0.0,0.0,0.0,0.0,0.0,0.0,0.0,0.0,0.0,0.0,0.0,0.0,0.0,0.0,0.0,0.0,0.0,0.0,0.0,0.0,0.0,0.0,0.0,0.0,0.0,0.0,0.0,0.0,0.0,0.0,0.0,0.0,0.0,0.0,0.0,0.0,0.0,0.0,0.0,0.0,0.0,0.0,0.0,0.0,0.0,0.0,0.0,0.0,0.0,0.0,0.0,0.0,0.0,0.0,0.0,0.0,0.0,0.0,0.0,0.0,0.0,0.0,0.0,0.0,0.0,0.0,0.0,0.0,0.0,0.0,0.0,0.0,0.0,0.0,0.0,0.0,0.0,0.0,0.0,0.0,0.0,0.0,0.0,0.0,0.0,0.0,0.0,0.0,0.0,0.0,0.0,0.0,0.0,0.0,0.0,0.0,0.0,0.0,0.0,0.0,0.0,0.0,0.0,0.0,0.0,0.0,0.0,0.0,0.0,0.0,0.0,0.0,0.0,0.0,0.0,0.0,0.0,0.0,0.0,0.0,0.0,0.0,0.0,0.0,0.0,0.0,0.0,0.0,0.0,0.0,0.0,0.0,0.0,0.0,0.0,0.0,0.0,0.0,0.0,0.0,0.0,0.0,0.0,0.0,-2.6766,-2.6946,0.0,0.0,0.0,0.0,0.0,0.0,0.0,0.0,0.0,0.0,0.0,0.0,0.0,0.0,0.0,0.0,0.0,0.0,0.0,0.0,0.0,0.0,0.0,0.0,0.0,0.0,0.0,0.0,0.0,0.0,0.0,0.0,0.0,0.0,0.0,0.0,-2.0665,-2.0665,-2.0665,-2.0665,-2.0665,-2.0533,-2.0388,-2.0255,0.0,0.0,0.0,0.0,0.0,0.0,0.0,0.0,0.0,0.0,0.0,0.0,0.0,0.0,0.0,0.0,0.0,0.0,0.0,0.0,0.0,0.0,0.0,0.0,0.0,0.0,0.0,0.0,0.0,0.0,0.0,0.0,0.0,0.0,0.0,0.0,0.0,0.0,0.0,0.0,0.0,0.0,0.0,0.0,0.0,0.0,0.0,0.0,0.0,0.0,0.0,0.0,0.0,0.0,0.0,0.0,0.0,0.0,0.0,0.0,0.0,0.0,0.0,0.0,0.0,0.0,0.0,0.0,0.0,0.0,-2.6984,-2.7417,0.0,0.0,0.0,0.0,0.0,0.0,0.0,0.0,0.0,0.0,0.0,0.0,0.0,0.0,0.0,0.0,0.0,0.0,0.0,0.0,0.0,0.0,0.0,-2.1897,-2.1622,-2.1207,-2.1207,-2.0943,0.0,0.0,0.0,0.0,0.0,-2.0665,-2.0665,-2.0665,-2.0665,-2.0665,-2.0665,-2.0665,-2.0665,-2.0665,-2.0665,-2.0665,-2.0665,0.0,0.0,0.0,0.0,0.0,0.0,0.0,0.0,0.0,0.0,0.0,0.0,0.0,0.0,0.0,0.0,0.0,0.0,0.0,0.0,0.0,0.0,0.0,0.0,0.0,0.0,0.0,0.0,0.0,0.0,0.0,0.0,0.0,0.0,0.0,0.0,0.0,0.0,0.0,0.0,0.0,0.0,0.0,0.0,0.0,0.0,0.0,0.0,0.0,0.0,0.0,0.0,0.0,0.0,0.0,0.0,0.0,0.0,0.0,0.0,0.0,0.0,0.0,-2.7539,-2.7297,-2.6813,-2.6813,-2.6692,-2.6311,-2.7539,-2.79,-2.7659,-2.8259,0.0,0.0,0.0,0.0,0.0,0.0,0.0,0.0,0.0,0.0,0.0,0.0,0.0,0.0,0.0,0.0,0.0,0.0,0.0,0.0,0.0,-2.1622,-2.1207,-2.1207,-2.0943,-2.0804,-2.0665,0.0,-2.0665,-2.0665,-2.0665,-2.0665,-2.0665,-2.0665,-2.0665,-2.0665,-2.0665,-2.0665,-2.0665,-2.0665,-2.0665,-2.0665,-2.0665,-2.0665,-2.0665,0.0,0.0,0.0,0.0,0.0,0.0,0.0,0.0,0.0,0.0,0.0,0.0,0.0,0.0,0.0,0.0,0.0,0.0,0.0,0.0,0.0,0.0,0.0,0.0,0.0,0.0,0.0,0.0,0.0,0.0,0.0,0.0,0.0,0.0,0.0,0.0,0.0,0.0,0.0,0.0,0.0,-2.7297,-2.7741,0.0,0.0,0.0,0.0,0.0,0.0,0.0,0.0,0.0,0.0,0.0,0.0,0.0,-2.7159,-2.7108,-2.6658,-2.6432,-2.6311,-2.5717,-2.5717,-2.6189,-2.6189,-2.6449,-2.6935,-2.7659,0.0,-2.6311,-2.6432,0.0,0.0,0.0,0.0,0.0,0.0,0.0,0.0,0.0,0.0,0.0,0.0,0.0,0.0,0.0,0.0,0.0,0.0,0.0,0.0,0.0,-2.1622,-2.1207,-2.1207,-2.1081,-2.0943,-2.0665,-2.0665,-2.0665,-2.0665,-2.0665,-2.0665,-2.0665,-2.0665,-2.0665,-2.0665,-2.0665,-2.0665,-2.0665,-2.0665,-2.0665,-2.0665,-2.0665,-2.0593,-2.0436,-2.0291,0.0,0.0,0.0,0.0,0.0,0.0,0.0,0.0,0.0,0.0,0.0,0.0,0.0,0.0,0.0,0.0,0.0,0.0,0.0,0.0,0.0,0.0,0.0,0.0,0.0,0.0,0.0,0.0,0.0,0.0,0.0,0.0,0.0,0.0,0.0,0.0,0.0,0.0,0.0,-2.7882,-2.8122,-2.802,-2.8618,-2.8856,0.0,0.0,0.0,0.0,0.0,0.0,0.0,0.0,0.0,-2.7418,-2.7539,-2.7418,-2.7056,-2.7177,-2.6796,-2.6067,-2.5839,-2.5594,-2.5594,-2.5594,-2.5839,-2.6571,-2.6796,-2.6813,-2.6692,-2.7039,-2.7297,-2.7418,0.0,0.0,0.0,0.0,-2.8618,-2.8975,0.0,0.0,0.0,0.0,0.0,0.0,0.0,0.0,0.0,0.0,0.0,0.0,-2.2173,-2.1622,-2.1207,-2.1207,-2.1069,-2.0943,-2.0665,-2.0665,-2.0665,-2.0665,-2.0665,-2.0665,-2.0665,-2.0665,-2.0665,-2.0665,-2.0665,-2.0665,-2.0665,-2.0665,-2.0665,-2.0665,-2.0593,-2.046,-2.0267,-2.0074,-1.9953,-1.9905,0.0,0.0,0.0,0.0,0.0,0.0,0.0,0.0,0.0,0.0,0.0,0.0,0.0,0.0,0.0,0.0,0.0,0.0,0.0,0.0,0.0,0.0,0.0,0.0,0.0,0.0,0.0,0.0,0.0,0.0,0.0,0.0,0.0,0.0,0.0,0.0,0.0,-2.8379,-2.8379,-2.802,-2.8618,-2.8856,0.0,0.0,0.0,0.0,0.0,0.0,-2.7297,-2.7056,-2.6935,-2.6813,-2.7056,-2.7056,-2.6571,-2.7177,-2.6918,-2.5839,-2.6189,-2.6083,-2.5594,-2.5717,-2.6083,-2.6554,-2.6554,-2.6675,-2.6813,-2.7418,-2.7418,-2.7056,-2.7177,-2.7539,-2.802,-2.814,-2.8618,-2.8975,0.0,0.0,0.0,0.0,0.0,0.0,0.0,0.0,0.0,0.0,0.0,-2.2173,-2.1897,-2.1484,-2.1207,-2.1207,-2.0943,-2.0665,-2.0665,-2.0665,-2.0665,-2.0665,-2.0665,-2.0665,-2.0665,-2.0665,-2.0665,-2.0665,-2.0665,-2.0665,-2.0665,-2.0665,-2.0665,-2.0653,-2.0412,-2.0291,-2.0279,-2.0267,-2.011,-1.9881,-1.9905,0.0,0.0,0.0,0.0,0.0,0.0,0.0,0.0,0.0,0.0,0.0,0.0,0.0,0.0,0.0,0.0,0.0,0.0,0.0,0.0,0.0,0.0,0.0,0.0,0.0,0.0,0.0,0.0,0.0,0.0,0.0,0.0,0.0,0.0,0.0,0.0,0.0,0.0,-2.79,-2.8618,0.0,0.0,0.0,0.0,-2.802,-2.802,-2.802,-2.79,-2.7297,-2.6692,-2.6189,-2.5594,-2.5226,-2.5226,-2.5839,-2.5839,-2.5103,-2.6327,-2.6935,-2.6935,-2.7539,-2.79,-2.79,-2.79,-2.728,-2.6189,-2.6813,-2.7056,-2.7056,-2.7659,-2.802,-2.814,-2.8737,-2.8975,-2.8975,0.0,0.0,0.0,0.0,0.0,0.0,0.0,0.0,-2.2722,-2.231,-2.2173,-2.176,-2.1484,-2.1081,-2.0943,-2.0943,-2.0804,-2.0665,-2.0665,-2.0665,-2.0665,-2.0665,-2.0665,-2.0665,-2.0665,-2.0665,-2.0665,-2.0665,-2.0665,-2.0665,-2.0665,-2.0665,-2.0665,-2.0665,-2.0569,-2.0436,-2.0255,-1.9905,-1.97,-1.9615,-1.9615,-1.9615,0.0,0.0,0.0,0.0,0.0,0.0,0.0,0.0,0.0,0.0,0.0,0.0,0.0,0.0,0.0,0.0,0.0,0.0,0.0,0.0,0.0,0.0,0.0,0.0,0.0,0.0,0.0,0.0,0.0,0.0,0.0,0.0,0.0,0.0,0.0,0.0,0.0,-2.8374,-2.8998,0.0,-2.8027,-2.8635,-2.8528,-2.7435,-2.7418,-2.7177,-2.6796,-2.6554,-2.6675,-2.728,-2.6692,-2.6444,-2.666,-2.6554,-2.6172,-2.5771,-2.6275,-2.6526,-2.6526,-2.7135,-2.7775,-2.8164,-2.8535,-2.8518,-2.7989,-2.7992,-2.7139,-2.5839,-2.6571,-2.7039,-2.7418,-2.814,-2.8618,-2.8975,0.0,0.0,0.0,0.0,0.0,0.0,0.0,0.0,-2.2585,-2.2173,-2.176,-2.1484,-2.1081,-2.0804,-2.0665,-2.0665,-2.0665,-2.0665,-2.0665,-2.0665,-2.0665,-2.0665,-2.0665,-2.0665,-2.0665,-2.0665,-2.0665,-2.0665,-2.0665,-2.0665,-2.0665,-2.0665,-2.0665,-2.0665,-2.0665,-2.0569,-2.0376,-1.9929,-1.9639,-1.947,-1.947,-1.941,-1.948,0.0,0.0,0.0,0.0,0.0,0.0,0.0,0.0,0.0,0.0,0.0,0.0,0.0,0.0,0.0,0.0,0.0,0.0,0.0,0.0,0.0,0.0,0.0,0.0,0.0,0.0,0.0,0.0,0.0,0.0,0.0,0.0,0.0,0.0,-2.8975,-2.8966,-2.8738,-2.9137,-2.9016,-2.8044,-2.8653,-2.8528,-2.7073,-2.7177,-2.7107,-2.6616,-2.6616,-2.6806,-2.7432,-2.6941,-2.681,-2.7169,-2.6935,-2.6547,-2.6152,-2.6647,-2.6775,-2.6536,-2.7156,-2.7664,-2.7807,-2.8312,-2.8312,-2.8152,-2.7895,-2.691,-2.5561,-2.6166,-2.6692,-2.7056,-2.7779,-2.8379,-2.8975,0.0,0.0,0.0,0.0,0.0,0.0,0.0,-2.2585,-2.2173,-2.1897,-2.1484,-2.1081,-2.0804,-2.0665,-2.0665,-2.0665,-2.0665,-2.0665,-2.0665,-2.0665,-2.0665,-2.0665,-2.0665,-2.0665,-2.0665,-2.0665,-2.0665,-2.0665,-2.0665,-2.0665,-2.0665,-2.0665,-2.0665,-2.0665,-2.0665,-2.0665,-2.0653,-2.04,-1.9977,-1.9495,-1.947,-1.9314,-1.9072,0.0,0.0,0.0,0.0,0.0,0.0,0.0,0.0,0.0,0.0,0.0,0.0,0.0,0.0,0.0,0.0,0.0,0.0,0.0,0.0,0.0,0.0,0.0,0.0,0.0,0.0,0.0,0.0,0.0,0.0,0.0,0.0,0.0,-2.8975,-2.8975,-2.8993,-2.8993,-2.8993,-2.8517,-2.7073,-2.7556,-2.7677,-2.7073,-2.7556,-2.7834,-2.7604,-2.7621,-2.7169,-2.6264,-2.628,-2.628,-2.628,-2.6807,-2.6824,-2.6199,-2.7477,-2.7731,-2.7111,-2.7858,-2.7731,-2.7095,-2.7206,-2.6824,-2.6312,-2.6296,-2.6296,-2.6344,-2.6767,-2.6969,-2.709,-2.7797,-2.8397,-2.8975,0.0,0.0,0.0,0.0,0.0,0.0,0.0,-2.2859,-2.2448,-2.1897,-2.176,-2.1358,-2.0804,-2.0665,-2.0665,-2.0665,-2.0665,-2.0665,-2.0665,-2.0665,-2.0665,-2.0665,-2.0665,-2.0665,-2.0665,-2.0665,-2.0665,-2.0665,-2.0665,-2.0665,-2.0665,-2.0665,-2.0665,-2.0665,-2.0665,-2.0665,-2.0665,-2.0593,-2.0364,-2.0026,-1.9627,-1.9314,-1.9072,0.0,0.0,0.0,0.0,0.0,0.0,0.0,0.0,0.0,0.0,0.0,0.0,0.0,0.0,0.0,0.0,0.0,0.0,0.0,0.0,0.0,0.0,0.0,0.0,0.0,0.0,0.0,0.0,0.0,0.0,0.0,-2.8618,-2.8379,-2.8975,-2.8975,-2.8727,-2.8027,-2.8428,-2.8184,-2.6851,-2.7695,-2.794,-2.6851,-2.7327,-2.7621,-2.7244,-2.726,-2.731,-2.7537,-2.7156,-2.7033,-2.7149,-2.7164,-2.7174,-2.7296,-2.7938,-2.8051,-2.7916,-2.8344,-2.8494,-2.8345,-2.8605,-2.8357,-2.7671,-2.7409,-2.7295,-2.7246,-2.7184,-2.7127,-2.7219,-2.8062,-2.863,-2.8975,0.0,0.0,0.0,0.0,0.0,0.0,0.0,-2.2722,-2.2448,-2.1897,-2.1622,-2.1346,-2.0804,-2.0665,-2.0665,-2.0665,-2.0665,-2.0665,-2.0665,-2.0665,-2.0665,-2.0665,-2.0665,-2.0665,-2.0665,-2.0665,-2.0665,-2.0665,-2.0665,-2.0665,-2.0665,-2.0665,-2.0665,-2.0665,-2.0665,-2.0665,-2.0665,-2.0665,-2.0521,-2.0243,-1.9929,-1.9579,-1.9229,-1.912,-1.9456,-1.9954,-1.9328,-1.9456,-2.0081,-2.0449,0.0,0.0,0.0,0.0,0.0,0.0,0.0,0.0,0.0,0.0,0.0,0.0,0.0,0.0,0.0,0.0,0.0,0.0,0.0,0.0,0.0,0.0,0.0,0.0,-2.8618,-2.8498,-2.8993,-2.8737,-2.8349,-2.7835,-2.7992,-2.7727,-2.6753,-2.7758,-2.7968,-2.6843,-2.7469,-2.7638,-2.7371,-2.7407,-2.7685,-2.798,-2.7736,-2.7635,-2.783,-2.7653,-2.7741,-2.7947,-2.8138,-2.8217,-2.8217,-2.8438,-2.8478,-2.8614,-2.8791,-2.8574,-2.8288,-2.8077,-2.7898,-2.7702,0.0,0.0,0.0,0.0,-2.9324,-2.947,0.0,0.0,0.0,0.0,0.0,0.0,0.0,-2.2585,-2.2173,-2.1897,-2.1484,-2.1069,-2.0804,-2.0665,-2.0665,-2.0665,-2.0665,-2.0665,-2.0665,-2.0665,-2.0665,-2.0665,-2.0665,-2.0665,-2.0665,-2.0665,-2.0665,-2.0665,-2.0665,-2.0665,-2.0665,-2.0665,-2.0665,-2.0665,-2.0665,-2.0665,-2.0665,-2.0665,-2.0533,-2.0315,-2.0291,-1.9953,-1.9434,-1.9205,-1.9096,-1.9072,-1.9072,-1.9072,-1.92,-2.0081,0.0,0.0,0.0,0.0,0.0,0.0,0.0,0.0,0.0,0.0,0.0,0.0,0.0,0.0,0.0,0.0,0.0,0.0,0.0,0.0,0.0,0.0,0.0,0.0,-2.8975,-2.8856,-2.8993,-2.8415,-2.797,-2.8091,-2.7765,-2.7373,-2.6678,-2.7479,-2.768,-2.7095,-2.7765,-2.795,-2.7654,-2.8032,0.0,0.0,0.0,-2.8217,-2.8217,-2.8265,-2.8281,-2.8281,-2.8329,-2.8344,-2.8344,-2.8297,-2.8281,-2.8281,-2.8233,-2.8217,-2.8217,-2.8217,-2.8043,-2.7813,-2.7425,-2.8145,-2.9386,-2.9886,-3.0116,-3.0149,0.0,0.0,0.0,0.0,0.0,0.0,0.0,-2.2859,-2.2585,-2.1897,-2.176,-2.1496,-2.0804,-2.0665,-2.0665,-2.0665,-2.0665,-2.0665,-2.0665,-2.0665,-2.0665,-2.0665,-2.0665,-2.0665,-2.0665,-2.0665,-2.0665,-2.0665,-2.0665,-2.0665,-2.0665,-2.0665,-2.0665,-2.0665,-2.0665,-2.0665,-2.0665,-2.0665,-2.0641,-2.0569,-2.0364,-1.9953,-1.9458,-1.941,-1.9265,-1.9072,-1.9072,-1.9072,-1.9072,-1.9328,-1.9826,-2.0322,-2.0703,-2.1335,0.0,0.0,0.0,0.0,0.0,0.0,0.0,0.0,0.0,0.0,0.0,0.0,0.0,0.0,0.0,0.0,0.0,0.0,0.0,-2.8856,-2.8498,-2.8379,-2.8856,-2.8286,-2.7869,-2.8481,-2.7921,-2.7475,-2.7151,-2.725,-2.7161,-2.6809,-2.7605,-2.8065,-2.7637,-2.7972,-2.8196,-2.8122,-2.8186,-2.8217,-2.8217,-2.8519,-2.8662,-2.8662,-2.8948,0.0,-2.9075,-2.8789,-2.8662,-2.8646,-2.8344,-2.8217,-2.8217,-2.8217,-2.8461,-2.8881,-2.8362,-2.8776,-2.9633,-2.976,-2.9959,-3.0185,0.0,0.0,0.0,0.0,0.0,0.0,0.0,-2.2859,-2.2585,-2.1897,-2.176,-2.1496,-2.0804,-2.0665,-2.0665,-2.0665,-2.0665,-2.0665,-2.0665,-2.0665,-2.0665,-2.0665,-2.0665,-2.0665,-2.0665,-2.0665,-2.0665,-2.0665,-2.0665,-2.0665,-2.0665,-2.0665,-2.0665,-2.0665,-2.0665,-2.0665,-2.0665,-2.0665,-2.0665,-2.0653,-2.0521,-2.0231,-1.9845,-1.9567,-1.9386,-1.9253,-1.912,-1.9072,-1.9072,-1.9072,-1.9456,-1.9826,-1.9826,-2.0208,-2.0843,0.0,0.0,0.0,0.0,0.0,0.0,0.0,0.0,0.0,0.0,0.0,0.0,0.0,0.0,-2.7401,-2.8737,0.0,-2.8259,-2.8856,-2.8541,-2.8321,-2.8684,-2.8518,-2.8306,-2.8114,-2.757,-2.7111,-2.6906,-2.7247,-2.7274,-2.7185,-2.7788,-2.8196,-2.7963,-2.8313,-2.8503,-2.8503,-2.8662,-2.8757,-2.8757,-2.8948,-2.9028,-2.9043,-2.9218,-2.9298,-2.9298,-2.9107,-2.9028,-2.9028,-2.8837,-2.8757,-2.8742,-2.8567,-2.8906,-2.955,-2.9412,-2.9757,-3.0307,-3.0498,-3.0701,-3.0754,0.0,0.0,0.0,0.0,0.0,0.0,0.0,-2.2859,-2.2585,-2.1897,-2.176,-2.1496,-2.0804,-2.0665,-2.0665,-2.0665,-2.0665,-2.0665,-2.0665,-2.0665,-2.0665,-2.0665,-2.0665,-2.0665,-2.0665,-2.0665,-2.0665,-2.0665,-2.0665,-2.0665,-2.0665,-2.0665,-2.0665,-2.0665,-2.0665,-2.0665,-2.0665,-2.0665,-2.0665,-2.0665,-2.0665,-2.0545,-2.0291,-1.976,-1.9519,-1.9434,-1.9169,-1.9072,-1.9072,-1.9072,-1.9072,-1.9072,-1.9072,-1.9072,-1.9456,-2.1475,-2.2466,0.0,0.0,0.0,0.0,0.0,0.0,0.0,0.0,-2.504,-2.6277,-2.5912,-2.579,-2.6415,-2.8122,-2.8073,-2.8006,-2.8984,-2.8828,-2.8588,-2.8588,-2.8799,-2.8672,-2.7736,-2.7338,-2.7116,-2.713,-2.7525,-2.7757,-2.782,-2.8138,-2.8329,-2.8329,-2.8678,-2.8869,-2.8869,-2.9155,-2.9298,-2.9298,-2.9298,-2.9298,-2.9298,-2.9298,-2.9298,-2.9298,-2.9298,-2.9298,-2.9298,-2.9298,-2.9441,-2.9552,-2.9264,-2.9558,-3.0226,-3.0549,-3.0885,-3.1221,-3.1411,-3.1506,-3.1451,0.0,0.0,0.0,0.0,0.0,0.0,0.0,0.0,-2.2585,-2.1897,-2.176,-2.1496,-2.0804,-2.0665,-2.0665,-2.0665,-2.0665,-2.0665,-2.0665,-2.0665,-2.0665,-2.0665,-2.0665,-2.0665,-2.0665,-2.0665,-2.0665,-2.0665,-2.0665,-2.0665,-2.0665,-2.0665,-2.0665,-2.0665,-2.0665,-2.0665,-2.0665,-2.0665,-2.0665,-2.0665,-2.0665,-2.0653,-2.0569,-2.0038,-1.9688,-1.9434,-1.9169,-1.9072,-1.9072,-1.9072,-1.9072,-1.9072,-1.9072,-1.9072,-1.9456,-2.1475,-2.2104,-2.2606,-2.4734,-2.4471,-2.3852,-2.3728,-2.3106,-2.2606,0.0,-2.323,-2.3837,-2.3574,-2.444,-2.5562,-2.6641,-2.6789,-2.7395,-2.9265,-2.9223,-2.8994,-2.8994,-2.8806,-2.852,-2.7698,-2.8151,-2.8471,-2.8626,-2.8083,-2.7852,-2.8154,-2.8503,-2.871,-2.871,-2.9043,-2.9234,-2.9234,-2.9282,-2.9298,-2.9298,-2.9298,-2.9298,-2.9298,-2.9298,-2.9298,-2.9298,-2.9298,-2.9298,-2.9298,-2.9298,-2.9712,-3.0266,-3.0217,-3.0643,-3.1456,-3.1773,-3.1873,-3.2022,-3.1956,-3.1946,-3.1873,0.0,0.0,0.0,0.0,0.0,0.0,0.0,0.0,0.0,-2.2173,-2.1897,-2.1622,-2.1081,-2.0804,-2.0665,-2.0665,-2.0665,-2.0665,-2.0665,-2.0665,-2.0665,-2.0665,-2.0665,-2.0665,-2.0665,-2.0665,-2.0665,-2.0665,-2.0665,-2.0665,-2.0665,-2.0665,-2.0665,-2.0665,-2.0665,-2.0665,-2.0665,-2.0665,-2.0665,-2.0665,-2.0665,-2.0665,-2.0605,-2.0086,-1.9808,-1.9676,-1.9398,-1.9205,0.0,-1.9253,-1.9205,-1.9072,-1.9072,-1.9072,-1.9456,-2.1475,-2.2104,-2.223,-2.3106,-2.3106,-2.248,-2.1222,-2.1335,-2.1587,-2.0589,-2.1724,-2.2849,-2.2469,-2.3374,-2.4411,-2.5392,-2.6668,-2.7679,-2.8268,-2.8598,-2.8876,-2.8876,-2.869,-2.8229,-2.7781,-2.8345,-2.8594,-2.8235,-2.8228,-2.8392,-2.8535,-2.8869,-2.9075,-2.9075,-2.9218,-2.9298,-2.9298,-2.9298,-2.9298,-2.9298,-2.9298,-2.9298,-2.9298,-2.9298,-2.9298,-2.9298,-2.9298,-2.9298,-2.9298,-2.9298,-2.9425,-2.9855,-3.0266,-3.0551,-3.096,-3.2071,-3.2435,-3.2467,-3.2375,-3.2349,-3.2331,0.0,0.0,0.0,0.0,0.0,0.0,0.0,0.0,0.0,0.0,-2.2035,-2.1634,-2.1081,-2.0804,-2.0665,-2.0665,-2.0665,-2.0665,-2.0665,-2.0665,-2.0665,-2.0665,-2.0665,-2.0665,-2.0665,-2.0665,-2.0665,-2.0665,-2.0665,-2.0665,-2.0665,-2.0665,-2.0665,-2.0665,-2.0665,-2.0665,-2.0665,-2.0665,-2.0665,-2.0665,-2.0665,-2.0665,-2.0605,-2.0086,-1.9929,-1.9953,-1.9591,-1.9548,-1.9493,-1.9764,-1.9936,-1.9966,-1.9966,-1.9966,-2.0208,-2.1978,-2.2803,-2.2986,-2.2749,-2.2482,-2.185,-2.008,-2.0323,-2.0847,-1.9911,-2.098,-2.2148,-2.176,-2.247,-2.3406,-2.4401,-2.5927,-2.7161,-2.7765,-2.8229,-2.8629,-2.8629,-2.8443,-2.8243,-2.7693,-2.8309,-2.8559,-2.8011,-2.8471,-2.8805,-2.89,-2.9155,-2.9298,-2.9298,-2.9298,-2.9298,-2.9298,-2.9298,-2.9298,-2.9298,-2.9298,-2.9298,-2.9298,-2.9298,-2.9298,-2.9298,-2.9298,-2.9298,-2.9298,-2.9298,-2.9441,-2.9568,-3.0124,-3.0551,-3.0835,-3.2246,-3.2666,-3.2735,-3.2866,-3.2863,-3.2753,0.0,0.0,0.0,0.0,0.0,0.0,0.0,0.0,0.0,0.0,0.0,0.0,0.0,-2.0665,-2.0665,-2.0665,-2.0665,-2.0665,-2.0665,-2.0665,-2.0665,-2.0665,-2.0665,-2.0665,-2.0665,-2.0665,-2.0665,-2.0665,-2.0665,-2.0665,-2.0665,-2.0665,-2.0665,-2.0665,-2.0665,-2.0665,-2.0665,-2.0665,-2.0665,-2.0665,-2.0665,-2.0665,-2.0605,-2.0086,-2.0038,-2.0195,-1.9664,-1.9936,-2.0628,-2.0799,-2.1477,-2.1978,-2.1978,-2.1978,-2.223,-2.323,-2.4469,-2.5235,-2.4351,-2.3305,-2.2282,-2.1265,-2.0241,-1.9911,-2.1095,-2.1437,-2.1437,-2.1437,-2.1701,-2.2359,-2.3782,-2.4043,-2.5054,-2.8185,-2.8521,-2.8246,-2.8246,-2.856,-2.8537,-2.7725,-2.8329,-2.8742,-2.8742,-2.8757,-2.8916,-2.925,-2.9298,-2.9298,-2.9298,-2.9298,-2.9298,-2.9298,-2.9298,-2.9298,-2.9298,-2.9298,-2.9298,-2.9298,-2.9298,-2.9298,-2.9298,-2.9298,-2.9298,-2.9298,-2.9298,-2.9712,-3.0409,-3.0409,-3.0835,-3.17,-3.2386,-3.2666,-3.2806,-3.3502,-3.3541,-3.3138,0.0,0.0,0.0,0.0,0.0,0.0,0.0,0.0,0.0,0.0,0.0,0.0,0.0,0.0,0.0,0.0,-2.0909,-2.1019,-2.0537,-2.0412,-2.0484,-2.0665,-2.0665,-2.0665,-2.0665,-2.0665,-2.0665,-2.0665,-2.0665,-2.0665,-2.0665,-2.0665,-2.0665,-2.0665,-2.0665,-2.0665,-2.0665,-2.0665,-2.0665,-2.0665,-2.0665,-2.0569,-2.0388,-2.0207,-2.0379,-2.0793,0.0,-2.0863,-2.1057,-2.1997,-2.2282,-2.2104,-2.2104,-2.2244,-2.2695,-2.3932,-2.4592,-2.4683,-2.3652,-2.26,-2.1569,-2.0529,-2.0013,-1.9905,-2.0256,-2.055,-2.0674,-2.0674,-2.2028,-2.3226,-2.3468,-2.4759,-2.6167,-2.7769,-2.7603,-2.7232,-2.7471,-2.7765,-2.79,-2.7369,-2.8193,-2.8869,-2.9091,-2.9123,-2.9171,-2.9282,-2.9298,-2.9298,-2.9298,-2.9298,-2.9298,-2.9298,-2.9298,-2.9298,-2.9298,-2.9298,-2.9298,-2.9298,-2.9298,-2.9298,-2.9298,-2.9298,-2.9298,-2.9298,-2.9298,-2.9441,-2.9712,-3.0266,-3.0551,-3.0977,-3.2246,-3.2666,-3.2806,-3.3521,-3.3725,-3.3596,0.0,0.0,0.0,0.0,0.0,0.0,0.0,0.0,0.0,0.0,0.0,0.0,0.0,0.0,0.0,0.0,0.0,-2.0876,-2.0662,-2.0405,-2.0255,-2.0521,-2.0533,-2.0569,-2.0665,-2.0665,-2.0665,-2.0665,-2.0665,-2.0665,-2.0665,-2.0665,-2.0665,-2.0665,-2.0665,-2.0665,-2.0665,-2.0569,-2.0581,-2.0653,-2.0569,-2.0424,-2.0267,-2.0564,-2.0838,0.0,-2.2038,-2.2203,-2.2208,-2.3049,-2.329,-2.3135,-2.3377,-2.3627,-2.4065,-2.452,-2.474,-2.4363,-2.2932,-2.2138,-2.134,-2.0294,-2.0026,-2.005,-2.0146,-2.0291,-2.0412,-2.0412,-2.2043,-2.3393,-2.3896,-2.4858,-2.6084,-2.7684,-2.713,-2.6614,-2.7102,-2.7794,-2.7988,-2.7706,-2.8444,-2.9043,-2.9282,-2.9298,-2.9298,-2.9298,-2.9298,-2.9298,-2.9298,-2.9298,-2.9298,-2.9298,-2.9298,-2.9298,-2.9298,-2.9298,-2.9298,-2.9298,-2.9298,-2.9298,-2.9298,-2.9298,-2.9298,-2.9298,-2.9298,-2.9298,-2.9298,-2.9855,-3.0124,-3.0551,-3.1824,-3.2526,-3.2806,-3.3521,-3.3817,-3.3817,0.0,0.0,0.0,0.0,0.0,0.0,0.0,0.0,0.0,0.0,0.0,0.0,0.0,0.0,0.0,0.0,0.0,0.0,-2.1304,-2.0522,-1.9977,-2.0243,-2.0391,-2.0513,-2.0641,-2.0653,-2.0653,-2.0804,-2.0665,-2.0665,-2.0804,-2.0665,-2.0665,-2.0665,-2.0665,-2.0665,-2.0653,-2.0388,-2.0424,-2.0629,-2.0364,-2.0243,-2.0342,-2.1155,-2.1437,-2.1635,-2.3406,-2.4067,-2.394,-2.4082,-2.45,-2.5043,-2.5423,-2.5755,-2.5958,-2.5111,-2.4937,-2.4422,-2.2432,-2.1906,-2.1636,-2.0564,-2.0291,-2.0364,-2.0617,-2.0665,-2.0665,-2.0804,-2.1622,-2.2983,-2.4709,-2.4467,-2.4887,-2.7865,-2.7066,-2.6345,-2.7484,-2.8344,-2.8773,-2.8789,-2.9091,-2.9298,-2.9298,-2.9298,-2.9298,-2.9298,-2.9298,-2.9298,-2.9298,-2.9298,-2.9298,-2.9298,-2.9298,-2.9298,-2.9298,-2.9298,-2.9298,-2.9298,-2.9298,-2.9298,-2.9298,-2.9298,-2.9298,-2.9298,-2.9298,-2.9298,-2.9298,-2.9298,-2.9712,-3.0551,-3.1277,-3.2123,-3.2806,-3.3521,-3.3817,-3.3817,0.0,0.0,0.0,0.0,0.0,0.0,0.0,0.0,0.0,0.0,0.0,0.0,0.0,0.0,0.0,0.0,0.0,0.0,-2.1124,-2.0876,-2.0492,-1.9977,-2.0781,-2.0906,-2.0376,-2.0376,-2.0884,-2.1897,-2.1081,-2.1081,-2.1897,-2.1081,-2.0665,-2.0665,-2.0665,-2.0665,-2.0653,-2.0388,-2.0315,-2.0352,-2.0086,-1.9857,-1.982,-2.1002,-2.1176,-2.108,-2.3261,-2.3933,-2.3893,0.0,0.0,0.0,-2.3764,-2.3739,-2.3912,-2.4061,-2.3541,-2.2875,-2.233,-2.1658,-2.0983,-2.0707,-2.0569,-2.0593,-2.0653,-2.0665,-2.0943,-2.176,-2.3243,-2.4709,-2.5935,-2.5398,-2.5532,-2.7849,-2.639,-2.5302,-2.6662,-2.7912,-2.857,-2.7962,0.0,-2.9298,-2.9298,-2.9298,-2.9298,-2.9298,-2.9298,-2.9298,-2.9298,-2.9298,-2.9298,-2.9298,-2.9298,-2.9298,-2.9298,-2.9298,-2.9298,-2.9298,-2.9298,-2.9298,-2.9298,-2.9298,-2.9298,-2.9298,-2.9298,-2.9298,-2.9298,-2.9298,-2.9712,-3.0551,-3.1277,-3.2123,-3.2806,-3.3521,-3.3817,-3.3817,0.0,0.0,0.0,0.0,0.0,0.0,0.0,0.0,0.0,0.0,0.0,0.0,0.0,0.0,0.0,0.0,0.0,0.0,0.0,-2.1093,-2.0709,-2.0347,-2.0479,-2.0869,-2.1417,-2.0637,-2.0773,-2.2115,-2.0922,-2.0649,-2.1445,-2.0649,-2.0327,-2.0327,-2.0327,-2.0327,-2.0303,-2.0038,-1.9989,0.0,0.0,-1.9603,-1.9613,-2.081,-2.1239,-2.1488,-2.3184,0.0,0.0,0.0,0.0,-2.3333,-2.3046,-2.321,-2.337,-2.3297,0.0,-2.2173,-2.176,-2.122,-2.0665,-2.0665,-2.0665,-2.0665,-2.0665,-2.0665,-2.0943,-2.2035,-2.3515,-2.4858,-2.5801,-2.5128,-2.5187,-2.7375,-2.604,-2.5408,-2.729,-2.835,-2.879,-2.8388,-2.8851,-2.9298,-2.9298,-2.9298,-2.9298,-2.9298,-2.9298,-2.9298,-2.9298,-2.9298,-2.9361,-2.952,-2.9377,-2.9298,-2.9298,-2.9298,-2.9298,-2.9298,-2.9298,-2.9298,-2.9298,-2.9298,-2.9298,-2.9298,-2.9298,-2.9425,-2.9712,-2.9712,-3.0409,-3.1401,-3.1965,-3.2544,-3.3242,-3.3678,-3.3817,-3.3817,0.0,0.0,0.0,0.0,0.0,0.0,0.0,0.0,0.0,0.0,-2.9134,0.0,0.0,0.0,0.0,0.0,0.0,0.0,0.0,0.0,0.0,-2.0954,-2.019,-2.0707,-2.2421,-2.0882,-2.0622,-2.1815,-2.0526,-2.0136,-2.0478,-2.0124,-1.9881,-1.9893,-2.0014,-2.0148,-2.0135,-1.9973,-1.9998,-2.0207,-1.9911,-1.9801,-1.9931,0.0,-2.1706,-2.223,0.0,0.0,0.0,0.0,-2.2368,-2.2711,-2.2621,-2.302,-2.3215,-2.2297,-2.2035,-2.1897,-2.0943,-2.0665,-2.0665,-2.0665,-2.0665,-2.0665,-2.0665,-2.0665,-2.1081,-2.231,-2.3393,-2.4196,-2.4979,-2.4602,-2.4839,-2.6602,-2.6017,-2.5935,-2.8225,-2.8759,-2.901,-2.901,-2.901,-2.9154,-2.9298,-2.9345,-2.9361,-2.9361,-2.9409,-2.9409,-2.9361,-2.9409,-2.9568,-2.9886,-2.96,-2.9409,-2.9361,-2.9361,-2.9345,-2.9298,-2.9298,-2.9298,-2.9298,-2.9298,-2.9298,-2.9441,-2.9441,-2.9855,-3.0551,-3.0551,-3.1401,-3.2666,-3.2666,-3.3103,-3.3817,-3.3817,-3.3817,-3.3817,0.0,0.0,0.0,0.0,0.0,0.0,0.0,0.0,0.0,0.0,-3.0325,-3.0861,0.0,0.0,0.0,0.0,0.0,0.0,0.0,0.0,0.0,0.0,-2.1303,-2.1182,-2.0042,-2.0577,-2.111,-2.1515,-2.0426,-2.0426,-2.125,-2.0293,-1.9881,-1.9893,-2.08,-2.1185,-2.1172,-2.1787,-2.1951,-2.1978,-2.1806,-2.1683,-2.1809,-2.2817,0.0,0.0,0.0,0.0,0.0,0.0,-2.1719,-2.128,-2.0605,-2.0625,-2.0922,-2.102,-2.0943,-2.0943,-2.0804,-2.0665,-2.0665,-2.0665,-2.0665,-2.0665,-2.0665,-2.0665,0.0,-2.327,-2.4331,-2.4993,-2.5412,-2.5816,-2.61,-2.5907,-2.616,-2.6438,-2.6904,-2.7447,-2.7825,-2.7825,-2.7825,-2.8274,-2.9154,-2.9568,-2.9727,-2.9727,-2.9981,-3.0013,-2.9743,-2.9997,-3.0172,-3.0235,-3.0172,-3.0013,-2.9743,-2.9727,-2.9584,-2.9298,-2.9298,-2.9298,-2.9298,-2.9298,-2.9568,-3.0266,-3.0266,-3.0693,-3.1418,-3.1418,-3.1982,-3.2666,-3.2666,-3.3103,-3.3817,-3.3817,-3.3817,-3.3817,0.0,0.0,0.0,0.0,0.0,0.0,0.0,-2.9917,-3.0455,-3.0455,-3.0972,-3.112,-3.0361,-2.8785,-2.7594,0.0,0.0,0.0,0.0,0.0,0.0,0.0,0.0,0.0,-2.1679,-2.1565,-2.1713,-2.1997,0.0,-2.1085,-2.1215,-2.0551,-2.0228,-2.0228,-2.0228,-2.0228,-2.0228,-2.0593,-2.1054,-2.1538,-2.1402,-2.1601,-2.2104,0.0,0.0,0.0,0.0,0.0,0.0,0.0,-2.1394,-2.1018,-2.0244,-2.0158,-2.0509,-2.0629,-2.0665,-2.0665,-2.0665,-2.0665,-2.0665,-2.0665,-2.0665,-2.0665,-2.0665,0.0,0.0,-2.3406,-2.421,-2.4738,-2.5427,-2.6084,-2.6414,-2.5922,-2.6649,-2.7028,-2.6773,-2.7221,-2.7535,-2.7535,-2.7535,-2.8046,-2.9407,-2.9727,-2.9901,-3.006,-3.041,-3.0442,-3.0092,-3.041,-3.0505,-3.0315,-3.0505,-3.0426,-3.0076,-3.0076,-2.9997,-2.9822,-2.9647,-2.9568,-2.9568,-2.9792,-3.0124,-3.0409,-3.0835,-3.1401,-3.2123,-3.2123,-3.2684,-3.3242,-3.3242,-3.3521,-3.3817,-3.3817,-3.3817,-3.3817,0.0,0.0,0.0,0.0,0.0,0.0,0.0,-3.1377,-3.1377,-3.1377,-3.1377,-3.112,-3.0602,-2.962,-2.858,0.0,0.0,0.0,0.0,0.0,0.0,0.0,0.0,0.0,0.0,0.0,0.0,-2.2468,-2.1963,0.0,0.0,0.0,0.0,0.0,-2.0208,-1.9954,-1.9711,-1.9954,-2.0462,0.0,0.0,-2.1348,0.0,0.0,0.0,0.0,0.0,0.0,0.0,0.0,-2.1215,-2.1066,-2.073,-2.0687,-2.0665,-2.0665,-2.0665,-2.0665,-2.0665,-2.0665,-2.0665,-2.0665,-2.0665,-2.0665,-2.0665,-2.0665,0.0,-2.3133,-2.3679,-2.421,-2.5022,-2.6218,-2.6847,0.0,-2.7245,-2.7757,-2.6892,-2.6993,-2.71,-2.6808,-2.6954,-2.7815,-2.9336,-2.9446,-2.9618,-2.9947,-3.0155,-3.0233,-3.0569,-3.0823,-3.0839,-3.0553,-3.0823,-3.0942,-3.0724,-3.0575,-3.0543,-3.0611,-3.0355,-3.0226,-3.021,-3.0644,-3.0876,-3.1094,-3.1679,-3.2333,-3.2945,-3.2945,-3.3242,-3.3817,-3.3817,-3.3817,-3.3817,-3.3817,-3.3817,-3.3817,0.0,0.0,0.0,0.0,0.0,0.0,0.0,-3.1377,-3.1377,-3.1377,-3.1377,-3.1377,-3.1249,-3.0373,-2.9489,0.0,0.0,0.0,0.0,0.0,0.0,0.0,0.0,0.0,0.0,0.0,0.0,-2.2146,-2.1222,0.0,0.0,0.0,0.0,0.0,0.0,-2.2731,-2.1853,-2.2856,0.0,0.0,0.0,0.0,0.0,0.0,0.0,0.0,0.0,0.0,0.0,0.0,0.0,-2.0451,-2.2538,-2.2049,-2.0665,-2.0665,0.0,0.0,-2.0665,-2.0665,-2.0665,-2.0665,-2.0665,-2.0665,-2.0665,0.0,-2.1081,-2.2173,-2.3256,-2.3952,-2.4074,-2.6234,-2.7733,-2.68,-2.8044,-2.8355,-2.6283,-2.597,-2.5611,-2.4449,-2.5332,-2.6618,-2.8131,-2.8447,-2.8762,-2.9078,-2.8327,-2.8968,-3.113,-3.1315,-3.1331,-3.13,-3.1315,-3.1478,-3.1993,-3.1259,-3.1098,-3.1531,-3.1498,-3.1482,-3.1482,-3.2166,-3.2688,-3.3073,-3.3073,-3.3303,-3.3678,-3.3678,-3.3678,-3.3817,-3.3817,-3.3817,-3.3817,-3.3817,-3.3817,-3.3817,0.0,0.0,0.0,0.0,0.0,0.0,-3.1377,-3.1377,-3.1377,-3.1377,-3.1377,-3.1377,-3.1377,-3.0974,-3.0374,-2.9243,0.0,0.0,0.0,0.0,0.0,0.0,0.0,0.0,0.0,0.0,-2.2981,-2.2981,-2.323,0.0,0.0,0.0,0.0,0.0,0.0,-2.1587,-2.1222,-2.223,0.0,0.0,0.0,0.0,0.0,0.0,0.0,0.0,0.0,0.0,0.0,0.0,0.0,0.0,-2.2178,-2.2062,0.0,0.0,-2.122,-2.0665,-2.0665,-2.0665,-2.0665,-2.0665,-2.0665,-2.0665,-2.0665,0.0,-2.0943,-2.2035,-2.3119,-2.406,-2.4752,-2.7035,-2.8378,-2.6635,-2.8705,-2.9456,-2.5974,-2.6673,-2.6925,-2.5318,-2.5465,-2.6248,-2.7208,-2.7381,-2.7654,-2.8158,-2.7848,-2.8076,-2.9012,-2.9168,-2.9168,-2.9168,-2.9804,-3.0515,-3.1277,-3.1766,-3.2307,-3.2909,-3.2689,-3.2571,-3.2571,-3.3231,-3.3476,-3.3624,-3.4055,-3.4412,-3.4532,-3.4275,-3.4165,-3.4147,-3.3908,-3.3817,-3.3817,-3.3817,-3.3817,-3.3817,0.0,0.0,0.0,0.0,0.0,-3.1066,-3.1176,-3.1194,-3.1249,-3.1359,-3.1377,-3.1377,-3.1377,-3.1377,-3.0938,-2.9636,-2.842,0.0,0.0,0.0,0.0,0.0,0.0,0.0,0.0,0.0,-2.3479,-2.3976,-2.4115,-2.3604,0.0,0.0,-2.1727,-2.1082,0.0,0.0,0.0,0.0,0.0,0.0,0.0,0.0,0.0,0.0,0.0,0.0,0.0,0.0,0.0,0.0,0.0,0.0,0.0,0.0,0.0,0.0,-2.1484,-2.1081,-2.0804,-2.0665,-2.0665,-2.0665,-2.0665,-2.0665,0.0,0.0,-2.0943,-2.1622,-2.2969,-2.4196,-2.4887,-2.7435,-2.8642,-2.6769,-2.9245,-3.0276,-2.6534,-2.7814,-2.8228,-2.605,-2.6342,-2.6586,-2.6323,-2.6391,-2.6371,-2.6477,-2.6504,-2.6504,-2.6504,-2.6504,-2.6819,-2.7762,-2.9168,-3.0098,-3.0546,-3.2113,-3.3196,-3.3483,-3.3678,-3.3839,-3.3839,-3.4315,-3.4558,-3.445,-3.4903,-3.5137,-3.5009,-3.4715,-3.4587,-3.455,-3.4275,-3.4165,-3.4165,-3.4037,-3.3982,-3.3963,0.0,0.0,0.0,0.0,0.0,0.0,-3.0736,-3.0791,-3.0937,-3.1322,-3.1377,-3.1377,-3.1377,-3.1377,-3.1066,-3.0259,-2.9564,0.0,0.0,0.0,0.0,0.0,0.0,0.0,0.0,0.0,-2.3106,-2.5103,-2.3106,-2.2606,-2.3604,-2.2606,-2.2104,-2.2104,0.0,0.0,0.0,0.0,0.0,0.0,0.0,0.0,0.0,0.0,0.0,0.0,0.0,0.0,0.0,0.0,0.0,0.0,0.0,-2.3672,-2.2035,0.0,-2.1484,-2.2035,-2.0943,-2.0665,-2.0665,-2.0665,-2.0665,-2.0665,0.0,-2.0665,-2.0665,-2.0665,-2.2421,-2.3924,-2.3938,-2.6902,-2.8774,-2.7435,-2.9664,-3.0548,-2.7893,-2.8914,-2.8788,-2.6036,-2.749,-2.7906,-2.5729,-2.57,-2.5263,-2.4,-2.384,-2.384,-2.384,-2.384,-2.5263,-2.8246,-2.9774,-3.0546,-3.0098,-3.2571,-3.3331,-3.2555,-3.4238,-3.4989,-3.4989,-3.5754,-3.5981,-3.5614,-3.5614,-3.5394,-3.5027,-3.5027,-3.5027,-3.5027,-3.5027,-3.5027,-3.4972,-3.455,-3.4403,-3.433,0.0,0.0,0.0,0.0,0.0,0.0,0.0,-3.0387,-3.0424,-3.0552,-3.0571,-3.0571,-3.0571,-3.0571,-3.0351,-2.9819,-2.9403,0.0,0.0,0.0,0.0,0.0,0.0,0.0,0.0,0.0,-2.3216,-2.41,-2.3479,-2.2981,-2.2606,-2.2981,-2.2355,-2.1082,-2.1853,-2.1727,0.0,0.0,0.0,0.0,0.0,0.0,0.0,0.0,0.0,0.0,0.0,0.0,0.0,0.0,0.0,0.0,0.0,0.0,0.0,-2.122,-2.0943,-2.1081,-2.0804,-2.0665,-2.0665,-2.0665,-2.0665,-2.0665,-2.0665,-2.0665,-2.0665,-2.0665,-2.2435,-2.3938,-2.3924,-2.6886,-2.851,-2.61,-2.8554,-2.9696,-2.6952,-2.7514,-2.765,-2.5904,-2.5242,-2.4657,-2.3945,-2.4157,-2.416,-2.384,-2.384,-2.384,-2.384,-2.384,-2.432,-2.5263,-2.6819,-2.7905,-2.8388,-3.1469,-3.3163,-3.3466,-3.4989,-3.5754,-3.5754,-3.6052,-3.6146,-3.6017,-3.6017,-3.5944,-3.5815,-3.554,-3.543,-3.5412,-3.5137,-3.5027,-3.5009,-3.488,-3.4825,-3.477,0.0,0.0,0.0,0.0,0.0,0.0,0.0,-2.9965,-3.002,-3.0185,-3.0204,-3.0204,-3.0204,-3.0204,-3.0039,-2.9617,-2.9433,0.0,0.0,0.0,0.0,0.0,0.0,0.0,-2.7418,-2.5178,-2.3946,-2.3976,-2.3589,-2.3106,-2.2606,-2.2856,-2.2606,-2.1713,-2.1601,-2.1348,0.0,0.0,0.0,0.0,0.0,0.0,-2.2104,0.0,0.0,0.0,0.0,0.0,0.0,0.0,0.0,0.0,0.0,0.0,0.0,0.0,-2.0665,-2.0665,-2.0665,-2.0665,-2.0665,-2.0665,-2.0943,-2.122,-2.0804,0.0,-2.122,-2.0804,-2.2035,-2.3393,-2.3788,-2.6486,-2.7833,-2.5442,-2.8283,-2.956,-2.6394,-2.7372,-2.778,-2.6342,-2.4514,-2.3353,-2.3661,-2.4,-2.4012,-2.384,-2.4,-2.4012,-2.384,-2.384,-2.384,-2.384,-2.5727,-2.6819,-2.6991,-3.0392,-3.2081,-3.1928,-3.36,-3.4672,-3.5288,-3.5288,-3.5587,-3.6201,-3.6201,-3.6201,0.0,-3.5944,-3.5852,-3.5815,-3.5577,-3.5467,-3.5449,-3.5302,-3.5247,-3.5192,0.0,0.0,0.0,0.0,0.0,0.0,0.0,-2.9525,-2.9672,-3.0057,-3.0112,-3.0112,-3.0112,-3.0112,-2.9965,-2.9562,-2.9525,0.0,0.0,0.0,0.0,0.0,0.0,0.0,-2.802,-2.6399,-2.5162,-2.444,-2.345,-2.3216,-2.3479,-2.248,-2.2606,-2.3479,-2.1587,-2.1209,0.0,0.0,0.0,0.0,-2.2104,-2.2104,0.0,0.0,0.0,0.0,0.0,0.0,0.0,0.0,0.0,0.0,0.0,0.0,0.0,0.0,0.0,0.0,0.0,-2.0665,-2.0665,-2.0665,-2.1484,-2.2035,-2.0943,0.0,0.0,-2.0943,-2.1484,-2.2585,-2.3802,-2.5935,-2.702,-2.5337,-2.8451,-2.973,-2.5974,-2.7656,-2.866,-2.6794,-2.4816,-2.3816,-2.4611,-2.4642,-2.4332,-2.384,-2.4172,-2.4332,-2.384,-2.384,-2.384,-2.384,-2.6201,-2.6833,-2.5753,-2.9293,-3.0377,-2.8856,-3.0531,-3.2217,-3.3768,-3.36,-3.4521,-3.6201,-3.6052,-3.6052,-3.6201,-3.6201,-3.6201,-3.6201,-3.6201,-3.6201,-3.6164,-3.5797,-3.5669,-3.5595,0.0,0.0,0.0,0.0,0.0,0.0,0.0,0.0,0.0,0.0,-2.9269,-2.9269,-2.9269,-2.9269,-2.9232,0.0,0.0,0.0,0.0,0.0,0.0,0.0,0.0,0.0,-2.802,-2.6399,-2.4778,-2.345,-2.2716,-2.2355,-2.248,-2.223,-2.2606,-2.3604,-2.2355,-2.1475,0.0,0.0,0.0,0.0,-2.2606,-2.2355,0.0,0.0,0.0,0.0,-2.0576,-2.0208,0.0,0.0,0.0,0.0,0.0,0.0,0.0,0.0,-2.0665,-2.0665,-2.0665,0.0,-2.0665,-2.0665,-2.1484,-2.2035,0.0,0.0,0.0,0.0,0.0,-2.2846,-2.4452,-2.5383,-2.6011,-2.6163,-2.6541,-2.6328,-2.517,-2.5229,-2.4958,-2.3868,-2.3451,-2.3283,-2.3646,-2.4135,-2.4332,-2.384,-2.4172,-2.4332,-2.384,-2.384,-2.384,-2.384,-2.4958,-2.5594,-2.5289,-2.7748,-2.8983,-2.8856,-3.0531,-3.2217,-3.3768,-3.2522,-3.3449,-3.6052,-3.4839,-3.5139,-3.6201,-3.6201,-3.6201,-3.6201,-3.6201,-3.6201,-3.6201,-3.6109,-3.6072,-3.6017,0.0,0.0,0.0,0.0,0.0,0.0,0.0,0.0,0.0,0.0,-2.8975,-2.8975,-2.8975,-2.8975,-2.8975,0.0,0.0,0.0,0.0,0.0,0.0,0.0,0.0,-2.8856,-2.8498,-2.6762,-2.5269,-2.3807,-2.3186,-2.2952,-2.2841,-2.3325,-2.4193,-2.5087,-2.3837,-2.2215,0.0,0.0,0.0,0.0,-2.1839,0.0,0.0,0.0,0.0,0.0,-2.0969,-2.0335,0.0,-2.0208,-2.1727,-2.2752,0.0,0.0,0.0,0.0,-2.1081,-2.0804,-2.1346,-2.1081,-2.0804,-2.1358,-2.231,-2.2722,-2.1622,0.0,0.0,0.0,0.0,-2.2035,-2.3502,-2.4181,-2.4538,-2.4882,-2.5336,-2.5413,-2.4739,-2.3927,-2.3092,-2.2912,-2.3194,-2.3463,-2.3732,-2.4635,-2.4798,-2.4172,-2.4492,-2.4492,-2.384,-2.384,-2.384,-2.384,-2.4332,-2.4652,-2.513,-2.6675,-2.7462,-2.7776,-2.87,-2.9928,-3.1453,-3.0531,-3.1912,-3.4989,-3.4221,-3.4672,-3.6201,-3.6201,-3.6201,-3.6201,-3.6201,-3.6201,-3.6201,-3.6201,-3.6201,-3.6015,0.0,0.0,0.0,0.0,0.0,0.0,0.0,0.0,0.0,0.0,0.0,0.0,0.0,0.0,0.0,0.0,0.0,0.0,0.0,0.0,0.0,0.0,-2.8975,-2.8975,-2.8975,-2.7263,-2.5896,-2.4778,-2.4271,-2.3915,-2.3931,-2.4778,-2.5774,-2.6675,-2.5194,-2.3201,0.0,0.0,0.0,0.0,-2.0576,0.0,0.0,0.0,0.0,0.0,0.0,0.0,0.0,-2.0081,-2.1598,-2.2752,-2.0535,0.0,0.0,0.0,0.0,0.0,-2.2035,-2.1484,-2.0943,-2.176,-2.2859,-2.3406,-2.231,0.0,0.0,0.0,0.0,0.0,0.0,-2.2735,0.0,-2.344,-2.4595,-2.5142,-2.4382,-2.3141,-2.2518,-2.3125,-2.3513,-2.3785,-2.4095,-2.5135,-2.5435,-2.4492,-2.4811,-2.4652,-2.384,-2.384,-2.384,-2.384,-2.4,-2.4332,-2.513,-2.5911,-2.6228,-2.6386,-2.6386,-2.7319,-2.8856,-2.87,-3.0392,-3.3449,-3.3449,-3.4371,-3.5903,-3.6052,-3.6201,-3.6201,-3.6201,-3.6201,-3.6201,-3.6201,-3.6052,-3.5736,0.0,0.0,0.0,0.0,0.0,0.0,0.0,0.0,0.0,0.0,0.0,0.0,0.0,0.0,0.0,0.0,0.0,0.0,0.0,0.0,0.0,-2.8975,-2.8975,-2.8975,-2.8975,-2.7021,-2.6156,-2.6139,-2.4548,-2.4178,-2.5146,-2.4517,-2.4778,-2.5652,-2.4933,-2.3946,-2.2577,-2.1209,0.0,-1.9456,-2.0208,0.0,0.0,0.0,0.0,0.0,0.0,0.0,0.0,-1.9328,-2.0967,-2.2752,-2.0535,0.0,0.0,0.0,0.0,0.0,-2.2035,-2.1484,-2.0804,-2.0943,-2.176,-2.231,-2.122,0.0,0.0,0.0,0.0,0.0,0.0,-2.248,-2.2473,0.0,-2.3813,-2.3189,-2.2694,-2.2408,-2.244,-2.3077,-2.3482,-2.386,-2.438,-2.4945,-2.497,-2.4492,-2.4492,-2.4332,-2.384,-2.384,-2.4012,-2.4332,-2.4652,-2.513,-2.5753,-2.5448,-2.5607,-2.6386,-2.6386,-2.7319,-2.8856,-2.7476,-2.8544,-3.1606,-3.1606,-3.2674,-3.4221,-3.5605,-3.6201,-3.6201,-3.6201,-3.6201,-3.6201,-3.6201,-3.5754,-3.4804,0.0,0.0,0.0,0.0,0.0,0.0,0.0,0.0,0.0,0.0,0.0,0.0,0.0,0.0,0.0,0.0,0.0,0.0,0.0,0.0,-2.8975,-2.8975,-2.8975,-2.8975,-2.8975,-2.652,-2.5652,-2.6762,-2.4917,-2.4901,-2.6261,-2.6624,-2.6261,-2.5513,-2.5162,-2.4193,-2.2466,-2.1209,-2.0322,-1.9954,0.0,0.0,0.0,0.0,0.0,0.0,0.0,0.0,0.0,0.0,-2.1212,-2.3406,-2.08,0.0,0.0,0.0,0.0,0.0,-2.2722,-2.1897,-2.0665,-2.0665,-2.1484,-2.2173,-2.1622,0.0,0.0,0.0,0.0,0.0,0.0,0.0,-2.1753,-2.3027,-2.2877,-2.2558,-2.2558,-2.253,-2.2761,-2.3612,-2.4095,-2.4503,-2.5079,-2.5607,-2.5607,-2.4811,-2.513,-2.4958,-2.4172,-2.4332,-2.4652,-2.4811,-2.497,-2.5289,-2.5753,-2.5594,-2.5753,-2.6386,-2.6386,-2.6847,-2.7462,-2.6702,-2.7776,-3.0083,-3.0083,-3.0993,-3.2538,-3.4221,-3.4822,-3.4989,-3.5903,-3.6201,-3.6201,-3.5754,-3.407,-3.2048,0.0,0.0,0.0,0.0,0.0,0.0,0.0,0.0,0.0,0.0,0.0,0.0,0.0,0.0,0.0,0.0,0.0,0.0,0.0,-2.8975,-2.8975,-2.8975,-2.8975,-2.8856,-2.8498,-2.6261,-2.5757,-2.7021,-2.5757,-2.5896,-2.7504,-2.8379,-2.7744,-2.6017,-2.5774,-2.4564,-2.2606,-2.1461,-2.0829,-2.0576,0.0,0.0,0.0,0.0,0.0,0.0,0.0,0.0,0.0,0.0,0.0,0.0,0.0,0.0,0.0,-2.3952,-2.2448,-2.122,-2.327,-2.231,-2.0665,-2.0665,0.0,-2.1897,-2.1897,0.0,0.0,0.0,0.0,0.0,0.0,-2.1028,-2.1402,-2.1885,-2.2126,-2.2408,-2.2707,-2.279,-2.3059,-2.4086,-2.4519,-2.4956,-2.5727,-2.607,-2.5911,-2.5289,-2.5435,-2.5276,-2.4652,-2.497,-2.513,-2.5289,-2.5289,-2.5448,-2.5911,-2.5911,-2.607,-2.6386,-2.6386,-2.6386,-2.6386,-2.6386,-2.7162,-2.8403,-2.87,-2.9619,-3.0839,-3.2522,-3.3297,-3.3617,-3.4839,-3.5456,-3.5456,-3.4389,-3.2081,-2.9449,0.0,0.0,0.0,0.0,0.0,0.0,0.0,0.0,0.0,0.0,0.0,0.0,0.0,0.0,0.0,0.0,0.0,0.0,0.0,-2.8975,-2.8975,-2.8975,-2.8975,-2.8361,-2.7142,-2.69,-2.69,-2.7021,-2.69,-2.7504,-2.8856,-2.8259,-2.802,-2.7779,-2.6554,-2.5439,-2.4332,-2.2731,-2.1475,-2.0576,-1.9584,0.0,0.0,0.0,0.0,0.0,0.0,0.0,0.0,0.0,0.0,0.0,0.0,0.0,-2.3952,-2.3952,-2.2448,-2.122,-2.327,-2.231,-2.0665,-2.0665,0.0,0.0,-2.0804,0.0,0.0,0.0,0.0,0.0,0.0,-2.1462,-2.1909,-2.2186,-2.2247,-2.2259,-2.2408,-2.2488,-2.2906,-2.3624,-2.4364,-2.4956,-2.5727,-2.5753,-2.5753,-2.5753,-2.5448,-2.513,-2.513,-2.513,-2.5289,-2.5753,-2.5753,-2.5911,-2.6386,-2.6386,-2.6386,-2.6386,-2.6386,-2.6386,-2.6386,-2.6386,-2.6544,-2.6702,-2.8246,-2.9012,-2.9153,-3.0839,-3.1928,-3.2707,-3.2859,-3.3331,-3.3802,-3.1775,-3.0083,-2.853,0.0,0.0,0.0,0.0,0.0,0.0,0.0,0.0,0.0,0.0,0.0,0.0,0.0,0.0,0.0,0.0,0.0,0.0,0.0,-2.8975,-2.8975,-2.8975,-2.8975,-2.8361,-2.7021,-2.7021,-2.7383,-2.8241,-2.8241,-2.8241,-2.8379,-2.8498,-2.7882,-2.6399,-2.5912,-2.4933,-2.3574,-2.1839,-2.1335,-2.1475,-2.0462,-2.0462,0.0,0.0,0.0,0.0,0.0,0.0,0.0,0.0,-2.1984,-2.2807,-2.1654,-2.2483,-2.3816,-2.3133,-2.231,-2.1897,-2.2722,-2.176,-2.0665,-2.0665,0.0,0.0,0.0,0.0,0.0,0.0,0.0,0.0,0.0,0.0,-2.1957,-2.2223,-2.2259,-2.2259,-2.2259,-2.2925,-2.355,-2.3957,-2.4828,-2.5635,-2.6056,-2.5911,-2.5753,-2.5753,-2.5594,-2.5594,-2.5594,-2.5753,-2.5911,-2.6228,-2.6228,-2.6228,-2.6386,-2.6386,-2.6386,-2.6386,-2.6386,-2.6386,-2.6386,-2.6386,-2.6386,-2.6386,-2.7004,-2.7319,-2.7476,-2.9168,-2.9774,-3.0068,-3.1606,-3.2081,-3.1944,-3.196,-3.0716,-2.9168,0.0,0.0,0.0,0.0,0.0,0.0,0.0,0.0,0.0,0.0,0.0,0.0,0.0,0.0,0.0,0.0,0.0,0.0,-2.8975,-2.8975,-2.8975,-2.8975,-2.8975,-2.8618,-2.7624,-2.7624,-2.7882,-2.8361,-2.8737,-2.8737,-2.8259,-2.8618,-2.7744,-2.5912,-2.5407,-2.4425,-2.3216,-2.1713,-2.1475,-2.1978,-2.0956,-2.0956,0.0,0.0,0.0,0.0,0.0,0.0,0.0,0.0,-2.238,-2.3092,-2.2324,-2.2835,-2.3816,-2.2996,-2.2585,-2.231,-2.231,-2.1484,-2.0665,0.0,0.0,0.0,0.0,0.0,0.0,0.0,-2.1197,0.0,0.0,0.0,0.0,-2.2235,-2.2259,-2.2259,-2.2259,-2.3175,-2.3816,-2.4278,-2.5244,-2.5911,-2.6386,-2.6228,-2.5911,-2.5911,-2.5911,-2.5911,-2.5911,-2.6228,-2.6386,-2.6386,-2.6386,-2.6386,-2.6386,-2.6386,-2.6386,-2.6386,-2.6386,-2.6386,-2.6386,-2.6386,-2.6386,-2.6386,-2.6386,-2.6386,-2.6544,-2.7462,-2.7762,-2.7905,-2.9743,-3.0222,-2.9774,-3.0253,-2.9789,-2.8871,0.0,0.0,0.0,0.0,0.0,0.0,0.0,0.0,0.0,0.0,0.0,0.0,0.0,0.0,0.0,0.0,0.0,0.0,-2.8975,-2.8993,-2.8993,-2.8975,-2.8975,-2.8975,-2.8975,-2.8975,-2.8361,-2.7021,-2.8361,-2.8975,-2.8975,-2.8259,-2.7659,-2.6935,-2.5317,-2.4209,-2.3479,-2.248,-2.2104,-2.1978,-2.0956,-2.0576,-2.0449,0.0,0.0,0.0,0.0,0.0,0.0,0.0,-2.321,-2.3384,-2.2616,-2.2996,-2.3952,-2.3952,-2.3133,-2.231,-2.231,-2.1484,-2.0665,0.0,0.0,0.0,0.0,0.0,0.0,0.0,0.0,-2.1873,-2.1873,-2.209,-2.2259,-2.2259,-2.2259,-2.2259,-2.2259,-2.3162,-2.3816,-2.4278,-2.5244,-2.5911,-2.6386,-2.6386,-2.6386,-2.6386,-2.6386,-2.6386,-2.6386,-2.6386,-2.6386,-2.6386,-2.6386,-2.6386,-2.6386,-2.6386,-2.6386,-2.6386,-2.6386,-2.6386,-2.6386,-2.6386,-2.6386,-2.6386,-2.6386,-2.6386,-2.6386,-2.5911,-2.6056,-2.6517,-2.7291,-2.7605,-2.7449,-2.6201,-2.6517,-2.7449,0.0,0.0,0.0,0.0,0.0,0.0,0.0,0.0,0.0,0.0,0.0,0.0,0.0,0.0,0.0,0.0,0.0,0.0,-2.8975,-2.8122,-2.8002,-2.8975,-2.8975,-2.8975,-2.8975,-2.8975,-2.8856,-2.8379,-2.8856,-2.8737,-2.8259,-2.814,-2.7659,-2.6935,-2.6067,-2.5194,-2.4209,-2.2731,-2.2104,-2.1978,-2.0956,-2.0956,-2.1727,0.0,0.0,0.0,0.0,0.0,0.0,0.0,0.0,0.0,-2.4111,-2.4345,-2.3816,-2.2996,-2.2585,-2.2173,-2.1358,-2.0943,0.0,0.0,0.0,0.0,0.0,0.0,0.0,0.0,-2.1909,-2.2138,-2.2138,-2.2211,-2.2259,-2.2259,-2.2259,-2.2259,-2.2259,-2.3153,-2.3909,-2.4252,-2.5231,-2.6002,-2.6373,-2.607,-2.607,-2.6386,-2.607,-2.607,-2.6386,-2.6386,-2.6386,-2.6386,-2.6386,-2.6386,-2.6386,-2.6386,-2.6386,-2.6386,-2.6386,-2.6386,-2.6386,-2.6386,-2.6386,-2.6386,-2.6386,-2.6386,-2.6386,-2.5607,-2.5276,-2.5117,-2.5885,-2.6201,-2.636,-2.6819,-2.7291,-2.7605,0.0,0.0,0.0,0.0,0.0,0.0,0.0,0.0,0.0,0.0,-2.5423,-2.6399,0.0,0.0,0.0,0.0,0.0,0.0,0.0,-2.7504,-2.7624,-2.8975,-2.8975,-2.8975,-2.8975,-2.8975,-2.8975,-2.8975,-2.8975,-2.8618,-2.802,-2.802,-2.7539,-2.6571,-2.5823,-2.5071,-2.4085,-2.3106,-2.2731,-2.2606,-2.209,-2.1978,-2.2118,0.0,0.0,0.0,0.0,0.0,0.0,0.0,0.0,0.0,-2.5099,-2.4752,-2.3802,-2.3119,-2.2572,-2.2035,-2.0943,-2.0665,0.0,0.0,0.0,0.0,0.0,0.0,0.0,0.0,-2.215,-2.2259,-2.2259,-2.2259,-2.2259,-2.2259,-2.2259,-2.2408,-2.2558,-2.3392,-2.4073,-2.4405,-2.5291,-2.5892,-2.6186,-2.6055,-2.5951,-2.6373,-2.6228,-2.607,-2.6386,-2.6386,-2.6386,-2.6386,-2.6386,-2.6386,-2.6386,-2.6386,-2.6386,-2.6386,-2.6386,-2.6386,-2.6386,-2.6386,-2.6386,-2.6386,-2.6228,-2.607,-2.5766,-2.513,-2.4652,-2.4332,-2.4798,-2.4945,-2.5104,-2.5885,-2.6346,-2.6977,0.0,0.0,-2.0361,-2.0982,0.0,0.0,0.0,0.0,0.0,0.0,-2.407,-2.5301,0.0,0.0,0.0,0.0,0.0,0.0,-2.69,-2.7021,-2.7624,-2.8975,-2.8975,-2.8975,-2.8975,-2.8975,-2.8975,-2.8975,-2.8975,-2.8737,-2.814,-2.802,-2.7401,-2.6189,-2.5194,-2.4456,-2.3852,-2.3604,-2.3494,-2.3524,-2.3649,-2.3039,-2.2104,-2.1612,0.0,0.0,0.0,0.0,0.0,0.0,0.0,0.0,-2.5562,-2.4887,-2.4074,-2.3924,-2.3119,-2.2035,-2.1081,0.0,0.0,0.0,0.0,0.0,-2.139,-2.1716,-2.1969,-2.2211,0.0,-2.2259,-2.2259,-2.2259,-2.2259,-2.2259,-2.2259,-2.2408,-2.2856,-2.3517,-2.3983,-2.4475,-2.5014,-2.5585,-2.5892,-2.5945,-2.6066,-2.6333,-2.6373,-2.6386,-2.6386,-2.6386,-2.6386,-2.6386,-2.6386,-2.6386,-2.6386,-2.6386,-2.6386,-2.6386,-2.6386,-2.6386,-2.6386,-2.6386,-2.6386,-2.6386,-2.5911,-2.5594,-2.513,-2.4652,-2.4172,-2.384,-2.384,-2.384,-2.384,-2.384,-2.4639,-2.574,0.0,0.0,-2.0361,-2.0982,0.0,0.0,0.0,0.0,0.0,0.0,0.0,0.0,0.0,0.0,0.0,0.0,0.0,0.0,-2.69,-2.7021,-2.7624,-2.8975,-2.8975,-2.8975,-2.8975,-2.8975,-2.8975,-2.8975,-2.8975,-2.8975,-2.8737,-2.8259,-2.79,-2.7539,-2.6311,-2.57,-2.5456,-2.41,-2.3252,-2.2851,-2.3598,-2.349,-2.2962,-2.4456,-2.5001,0.0,0.0,0.0,0.0,0.0,0.0,0.0,-2.5562,-2.5427,-2.5022,-2.421,-2.3119,-2.231,-2.2035,-2.1358,0.0,0.0,-2.0979,-2.1366,-2.1704,-2.1993,-2.2198,-2.2247,-2.2259,-2.2259,-2.2259,-2.2259,-2.2259,-2.2259,-2.2259,-2.2408,-2.2856,-2.3204,-2.3766,-2.4449,-2.498,-2.5291,-2.5585,-2.5825,-2.5985,-2.6052,-2.6266,-2.6386,-2.6386,-2.6386,-2.6386,-2.6386,-2.6386,-2.6386,-2.6386,-2.6386,-2.6386,-2.6386,-2.6386,-2.6386,-2.6386,-2.6386,-2.6386,-2.6386,-2.5911,-2.5594,-2.513,-2.4652,-2.4172,-2.384,-2.384,-2.384,-2.384,-2.384,-2.4639,-2.5898,0.0,0.0,0.0,0.0,0.0,0.0,0.0,0.0,0.0,0.0,0.0,0.0,0.0,0.0,0.0,0.0,-2.407,-2.4687,-2.5912,-2.6641,-2.7624,-2.8975,-2.8975,-2.8975,-2.8975,-2.8975,-2.8975,-2.8975,-2.8975,-2.8856,-2.8498,-2.814,-2.7659,-2.7039,-2.6432,-2.6043,-2.5853,-2.4968,-2.4417,-2.4321,-2.4833,-2.4555,-2.3941,-2.5145,-2.5336,-2.499,-2.5188,0.0,0.0,0.0,0.0,0.0,0.0,0.0,-2.4752,-2.4752,-2.3529,-2.231,0.0,0.0,0.0,-2.0822,0.0,-2.1535,-2.1812,-2.2078,-2.2259,-2.2259,-2.2259,-2.2259,-2.2259,-2.2259,-2.2259,-2.2259,-2.2259,-2.2558,-2.3005,-2.329,-2.3651,-2.4402,-2.4714,-2.4983,-2.5277,-2.5451,-2.5651,-2.5932,-2.6092,-2.6239,-2.6386,-2.6386,-2.6386,-2.6386,-2.6386,-2.6386,-2.6386,-2.6386,-2.6386,-2.6386,-2.6386,-2.6386,-2.6386,-2.6386,-2.6228,-2.607,-2.5594,-2.5289,-2.4811,-2.4332,-2.4012,-2.384,-2.384,-2.416,-2.4627,-2.4627,-2.5581,-2.6675,0.0,0.0,0.0,0.0,0.0,0.0,0.0,0.0,0.0,0.0,0.0,0.0,0.0,0.0,-2.2702,0.0,0.0,0.0,-2.4933,-2.652,-2.7762,-2.8618,-2.8856,-2.8975,-2.8975,-2.8975,-2.8975,-2.8975,-2.8975,-2.8737,-2.814,-2.814,-2.7574,-2.6533,-2.6411,-2.6133,-2.5849,-2.5723,-2.5659,-2.5716,-2.5974,-2.5214,-2.4247,-2.4907,-2.448,-2.3708,-2.426,-2.5022,-2.5427,-2.4752,0.0,0.0,0.0,0.0,-2.4617,-2.5427,-2.4345,-2.2846,0.0,0.0,0.0,-2.1132,-2.1412,0.0,-2.2093,-2.2362,-2.2558,-2.2558,-2.2408,-2.2259,-2.2259,-2.2259,-2.2259,-2.2259,-2.2259,-2.2558,-2.3302,-2.3438,-2.3748,-2.4488,-2.4636,-2.473,-2.4983,-2.505,-2.5304,-2.5838,-2.5932,-2.6079,-2.6373,-2.6386,-2.6386,-2.6386,-2.6386,-2.6386,-2.6386,-2.6386,-2.6386,-2.6386,-2.6386,-2.6386,-2.6386,-2.6386,-2.607,-2.5753,-2.5289,-2.4811,-2.4492,-2.4,-2.384,-2.384,-2.384,-2.448,-2.5422,-2.5581,-2.6517,-2.7605,0.0,0.0,0.0,0.0,0.0,0.0,0.0,0.0,0.0,0.0,-2.1348,-2.1475,0.0,-2.1475,-2.1348,-2.1348,-2.345,-2.481,-2.4933,0.0,0.0,-2.7263,-2.8361,-2.8975,-2.8975,-2.8975,-2.8975,-2.8975,-2.8975,-2.8975,0.0,0.0,-2.8559,-2.8167,-2.7658,-2.7243,-2.6853,-2.6328,-2.523,-2.3819,-2.473,-2.4095,-2.2875,-2.48,-2.4829,-2.4153,-2.61,-2.6249,-2.5697,-2.6517,-2.68,0.0,0.0,0.0,-2.6651,-2.5831,-2.5427,-2.5158,0.0,0.0,-2.1961,0.0,-2.2111,-2.3093,0.0,0.0,-2.3709,-2.3709,-2.2992,-2.2259,-2.2259,-2.2259,-2.2259,-2.2259,-2.2259,-2.2558,-2.3302,-2.3438,-2.3748,-2.4488,-2.4636,-2.4649,-2.469,-2.493,-2.5224,-2.5545,-2.5812,-2.6079,-2.6373,-2.6386,-2.6386,-2.6386,-2.6386,-2.6386,-2.6386,-2.6386,-2.6386,-2.6386,-2.6386,-2.6386,-2.6386,-2.607,-2.5911,-2.5753,-2.5289,-2.4811,-2.4492,-2.4,-2.384,-2.384,-2.384,-2.384,-2.416,-2.5263,-2.6517,-2.7762,0.0,0.0,0.0,0.0,0.0,0.0,0.0,0.0,0.0,0.0,0.0,-2.0856,-2.1109,-2.1109,-2.1348,-2.2215,-2.3946,-2.5668,-2.7142,-2.7624,-2.8002,-2.8122,-2.8737,-2.8975,-2.8975,-2.8975,-2.8975,-2.8975,-2.8975,0.0,0.0,-2.8962,-2.8445,0.0,0.0,-2.7123,-2.6826,-2.5903,-2.5565,-2.5486,-2.4669,-2.4352,-2.421,-2.4481,-2.4345,-2.4088,-2.5712,-2.5965,-2.5697,-2.6115,-2.6249,-2.6249,-2.5697,0.0,0.0,0.0,-2.61,0.0,-2.4074,-2.2983,-2.21,0.0,-2.2099,-2.3093,-2.2664,-2.3369,-2.3857,-2.3141,-2.2707,-2.2259,-2.2259,-2.2259,-2.2259,-2.2259,-2.2259,-2.2558,-2.3302,-2.3438,-2.3748,-2.4488,-2.4636,-2.4636,-2.4636,-2.4756,-2.4957,-2.5251,-2.5545,-2.5838,-2.6132,-2.6306,-2.6386,-2.6386,-2.6386,-2.6386,-2.6386,-2.6386,-2.6386,-2.6386,-2.6386,-2.6386,-2.6386,-2.5911,-2.5594,-2.5448,-2.497,-2.4492,-2.4172,-2.3852,-2.384,-2.384,-2.4639,-2.5251,-2.603,-2.7305,-2.8715,-2.9804,0.0,0.0,0.0,0.0,0.0,0.0,0.0,0.0,0.0,0.0,0.0,-2.0856,-2.1109,0.0,0.0,0.0,-2.3822,-2.5546,-2.7882,-2.7383,-2.7504,-2.8498,-2.8856,-2.8975,-2.8975,-2.8975,-2.8975,-2.8975,0.0,0.0,-2.958,-2.9046,-2.8517,0.0,-2.7427,-2.7117,0.0,0.0,0.0,0.0,-2.4631,-2.4074,-2.4345,-2.3665,-2.327,-2.3256,-2.4617,-2.5022,-2.4752,0.0,-2.5158,-2.5158,-2.5158,-2.5158,0.0,0.0,0.0,0.0,0.0,0.0,-2.2899,-2.1735,-2.2704,-2.3688,0.0,0.0,-2.4074,-2.3413,-2.2694,-2.2408,-2.2694,-2.2558,-2.2259,-2.2259,-2.2259,-2.2558,-2.3302,-2.3438,-2.3748,-2.4488,-2.4636,-2.4636,-2.4636,-2.4636,-2.4756,-2.5064,-2.5344,-2.5638,-2.5945,-2.6226,-2.6386,-2.6386,-2.6386,-2.6386,-2.6386,-2.6386,-2.6386,-2.6386,-2.6386,-2.6386,-2.6228,-2.5753,-2.5448,-2.497,-2.4652,-2.4172,-2.384,-2.384,-2.4,-2.432,-2.5263,-2.6517,-2.7762,-2.9012,-3.0129,-3.0917,0.0,0.0,0.0,0.0,0.0,0.0,0.0,0.0,0.0,0.0,0.0,-2.1109,-2.1109,-2.1109,-2.1109,-2.1235,-2.2466,-2.3822,-2.5178,-2.6277,-2.7021,-2.7142,-2.8361,0.0,-2.8975,-2.8975,-2.8975,0.0,0.0,0.0,-2.958,-2.9601,-2.9305,-2.8665,-2.791,-2.7866,-2.8114,0.0,0.0,0.0,-2.3952,-2.2722,-2.1081,-2.2035,-2.176,-2.1081,-2.327,0.0,0.0,0.0,0.0,0.0,-2.3938,-2.3938,-2.421,0.0,0.0,0.0,0.0,-2.5427,0.0,-2.2735,-2.4052,-2.5761,0.0,-2.4985,-2.5291,-2.5556,-2.387,-2.2694,-2.3722,-2.2992,-2.2259,-2.2259,-2.2259,-2.2558,-2.3302,-2.3438,-2.3748,-2.4488,-2.4636,-2.4636,-2.4636,-2.4636,-2.4756,-2.5064,-2.5344,-2.5638,-2.5945,-2.6226,-2.6386,-2.6386,-2.6386,-2.6386,-2.6386,-2.6386,-2.6386,-2.6386,-2.6386,-2.6228,-2.5753,-2.5289,-2.497,-2.4492,-2.4492,-2.4172,-2.384,-2.384,-2.448,-2.5581,-2.574,-2.6517,-2.7762,-2.9012,-2.9493,-2.9804,0.0,0.0,0.0,0.0,0.0,0.0,0.0,0.0,0.0,0.0,0.0,0.0,0.0,-2.0982,-2.1348,-2.1964,-2.2702,-2.3698,-2.4933,-2.4425,-2.4794,-2.6294,-2.7021,-2.7762,-2.8379,-2.8737,-2.9104,0.0,0.0,-2.9837,-3.0369,-2.9869,-2.9754,-2.9613,-2.8572,-2.7867,-2.7467,-2.5831,0.0,0.0,-2.2709,-2.176,-2.1622,-2.1346,-2.1081,-2.0943,0.0,0.0,0.0,0.0,0.0,0.0,0.0,0.0,0.0,0.0,0.0,0.0,0.0,0.0,0.0,-2.3665,-2.4724,-2.581,-2.4818,-2.496,-2.5063,-2.4434,-2.3888,-2.3574,-2.3857,-2.3141,-2.2558,-2.3277,-2.2843,-2.2558,-2.3302,-2.3438,-2.3748,-2.4488,-2.4636,-2.4636,-2.4636,-2.4636,-2.4676,-2.4783,-2.5237,-2.5558,-2.5665,-2.6132,-2.6386,-2.6386,-2.6386,-2.6386,-2.6386,-2.6386,-2.6386,-2.6386,-2.607,-2.5911,-2.5753,-2.513,-2.4652,-2.4492,-2.4172,-2.4012,-2.384,-2.4627,-2.5263,-2.5898,-2.7462,-2.8403,-2.9012,-3.0284,-3.0763,-3.0763,0.0,0.0,0.0,0.0,0.0,0.0,0.0,0.0,0.0,-2.0602,0.0,0.0,0.0,0.0,-2.1348,-2.1839,-2.209,-2.2577,-2.3946,-2.3076,-2.3311,-2.5423,-2.6156,-2.6952,-2.7834,-2.8553,-2.8992,0.0,0.0,0.0,0.0,-3.001,-2.9966,-2.997,-2.879,-2.7998,0.0,0.0,0.0,-2.5427,-2.2846,-2.2035,-2.2173,0.0,0.0,0.0,0.0,0.0,0.0,0.0,0.0,0.0,0.0,0.0,0.0,0.0,0.0,0.0,-2.6383,0.0,0.0,0.0,-2.5455,-2.6194,-2.5201,-2.5073,-2.4911,-2.4286,-2.381,-2.3574,-2.3857,-2.3141,-2.2694,-2.387,-2.2992,-2.2558,-2.3302,-2.3438,-2.3748,-2.4488,-2.4636,-2.4636,-2.4636,-2.4636,-2.4636,-2.4636,-2.5184,-2.5518,-2.5518,-2.6066,-2.6386,-2.6386,-2.6386,-2.6386,-2.6386,-2.6386,-2.6386,-2.6228,-2.5911,-2.5594,-2.5276,-2.4811,-2.4332,-2.4332,-2.4,-2.384,-2.384,-2.5104,-2.5885,-2.6517,-2.8715,-2.9804,-3.0284,-3.1071,-3.1395,-3.1395,0.0,0.0,0.0,0.0,0.0,0.0,0.0,0.0,-1.9979,-1.9711,0.0,0.0,0.0,0.0,0.0,-2.0628,-2.0387,-2.0755,-2.1978,-2.2104,-2.2841,-2.4425,-2.5668,-2.6722,-2.7446,-2.8474,-2.8653,-2.8152,-2.944,-2.9654,-2.8751,0.0,-2.997,-2.9168,-2.8527,-2.8263,-2.813,0.0,-2.6517,-2.5427,0.0,-2.327,-2.2173,0.0,0.0,0.0,-2.0665,-2.0665,0.0,-2.0665,0.0,0.0,0.0,0.0,0.0,0.0,0.0,0.0,0.0,0.0,0.0,0.0,-2.6383,-2.7012,-2.6254,-2.5461,-2.479,-2.524,-2.3663,-2.2682,-2.3857,-2.3129,-2.2694,-2.3857,-2.2992,-2.2558,-2.329,-2.3438,-2.3735,-2.4488,-2.4636,-2.4636,-2.4636,-2.4636,-2.4636,-2.4636,-2.517,-2.5504,-2.5518,-2.6066,-2.6386,-2.6386,-2.6386,-2.6386,-2.6386,-2.6386,-2.6228,-2.5753,-2.5753,-2.5276,-2.4492,-2.4492,-2.4172,-2.384,-2.384,-2.384,-2.4,-2.5263,-2.6517,-2.7762,-2.9027,-3.0284,-3.1395,-3.1395,-3.1395,-3.1395,0.0,0.0,0.0,0.0,0.0,-1.9571,-1.9456,-1.9839,-2.0106,0.0,0.0,0.0,-2.0515,-2.059,-2.0704,-2.1084,-2.1084,-2.1346,-2.1984,-2.1867,-2.2114,-2.3006,-2.3621,-2.4178,-2.4909,-2.5834,-2.6914,-2.8145,-2.8818,-2.9008,-2.8702,-2.977,-2.8871,-2.6188,-2.7716,-2.7584,-2.6368,-2.61,0.0,-2.421,-2.3119,-2.2035,0.0,0.0,0.0,0.0,0.0,-2.0665,-2.0665,0.0,-2.0665,-2.0804,0.0,0.0,0.0,0.0,0.0,0.0,-2.4766,0.0,0.0,0.0,0.0,0.0,-2.691,-2.6224,-2.5374,-2.4778,-2.4514,-2.4289,-2.3851,-2.3581,-2.3574,-2.4005,-2.2992,-2.2408,-2.3005,-2.3302,-2.36,-2.4044,-2.4488,-2.4636,-2.4636,-2.4636,-2.4636,-2.4636,-2.4983,-2.5291,-2.5504,-2.6066,-2.6386,-2.6386,-2.6386,-2.6386,-2.6386,-2.607,-2.5911,-2.5753,-2.5117,-2.4811,-2.4492,-2.4172,-2.384,-2.384,-2.384,-2.432,-2.5263,-2.6504,-2.7291,-2.7762,-2.9974,-3.1071,-3.1395,-3.1395,-3.1395,-3.1395,0.0,0.0,-1.9072,-1.9072,-1.9328,-1.9571,-1.9456,-1.9811,-2.0027,0.0,0.0,0.0,-2.0797,-2.058,-2.0668,-2.1198,-2.0933,-2.0933,-2.1066,-2.0933,-2.1066,-2.1582,-2.2476,-2.3173,-2.397,-2.5009,-2.5939,-2.6835,-2.7344,-2.7589,-2.7668,-2.8065,-2.7403,-2.5651,-2.6902,-2.6501,0.0,0.0,0.0,0.0,-2.2846,0.0,0.0,-2.0804,-2.0665,0.0,0.0,0.0,-2.0665,-2.0665,-2.0665,0.0,0.0,0.0,0.0,0.0,0.0,0.0,0.0,0.0,0.0,-2.5562,0.0,0.0,-2.6517,-2.5544,-2.4386,-2.3705,-2.3661,-2.3602,-2.2993,-2.2999,-2.3151,-2.3264,-2.2694,-2.2408,-2.2856,-2.3154,-2.3587,-2.3896,-2.4341,-2.4636,-2.4636,-2.4636,-2.4636,-2.4636,-2.4917,-2.5211,-2.5504,-2.5838,-2.6026,-2.6026,-2.6026,-2.5869,-2.5713,-2.5557,-2.5231,-2.4918,-2.4459,-2.4145,-2.3987,-2.3672,-2.3514,-2.3514,-2.3514,-2.4132,-2.5374,-2.6763,-2.7678,-2.8544,-3.0593,-3.1395,-3.1395,-3.1395,-3.1395,-3.1395,0.0,0.0,-1.912,-1.912,-1.9389,-1.9542,-1.9297,-1.9634,-1.9924,0.0,-2.0145,-2.0718,-2.1237,-2.0743,-2.0634,-2.0889,-2.0367,-2.0099,-2.0099,-2.0099,-2.0233,-2.0634,-2.2058,-2.3092,-2.3771,-2.4815,-2.5212,-2.4873,-2.5499,-2.5779,-2.5831,-2.5667,-2.5651,-2.5935,-2.595,-2.5022,-2.3802,0.0,0.0,-2.5022,-2.3256,-2.231,0.0,0.0,-2.0665,-2.0665,-2.0665,-2.0665,-2.0665,-2.0665,-2.0665,0.0,0.0,0.0,0.0,0.0,-2.3529,0.0,0.0,0.0,0.0,-2.5292,-2.5292,0.0,-2.5427,-2.4148,-2.2955,-2.2828,-2.2357,-2.2075,-2.2165,-2.2239,-2.2337,-2.2571,-2.2484,-2.2521,-2.2856,-2.3154,-2.3438,-2.3896,-2.4341,-2.4488,-2.4636,-2.4636,-2.4636,-2.4636,-2.4917,-2.5197,-2.5451,-2.5491,-2.5518,-2.5518,-2.5504,-2.5198,-2.4892,-2.4739,-2.4431,-2.3661,-2.3661,-2.3507,-2.3043,-2.3043,-2.3043,-2.3043,-2.3043,-2.3816,-2.5032,-2.6226,-2.7798,-2.9589,-3.0854,-3.1363,-3.1395,-3.1395,-3.1395,-3.1395,-1.9072,-1.9241,-1.9386,-1.9386,-1.971,-1.9856,-1.9724,-1.9905,-1.9941,-2.0195,-2.0563,-2.0736,-2.0466,-2.0661,-2.0784,-2.1059,-2.1059,-2.1196,-2.1731,-2.1868,-2.1868,-2.1868,-2.2277,-2.2303,-2.2219,-2.244,-2.3134,-2.4046,-2.453,-2.4665,-2.4331,-2.5113,-2.4303,-2.2297,-2.3665,-2.3665,-2.2722,0.0,0.0,-2.2983,-2.3379,-2.2572,-2.0943,-2.0804,-2.0665,-2.0665,-2.0665,-2.0665,-2.0665,-2.0665,-2.0665,-2.0804,0.0,0.0,0.0,-2.122,0.0,0.0,0.0,0.0,0.0,-2.2983,-2.3529,0.0,-2.4196,-2.466,-2.4703,-2.3899,-2.4412,-2.4915,-2.4008,-2.4072,-2.4106,-2.4174,-2.3655,-2.3024,-2.2521,-2.2707,-2.3154,-2.3451,-2.3883,-2.4193,-2.4636,-2.4636,-2.4636,-2.4636,-2.4917,-2.5104,-2.5157,-2.5384,-2.5518,-2.5518,-2.5198,-2.5045,-2.4892,-2.4278,-2.3816,-2.3661,-2.3353,-2.3198,-2.3043,-2.3043,-2.3043,-2.3043,-2.3043,-2.4265,-2.6378,-2.653,-2.7668,-2.9243,-3.0494,-3.1141,-3.1395,-3.1395,-3.1395,-3.1395,-1.9483,-1.9591,-1.9676,-1.9676,-1.9796,-1.9881,-1.9881,-2.0002,-2.0209,-2.0343,-2.0576,-2.0747,-2.0747,-2.0731,-2.0804,-2.1207,-2.1081,-2.1081,-2.1484,-2.1484,-2.1484,-2.1484,-2.1622,-2.1622,-2.1484,-2.176,-2.2173,-2.3106,-2.3119,-2.3393,-2.3938,-2.3788,-2.3106,-2.2035,-2.2996,-2.2996,-2.2448,0.0,-2.3802,-2.231,-2.2846,0.0,-2.0665,-2.0665,-2.075,-2.0859,-2.0859,-2.0859,-2.0859,-2.0859,-2.0774,0.0,-2.0665,-2.0665,-2.0665,-2.0665,-2.0665,-2.0665,-2.0665,-2.1484,-2.231,-2.231,-2.2722,0.0,0.0,-2.3515,-2.3665,-2.2585,-2.405,-2.5149,-2.4205,-2.4901,-2.5336,-2.4524,-2.4106,-2.3406,-2.2142,-2.2547,-2.3005,-2.3154,-2.3451,-2.3896,-2.4193,-2.4341,-2.4341,-2.4636,-2.477,-2.4714,-2.4552,-2.4697,-2.4625,-2.4475,-2.4324,-2.4009,-2.3871,-2.3568,-2.3265,-2.2961,-2.2809,-2.2657,-2.2657,-2.2657,-2.2657,-2.2657,-2.2657,-2.3996,-2.622,-2.622,-2.7551,-2.9683,-3.064,-3.1077,-3.1395,-3.1395,-3.1395,-3.1395,-1.9905,-1.9929,-1.9965,-1.9965,-2.0002,-2.0038,-2.0038,-2.0219,-2.0352,-2.0352,-2.0533,-2.0804,-2.1081,-2.0804,-2.0804,-2.1081,-2.0804,-2.0665,-2.0804,-2.0804,-2.0804,-2.0943,-2.122,-2.1346,-2.1346,-2.1622,-2.176,-2.2035,-2.176,-2.231,-2.3406,-2.2173,-2.2035,-2.2585,-2.2448,0.0,0.0,0.0,0.0,-2.2035,0.0,-2.1622,-2.0678,-2.0726,-2.0871,-2.1064,-2.1124,-2.1136,-2.1136,-2.1136,-2.0967,-2.0738,-2.0738,-2.0702,-2.0665,-2.0665,-2.0665,-2.0665,-2.0665,-2.1346,-2.2035,-2.2035,-2.2035,-2.2035,0.0,0.0,0.0,-2.122,-2.2969,-2.466,-2.3956,-2.5085,-2.5692,-2.4386,-2.409,-2.3594,-2.2032,-2.236,-2.2868,-2.2769,-2.3116,-2.36,-2.3896,-2.4044,-2.4193,-2.4341,-2.4488,-2.4341,-2.3896,-2.3896,-2.3748,-2.3438,-2.3302,-2.3154,-2.2856,-2.2856,-2.2558,-2.2259,-2.2259,-2.2259,-2.2259,-2.2259,-2.2259,-2.2259,-2.2259,-2.3574,-2.5758,-2.5758,-2.7615,-3.0346,-3.0648,-3.1014,-3.1395,-3.1395,-3.1395,-3.1395,-1.9977,-2.0074,-2.0231,-2.0231,-2.0424,-2.0581,-2.0581,-2.0605,-2.0617,-2.0617,-2.0653,-2.0665,0.0,0.0,0.0,0.0,0.0,0.0,-2.1069,0.0,-2.1346,-2.1634,-2.176,-2.176,-2.176,-2.1484,-2.1346,-2.1346,-2.1346,-2.1346,-2.1484,-2.1346,-2.1346,-2.1346,-2.1081,0.0,0.0,0.0,-2.2035,0.0,-2.1897,-2.1622,0.0,-2.0931,-2.1028,-2.1088,-2.1341,-2.1426,-2.1426,-2.1426,-2.1245,-2.1016,-2.1016,-2.0859,-2.0665,-2.0665,-2.0665,-2.0665,-2.0665,-2.0804,-2.0943,-2.0943,-2.0943,-2.0943,-2.0943,0.0,-2.231,-2.2173,0.0,-2.4088,-2.4402,0.0,0.0,-2.4491,-2.4092,-2.3664,-2.3268,-2.291,-2.2658,-2.2618,-2.3003,-2.36,-2.3896,-2.4341,-2.4193,-2.36,-2.3883,-2.3896,-2.3438,-2.3451,-2.3438,-2.3438,-2.3154,-2.3005,-2.2856,-2.2558,-2.2408,-2.2259,-2.2259,-2.2259,-2.2259,-2.2259,-2.2259,-2.2259,-2.2259,-2.3574,-2.5758,-2.5758,-2.7615,-3.0315,-3.0362,-3.0791,-3.1395,-3.1395,-3.1395,-3.1395,-2.0388,-2.0424,-2.0509,-2.0509,-2.0593,-2.0665,-2.0665,-2.0665,-2.0665,-2.0665,-2.0665,-2.0665,0.0,0.0,0.0,0.0,0.0,-2.0804,0.0,0.0,-2.0943,-2.122,-2.122,-2.122,-2.122,-2.0943,-2.1081,-2.1207,-2.1207,-2.1346,-2.1484,-2.1346,-2.1207,-2.122,-2.0804,0.0,-2.1622,0.0,-2.2035,0.0,0.0,-2.1862,-2.0907,-2.1016,-2.1257,-2.1571,-2.1836,-2.1836,-2.1704,-2.1704,-2.1523,-2.1305,-2.1305,-2.1112,-2.0895,-2.0895,-2.0786,-2.0665,-2.0665,-2.0665,-2.0665,-2.0665,-2.0665,-2.0665,-2.0665,-2.1484,-2.2173,-2.1484,0.0,0.0,0.0,0.0,0.0,0.0,-2.4224,-2.3804,-2.2598,-2.2662,-2.2614,-2.262,-2.2746,-2.3177,-2.3784,-2.4235,-2.4488,-2.4193,-2.4044,-2.3896,-2.3438,-2.3154,-2.3005,-2.2707,-2.2558,-2.2558,-2.2558,-2.2408,-2.2259,-2.2259,-2.2259,-2.2259,-2.2259,-2.2259,-2.2259,-2.2259,-2.2259,-2.3574,-2.5758,-2.5758,-2.7615,-3.0315,-3.0315,-3.0759,-3.1395,-3.1395,-3.1395,-3.1395,-2.0665,0.0,0.0,-2.0665,-2.0665,-2.0665,-2.0665,-2.0665,-2.0665,0.0,0.0,0.0,-2.0665,-2.0665,0.0,0.0,-2.0665,-2.0665,0.0,0.0,-2.0665,0.0,0.0,0.0,0.0,-2.0665,-2.0804,-2.1069,-2.1069,-2.122,-2.1496,-2.122,-2.1069,-2.1081,0.0,-2.1081,-2.1897,0.0,-2.1936,-2.2025,-2.223,-2.1845,-2.1281,-2.1281,-2.1571,-2.2005,-2.2198,-2.2138,-2.1981,-2.1981,-2.18,-2.1583,-2.1583,-2.1402,-2.1172,-2.1172,-2.104,-2.0871,-2.0798,-2.0774,-2.0762,-2.069,-2.0665,-2.0665,-2.0665,-2.1346,-2.1622,-2.0804,-2.2421,0.0,0.0,0.0,-2.468,-2.3392,0.0,-2.3365,-2.2069,-2.2441,-2.2741,-2.2459,-2.2716,-2.2844,-2.3339,-2.3904,-2.4222,-2.4074,-2.3844,-2.3451,-2.3154,-2.2856,-2.2558,-2.2259,-2.2259,-2.2259,-2.2259,-2.2259,-2.2259,-2.2259,-2.2259,-2.2259,-2.2259,-2.2259,-2.2259,-2.2259,-2.2259,-2.3574,-2.5772,-2.5856,-2.7689,-3.033,-3.0426,-3.0839,-3.1395,-3.1395,-3.1395,-3.1395,-2.0665,-2.0665,0.0,0.0,0.0,-2.0665,-2.0665,0.0,0.0,0.0,0.0,0.0,0.0,0.0,0.0,0.0,0.0,-2.0665,-2.0665,0.0,-2.0665,0.0,0.0,-2.0665,0.0,0.0,-2.0665,-2.0665,-2.0665,-2.0665,-2.0665,-2.0665,-2.0665,-2.0665,-2.0665,-2.0665,-2.0804,-2.0804,-2.095,-2.1181,-2.1193,-2.1378,-2.1848,-2.1848,-2.2017,-2.2247,-2.2259,-2.2259,-2.2247,-2.2247,-2.2078,-2.186,-2.186,-2.1679,-2.1462,-2.1462,-2.1462,-2.139,-2.1124,-2.1052,-2.0979,-2.0726,-2.0665,-2.0665,-2.0665,-2.0665,-2.0804,-2.0665,-2.0804,-2.0943,-2.1207,-2.1346,-2.1396,-2.1404,-2.1991,0.0,0.0,-2.2413,-2.2704,-2.2294,-2.2731,-2.3054,-2.2637,-2.3168,-2.3336,-2.2459,-2.2707,-2.2707,-2.2408,-2.2259,-2.2259,-2.2259,-2.2259,-2.2259,-2.2259,-2.2259,-2.2259,-2.2259,-2.2259,-2.2259,-2.2259,-2.2259,-2.2259,-2.2259,-2.2259,-2.3574,-2.5786,-2.6094,-2.7896,-3.0346,-3.0712,-3.1061,-3.1395,-3.1395,-3.1395,-3.1395,-2.0665,0.0,0.0,0.0,0.0,0.0,0.0,-2.0665,0.0,0.0,0.0,0.0,0.0,-2.0822,-2.0931,0.0,0.0,-2.1209,-2.1209,-2.1209,0.0,0.0,0.0,-2.0847,0.0,0.0,0.0,0.0,-2.0665,-2.0665,-2.0665,-2.0665,-2.0665,-2.0665,0.0,-2.0665,0.0,0.0,0.0,0.0,-2.145,-2.1812,-2.2126,-2.2126,-2.2186,-2.2259,-2.2259,-2.2259,-2.2259,-2.2259,-2.2198,-2.2126,-2.2126,-2.1945,-2.174,-2.174,-2.1619,-2.1462,-2.1366,-2.1341,-2.1317,-2.1221,-2.1064,-2.0931,-2.0931,-2.0798,-2.0665,-2.0665,-2.0665,-2.0665,-2.0804,-2.1081,-2.1183,-2.1221,-2.1696,-2.2009,0.0,-2.2519,-2.2899,-2.2717,-2.3007,-2.3192,-2.3051,-2.3171,-2.3196,-2.2908,-2.2727,-2.2596,-2.2448,-2.2311,-2.2259,-2.2259,-2.2259,-2.2259,-2.2259,-2.2259,-2.2259,-2.2259,-2.2259,-2.2259,-2.2259,-2.2259,-2.2259,-2.2271,-2.244,-2.3405,-2.4903,-2.6101,-2.7769,-2.9609,-3.0505,-3.1077,-3.1395,-3.1395,-3.1395,-3.1395,-2.0665,0.0,0.0,0.0,0.0,0.0,0.0,0.0,0.0,0.0,-2.081,0.0,-2.0943,0.0,-2.1209,0.0,-2.1378,-2.1474,-2.1474,-2.1474,0.0,-2.1221,-2.1209,0.0,0.0,0.0,0.0,0.0,0.0,-2.0665,-2.0665,-2.0665,-2.0665,-2.0665,0.0,-2.0665,-2.069,-2.0943,-2.1112,0.0,-2.1788,-2.2114,-2.2259,-2.2259,-2.2259,-2.2259,-2.2259,-2.2259,-2.2259,-2.2259,-2.2259,-2.2259,-2.2259,-2.2138,-2.2005,-2.2005,-2.1885,-2.174,-2.1643,-2.1619,-2.1595,-2.1498,-2.1341,-2.1209,-2.1209,-2.1076,-2.0931,-2.0822,-2.081,-2.0774,-2.069,-2.0943,-2.1081,-2.1081,-2.1358,-2.176,0.0,-2.2448,-2.2585,-2.2448,-2.2895,-2.3166,-2.3014,-2.2858,-2.2743,-2.2601,-2.2294,-2.2214,-2.23,-2.2177,-2.2162,-2.2259,-2.2259,-2.2259,-2.2259,-2.2259,-2.2259,-2.2259,-2.2259,-2.2259,-2.2259,-2.2259,-2.2307,-2.2416,-2.2573,-2.3454,-2.4618,-2.6267,-2.7726,-2.9168,-3.0526,-3.1188,-3.1395,-3.1395,-3.1395,-3.1395,-2.0665,-2.0665,0.0,0.0,-2.0678,0.0,0.0,0.0,-2.0786,0.0,-2.1076,-2.1185,-2.145,-2.1498,-2.1523,-2.1523,-2.1535,-2.1535,-2.1535,-2.1523,0.0,0.0,-2.1498,-2.1486,-2.1474,0.0,0.0,0.0,0.0,0.0,-2.069,0.0,0.0,0.0,-2.0665,0.0,-2.0702,-2.0967,-2.1245,-2.1559,-2.2054,-2.2271,-2.2283,-2.2283,-2.2283,-2.2295,-2.2271,-2.2259,-2.2259,-2.2259,-2.2259,-2.2259,-2.2259,-2.2259,-2.2259,-2.2259,-2.2259,-2.2211,-2.1957,-2.1885,-2.1836,-2.1583,-2.151,-2.1498,-2.1498,-2.1486,-2.1402,-2.1136,-2.1076,-2.1003,-2.0738,-2.069,-2.069,-2.0665,-2.0943,-2.1346,-2.1772,-2.2035,-2.2173,-2.1897,-2.2448,-2.2722,-2.231,-2.2141,-2.2013,-2.1592,-2.1579,-2.1571,-2.1836,-2.186,-2.1993,-2.2247,-2.2259,-2.2259,-2.2259,-2.2259,-2.2259,-2.2259,-2.2259,-2.2259,-2.2259,-2.2259,-2.2404,-2.2657,-2.2669,-2.3426,-2.4931,-2.643,-2.7788,-2.9045,-3.0623,-3.1395,-3.1395,-3.1395,-3.1395,-3.1395,-2.0665,-2.0665,-2.0726,0.0,-2.0798,-2.0738,0.0,0.0,0.0,0.0,-2.1378,-2.1402,-2.1474,-2.1824,-2.2054,-2.2054,-2.2235,0.0,0.0,0.0,0.0,-2.1776,-2.1764,-2.1679,-2.1486,-2.1414,0.0,-2.1378,0.0,0.0,-2.0955,0.0,0.0,0.0,0.0,-2.0774,-2.0979,-2.1257,-2.1643,-2.2078,-2.2211,-2.238,-2.2549,-2.2549,-2.2669,-2.279,-2.2404,-2.2259,-2.2259,-2.2259,-2.2259,-2.2259,-2.2259,-2.2259,-2.2259,-2.2259,-2.2259,-2.2247,-2.2174,-2.2162,-2.2138,-2.2078,-2.1909,-2.1764,-2.1764,-2.1619,-2.1462,-2.139,-2.1378,-2.1293,-2.1016,-2.0955,-2.0895,-2.0702,-2.0943,-2.1207,-2.1346,-2.1622,-2.1897,-2.1772,-2.1897,-2.2035,-2.1897,-2.1685,-2.1458,-2.1319,-2.1298,-2.1293,-2.1559,-2.1764,-2.1993,-2.2247,-2.2259,-2.2259,-2.2259,-2.2259,-2.2259,-2.2259,-2.2259,-2.2259,-2.2259,-2.2259,-2.2404,-2.2657,-2.2862,-2.3247,-2.384,-2.5505,-2.6867,-2.8117,-2.9464,-3.0593,-3.1395,-3.1395,-3.1395,-3.1395,-2.1028,-2.1028,0.0,-2.1221,0.0,0.0,-2.1221,-2.1245,0.0,-2.1619,-2.1752,0.0,-2.1981,-2.2355,-2.2609,-2.2609,-2.2742,0.0,-2.2826,0.0,0.0,-2.2223,-2.2211,-2.209,-2.1824,-2.1704,0.0,-2.1643,0.0,0.0,-2.1233,-2.0967,-2.0834,0.0,0.0,-2.0919,-2.1088,-2.1486,-2.1885,-2.2271,-2.238,-2.2524,0.0,-2.2778,-2.2911,-2.3007,-2.2705,-2.2609,-2.2609,-2.2609,-2.2609,-2.2609,-2.2609,-2.2524,-2.2428,-2.2428,-2.2355,-2.2259,-2.2259,-2.2259,-2.2259,-2.2259,-2.215,-2.2042,-2.2042,-2.1921,-2.1788,-2.1679,-2.1643,-2.1571,-2.1293,-2.1148,-2.0979,-2.0714,-2.0804,-2.0943,-2.0943,-2.1346,-2.1484,-2.1358,-2.1484,-2.1484,-2.1358,-2.122,-2.1069,-2.0943,-2.0938,-2.1003,-2.1281,-2.1547,-2.1824,-2.2078,-2.2198,-2.2259,-2.2259,-2.2259,-2.2259,-2.2259,-2.2259,-2.2259,-2.2259,-2.2259,-2.2404,-2.2657,-2.2814,-2.3092,-2.3466,-2.5007,-2.6082,-2.6977,-2.8871,-2.9974,-3.0593,-3.1225,-3.1395,-3.1395,-2.1474,0.0,0.0,0.0,0.0,0.0,0.0,-2.1547,0.0,-2.1933,0.0,-2.2416,-2.2669,-2.2935,-2.3092,-2.3092,0.0,-2.3092,-2.3092,-2.3056,-2.2947,-2.2718,-2.2669,-2.2549,-2.2319,-2.2054,-2.1921,0.0,0.0,0.0,-2.1523,-2.1245,-2.1112,0.0,0.0,-2.1136,-2.1197,-2.1704,-2.2078,-2.2331,-2.2561,-2.2693,-2.2778,-2.3007,-2.3116,-2.3152,-2.3152,-2.3104,-2.3043,-2.3043,-2.3043,-2.3043,-2.3043,-2.2887,-2.2705,-2.2705,-2.2512,-2.2307,-2.2307,-2.2283,-2.2259,-2.2259,-2.2259,-2.2259,-2.2259,-2.2259,-2.2198,-2.1969,-2.1921,-2.1836,-2.1583,-2.1269,-2.0979,-2.0762,-2.069,-2.0665,-2.0665,-2.0943,-2.1081,-2.0665,-2.0943,0.0,-2.0665,-2.0943,-2.1081,-2.0665,-2.0665,-2.0786,-2.1052,-2.1329,-2.1595,-2.186,-2.2126,-2.2259,-2.2259,-2.2259,-2.2259,-2.2259,-2.2259,-2.2259,-2.2259,-2.2259,-2.2404,-2.2657,-2.2657,-2.2935,-2.3393,-2.4503,-2.5309,-2.5898,-2.8559,-2.9493,-2.9649,-3.0917,-3.1395,-3.1395,0.0,0.0,0.0,0.0,0.0,-2.1873,-2.209,-2.1945,-2.1969,-2.2452,-2.2549,-2.2681,-2.2947,-2.3225,-2.3381,-2.3381,-2.3381,0.0,0.0,0.0,0.0,-2.2983,-2.2766,-2.2633,-2.2585,-2.2331,-2.2198,0.0,0.0,0.0,-2.18,-2.1535,-2.1402,-2.1402,-2.1402,-2.1523,-2.1752,-2.2066,-2.2343,-2.2585,-2.2633,-2.2923,-2.3321,-2.3369,-2.3514,-2.3707,-2.3707,-2.3418,-2.3043,-2.3043,-2.3043,-2.3043,-2.3043,-2.3007,-2.2971,-2.2971,-2.279,-2.2585,-2.2585,-2.2428,-2.2259,-2.2259,-2.2259,-2.2259,-2.2259,-2.2259,-2.2247,-2.2198,-2.2198,-2.2114,-2.1848,-2.1402,-2.104,-2.1003,-2.081,-2.0665,-2.0665,-2.0804,-2.0804,-2.0665,-2.0804,-2.0804,-2.0665,-2.0804,-2.0804,-2.0665,-2.0665,-2.0786,-2.1052,-2.1329,-2.1595,-2.186,-2.2126,-2.2259,-2.2259,-2.2259,-2.2259,-2.2259,-2.2259,-2.2259,-2.2259,-2.2259,-2.2404,-2.2657,-2.2657,-2.2826,-2.3128,-2.3514,-2.4547,-2.5898,-2.8559,-2.9493,-2.9649,-3.0917,-3.1395,-3.1395,0.0,0.0,0.0,0.0,0.0,0.0,0.0,-2.2476,-2.2524,-2.2633,-2.2899,-2.3116,-2.3237,-2.349,-2.3659,-2.3659,-2.3659,-2.3659,-2.3659,-2.3538,-2.3393,-2.3261,-2.3128,-2.2935,-2.2657,-2.2524,-2.2404,-2.2259,0.0,-2.2078,-2.2066,-2.18,-2.1679,-2.1679,-2.1679,-2.1824,-2.2078,-2.2211,-2.2416,-2.2669,-2.2802,-2.3092,-2.3466,-2.3599,-2.3731,-2.384,-2.384,-2.3683,-2.3454,-2.3454,-2.3454,-2.3454,-2.3454,-2.3369,-2.3261,-2.3261,-2.3068,-2.2826,-2.2693,-2.2561,-2.2428,-2.2295,-2.2259,-2.2259,-2.2259,-2.2259,-2.2259,-2.2259,-2.2259,-2.2174,-2.1921,-2.1655,-2.139,-2.11,-2.0955,-2.0822,-2.069,-2.0665,-2.0665,-2.0665,-2.0665,-2.0665,-2.0665,-2.0665,-2.0665,-2.0665,-2.0665,-2.0726,-2.0847,-2.1257,-2.1535,-2.1667,-2.2054,-2.2259,-2.2259,-2.2259,-2.2259,-2.2259,-2.2259,-2.2259,-2.2259,-2.2259,-2.2331,-2.2452,-2.2452,-2.2597,-2.2874,-2.3285,-2.3842,-2.4756,-2.6779,-2.7462,-2.7776,-2.9664,-2.9974,-2.9649,0.0,-2.2307,0.0,0.0,-2.2561,-2.2742,-2.2742,-2.2959,-2.3056,-2.285,-2.3188,-2.349,-2.3611,-2.3804,-2.3949,-2.4009,-2.4009,-2.3985,-2.3937,-2.3925,-2.3816,-2.355,-2.3478,-2.3261,-2.2826,-2.2705,-2.2549,0.0,0.0,-2.2259,-2.2259,-2.2054,-2.1957,-2.1957,-2.1957,-2.2066,-2.2259,-2.2319,-2.25,-2.2754,-2.3019,-2.3297,-2.3562,-2.3768,-2.384,-2.384,-2.384,-2.384,-2.384,-2.384,-2.384,-2.384,-2.384,-2.3707,-2.3538,-2.3538,-2.3345,-2.3092,-2.2874,-2.2742,-2.2609,-2.2392,-2.2307,-2.2259,-2.2259,-2.2259,-2.2259,-2.2259,-2.2259,-2.2198,-2.1993,-2.1909,-2.1728,-2.1305,-2.1185,-2.1052,-2.0786,-2.075,-2.0726,-2.0678,-2.0665,-2.0665,-2.0665,-2.0665,-2.0665,-2.0665,-2.0665,-2.0665,-2.0665,-2.1185,-2.1474,-2.1474,-2.1993,-2.2259,-2.2259,-2.2259,-2.2259,-2.2259,-2.2259,-2.2259,-2.2259,-2.2259,-2.2259,-2.2259,-2.2259,-2.2416,-2.2693,-2.3164,-2.3406,-2.3478,-2.5161,-2.574,-2.6056,-2.8232,-2.8388,-2.7919,0.0,0.0,0.0,0.0,0.0,-2.3007,-2.3007,-2.3237,-2.3406,-2.3381,-2.3418,-2.3635,-2.4106,-2.4178,-2.4299,-2.4528,-2.4552,-2.4456,-2.4214,-2.4202,-2.4082,-2.3816,-2.3575,-2.343,-2.3381,-2.2899,-2.2645,0.0,-2.238,-2.2259,-2.2259,-2.2235,-2.2223,-2.2223,-2.2223,-2.2235,-2.2283,-2.2512,-2.2766,-2.3031,-2.3309,-2.3575,-2.3816,-2.384,-2.384,-2.384,-2.384,-2.384,-2.384,-2.384,-2.384,-2.384,-2.384,-2.3828,-2.3804,-2.3804,-2.3623,-2.3406,-2.3381,-2.3019,-2.2645,-2.2621,-2.244,-2.2259,-2.2259,-2.2259,-2.2259,-2.2259,-2.2259,-2.2259,-2.2235,-2.2029,-2.1848,-2.18,-2.1595,-2.1341,-2.1064,-2.1028,-2.0931,-2.0702,-2.0665,-2.0665,-2.0665,-2.0665,-2.0665,-2.0665,-2.0665,-2.0665,-2.0665,-2.1185,-2.1474,-2.1474,-2.1993,-2.2259,-2.2259,-2.2259,-2.2259,-2.2259,-2.2259,-2.2259,-2.2259,-2.2259,-2.2259,-2.2259,-2.2259,-2.2416,-2.2669,-2.2959,-2.3225,-2.3478,-2.5161,-2.574,-2.5898,-2.7291,-2.7762,-2.7605,0.0,0.0,0.0,0.0,0.0,-2.3345,-2.3502,-2.3756,-2.3973,-2.4142,-2.4021,-2.4057,-2.4432,-2.4468,-2.4516,-2.4613,-2.4625,-2.4576,-2.448,-2.4468,-2.4347,-2.4094,-2.3973,-2.378,-2.3466,-2.3237,-2.3056,-2.2887,-2.2621,-2.25,-2.2488,-2.2331,-2.2259,-2.2271,-2.2428,-2.25,-2.2512,-2.2778,-2.3043,-2.3297,-2.3406,-2.3611,-2.384,-2.384,-2.384,-2.384,-2.384,-2.384,-2.384,-2.384,-2.384,-2.384,-2.384,-2.384,-2.384,-2.384,-2.3768,-2.3647,-2.349,-2.3297,-2.3056,-2.273,-2.2573,-2.2452,-2.2295,-2.2259,-2.2259,-2.2259,-2.2259,-2.2259,-2.2259,-2.2174,-2.2054,-2.1897,-2.1788,-2.1619,-2.1354,-2.1305,-2.1209,-2.0931,-2.0907,-2.0847,-2.069,-2.0665,-2.0665,-2.0665,-2.0665,-2.0665,-2.0665,-2.1185,-2.1474,-2.1474,-2.1993,-2.2259,-2.2259,-2.2259,-2.2259,-2.2259,-2.2259,-2.2259,-2.2259,-2.2259,-2.2259,-2.2259,-2.2259,-2.2319,-2.244,-2.2705,-2.2971,-2.3237,-2.3975,-2.4489,-2.4627,-2.6043,-2.6043,-2.5727,-2.3043,-2.3104,-2.3188,-2.3261,-2.3502,-2.3768,-2.4033,-2.4226,-2.4444,-2.4709,-2.4589,-2.454,-2.4733,-2.4745,-2.4782,-2.4854,-2.4866,-2.483,-2.4758,-2.4745,-2.4625,-2.4359,-2.4275,-2.4057,-2.3695,-2.3526,-2.3357,-2.3164,-2.2899,-2.2766,-2.2766,-2.2573,-2.2488,-2.25,-2.2681,-2.2766,-2.279,-2.3056,-2.3273,-2.3466,-2.3538,-2.3683,-2.384,-2.384,-2.384,-2.384,-2.384,-2.384,-2.384,-2.384,-2.384,-2.384,-2.384,-2.384,-2.384,-2.384,-2.384,-2.3804,-2.3623,-2.3514,-2.3369,-2.2983,-2.2766,-2.2609,-2.2416,-2.2319,-2.2259,-2.2259,-2.2259,-2.2259,-2.2259,-2.2259,-2.2198,-2.2017,-2.1981,-2.1897,-2.1631,-2.1595,-2.1498,-2.1209,-2.1185,-2.1076,-2.081,-2.0786,-2.0786,-2.0786,-2.0786,-2.0786,-2.0786,-2.1221,-2.151,-2.1595,-2.2029,-2.2259,-2.2259,-2.2259,-2.2259,-2.2259,-2.2259,-2.2259,-2.2259,-2.2259,-2.2259,-2.2259,-2.2259,-2.2259,-2.2283,-2.2549,-2.2754,-2.2959,-2.3321,-2.3562,-2.3744,-2.4761,-2.4639,-2.432,-2.3043,-2.3261,-2.3526,-2.3792,-2.4057,-2.4311,-2.4576,-2.4625,-2.4721,-2.4999,-2.5035,-2.5035,-2.5035,-2.5035,-2.5144,-2.5409,-2.5421,-2.5313,-2.5059,-2.5035,-2.4914,-2.4637,-2.4371,-2.4226,-2.4226,-2.3719,-2.3454,-2.3442,-2.3176,-2.3043,-2.3043,-2.3031,-2.3031,-2.3031,-2.3031,-2.3043,-2.3056,-2.3333,-2.3454,-2.3478,-2.3731,-2.384,-2.384,-2.384,-2.384,-2.384,-2.384,-2.384,-2.384,-2.384,-2.384,-2.384,-2.384,-2.384,-2.384,-2.384,-2.384,-2.384,-2.384,-2.3647,-2.3454,-2.3442,-2.3043,-2.2657,-2.2645,-2.2452,-2.2259,-2.2259,-2.2259,-2.2259,-2.2259,-2.2259,-2.2259,-2.2259,-2.2259,-2.2162,-2.1897,-2.1873,-2.1764,-2.151,-2.1474,-2.1366,-2.1076,-2.1052,-2.1052,-2.1052,-2.1052,-2.1052,-2.1052,-2.1329,-2.1595,-2.186,-2.2126,-2.2259,-2.2259,-2.2259,-2.2259,-2.2259,-2.2259,-2.2259,-2.2259,-2.2259,-2.2259,-2.2259,-2.2259,-2.2259,-2.2283,-2.2549,-2.2657,-2.2705,-2.3249,-2.3454,-2.349,-2.3744,-2.384,-2.4,-2.3692,-2.4069,-2.4275,-2.4359,-2.4444,-2.4589,-2.4866,-2.4914,-2.5011,-2.5277,-2.5313,-2.5313,-2.5313,-2.5313,-2.5349,-2.5433,-2.5433,-2.5397,-2.5313,-2.5313,-2.5192,-2.4927,-2.483,-2.4613,-2.4238,-2.4069,-2.39,-2.3719,-2.3454,-2.3225,-2.3043,-2.3043,-2.3043,-2.3056,-2.3237,-2.3321,-2.3345,-2.3611,-2.3719,-2.3731,-2.3816,-2.384,-2.384,-2.384,-2.384,-2.384,-2.384,-2.384,-2.384,-2.384,-2.384,-2.384,-2.384,-2.384,-2.384,-2.384,-2.384,-2.384,-2.384,-2.378,-2.3683,-2.3502,-2.3188,-2.2874,-2.2693,-2.2452,-2.2259,-2.2259,-2.2259,-2.2259,-2.2259,-2.2259,-2.2259,-2.2259,-2.2259,-2.2235,-2.215,-2.2138,-2.2042,-2.1776,-2.1752,-2.1643,-2.1378,-2.1341,-2.1341,-2.1341,-2.1341,-2.1341,-2.1341,-2.1595,-2.1788,-2.1873,-2.2126,-2.2259,-2.2259,-2.2259,-2.2259,-2.2259,-2.2259,-2.2259,-2.2259,-2.2259,-2.2259,-2.2259,-2.2259,-2.2259,-2.2271,-2.2355,-2.2488,-2.2681,-2.3031,-2.3285,-2.349,-2.3744,-2.384,-2.4,-2.3047,-2.401,-2.4661,-2.477,-2.4782,-2.4878,-2.5156,-2.5192,-2.5252,-2.5409,-2.5433,-2.5433,-2.5433,-2.5433,-2.5433,-2.5433,-2.5433,-2.5433,-2.5433,-2.5433,-2.5361,-2.5204,-2.5096,-2.489,-2.4552,-2.4335,-2.4154,-2.3985,-2.3731,-2.3514,-2.3345,-2.3345,-2.3345,-2.3345,-2.3526,-2.3599,-2.3611,-2.378,-2.384,-2.384,-2.384,-2.384,-2.384,-2.384,-2.384,-2.384,-2.384,-2.384,-2.384,-2.384,-2.384,-2.384,-2.384,-2.384,-2.384,-2.384,-2.384,-2.384,-2.384,-2.384,-2.3804,-2.3647,-2.3393,-2.3104,-2.2742,-2.2452,-2.2259,-2.2259,-2.2259,-2.2259,-2.2259,-2.2259,-2.2259,-2.2259,-2.2259,-2.2259,-2.2259,-2.2259,-2.2198,-2.2042,-2.2017,-2.1909,-2.1655,-2.1631,-2.1631,-2.1631,-2.1631,-2.1667,-2.1764,-2.1836,-2.1921,-2.2017,-2.2174,-2.2259,-2.2259,-2.2259,-2.2259,-2.2259,-2.2259,-2.2259,-2.2259,-2.2259,-2.2259,-2.2259,-2.2259,-2.2259,-2.2259,-2.2259,-2.2355,-2.2536,-2.2899,-2.3152,-2.3345,-2.3707,-2.384,-2.4,-2.1954,-2.3321,-2.4591,-2.5023,-2.5071,-2.5156,-2.5397,-2.5433,-2.5446,-2.5458,-2.5458,-2.547,-2.5494,-2.5482,-2.5458,-2.5458,-2.5446,-2.5433,-2.5433,-2.5433,-2.5433,-2.5433,-2.5204,-2.5071,-2.5047,-2.4552,-2.4275,-2.4238,-2.3985,-2.3864,-2.384,-2.384,-2.384,-2.384,-2.384,-2.384,-2.384,-2.384,-2.384,-2.384,-2.384,-2.384,-2.384,-2.384,-2.384,-2.384,-2.384,-2.384,-2.384,-2.384,-2.384,-2.384,-2.384,-2.384,-2.384,-2.384,-2.384,-2.384,-2.384,-2.384,-2.384,-2.384,-2.3647,-2.3309,-2.2778,-2.2464,-2.2283,-2.2259,-2.2259,-2.2259,-2.2259,-2.2259,-2.2259,-2.2259,-2.2259,-2.2259,-2.2259,-2.2259,-2.2259,-2.2259,-2.2259,-2.2162,-2.1921,-2.1897,-2.1897,-2.1897,-2.1897,-2.2005,-2.2247,-2.2029,-2.2005,-2.2259,-2.2259,-2.2259,-2.2259,-2.2259,-2.2259,-2.2259,-2.2259,-2.2259,-2.2259,-2.2259,-2.2259,-2.2259,-2.2259,-2.2259,-2.2259,-2.2259,-2.2259,-2.2307,-2.2838,-2.3043,-2.3104,-2.3647,-2.384,-2.4,-2.1705,-2.2703,-2.354,-2.4985,-2.5349,-2.5361,-2.5421,-2.5433,-2.5506,-2.5711,-2.5735,-2.5808,-2.6013,-2.5856,-2.5735,-2.5735,-2.5554,-2.5433,-2.5433,-2.5433,-2.5433,-2.5433,-2.5373,-2.5252,-2.5047,-2.4914,-2.4649,-2.4238,-2.4178,-2.4045,-2.384,-2.384,-2.384,-2.384,-2.384,-2.384,-2.384,-2.384,-2.384,-2.384,-2.384,-2.384,-2.384,-2.384,-2.384,-2.384,-2.384,-2.384,-2.384,-2.384,-2.384,-2.384,-2.384,-2.384,-2.384,-2.384,-2.384,-2.384,-2.384,-2.384,-2.384,-2.384,-2.3647,-2.3309,-2.2778,-2.2609,-2.25,-2.2307,-2.2259,-2.2259,-2.2259,-2.2259,-2.2259,-2.2259,-2.2259,-2.2259,-2.2259,-2.2259,-2.2259,-2.2259,-2.2259,-2.2235,-2.2174,-2.2174,-2.2174,-2.2174,-2.2174,-2.2198,-2.2259,-2.2198,-2.2198,-2.2259,-2.2259,-2.2259,-2.2259,-2.2259,-2.2259,-2.2259,-2.2259,-2.2259,-2.2259,-2.2259,-2.2259,-2.2259,-2.2259,-2.2259,-2.2259,-2.2259,-2.2259,-2.2307,-2.2838,-2.3043,-2.3104,-2.3647,-2.384,-2.384,-2.0564,-2.2052,-2.317,-2.5092,-2.5433,-2.5482,-2.5602,-2.5615,-2.5711,-2.5977,-2.6013,-2.6061,-2.6206,-2.6097,-2.6013,-2.6013,-2.5663,-2.5433,-2.5433,-2.5433,-2.5433,-2.5433,-2.5433,-2.5373,-2.5228,-2.5108,-2.4842,-2.442,-2.442,-2.4347,-2.4202,-2.4082,-2.4021,-2.4021,-2.39,-2.384,-2.384,-2.384,-2.384,-2.384,-2.384,-2.3913,-2.4021,-2.4021,-2.4094,-2.4202,-2.4202,-2.413,-2.4021,-2.4021,-2.3937,-2.384,-2.384,-2.384,-2.384,-2.384,-2.384,-2.384,-2.384,-2.384,-2.384,-2.384,-2.3647,-2.3381,-2.308,-2.2826,-2.2609,-2.2464,-2.2343,-2.2259,-2.2259,-2.2259,-2.2259,-2.2259,-2.2259,-2.2259,-2.2259,-2.2259,-2.2259,-2.2259,-2.2259,-2.2259,-2.2259,-2.2259,-2.2259,-2.2259,-2.2259,-2.2259,-2.2259,-2.2259,-2.2259,-2.2259,-2.2259,-2.2259,-2.2259,-2.2259,-2.2259,-2.2259,-2.2259,-2.2259,-2.2259,-2.2259,-2.2259,-2.2259,-2.2259,-2.2259,-2.2259,-2.2259,-2.2259,-2.2307,-2.2838,-2.3043,-2.3104,-2.3647,-2.384,-2.384,-1.9177,-2.0915,-2.2837,-2.4613,-2.5323,-2.5578,-2.5844,-2.5856,-2.5928,-2.6182,-2.6218,-2.623,-2.6278,-2.6278,-2.6278,-2.6278,-2.5832,-2.5542,-2.5494,-2.5458,-2.5433,-2.5433,-2.5433,-2.5433,-2.5433,-2.5216,-2.4975,-2.4685,-2.4685,-2.4673,-2.4625,-2.4395,-2.4299,-2.4287,-2.4057,-2.3961,-2.3961,-2.3961,-2.3961,-2.3961,-2.3961,-2.4094,-2.4299,-2.4299,-2.4432,-2.4625,-2.4625,-2.448,-2.4287,-2.4251,-2.4094,-2.39,-2.3852,-2.384,-2.384,-2.384,-2.384,-2.384,-2.384,-2.384,-2.384,-2.384,-2.3683,-2.3502,-2.3466,-2.3104,-2.2754,-2.2669,-2.2476,-2.2307,-2.2271,-2.2259,-2.2259,-2.2259,-2.2259,-2.2259,-2.2259,-2.2259,-2.2259,-2.2259,-2.2259,-2.2259,-2.2259,-2.2259,-2.2259,-2.2259,-2.2259,-2.2259,-2.2259,-2.2259,-2.2259,-2.2259,-2.2259,-2.2259,-2.2259,-2.2259,-2.2259,-2.2259,-2.2259,-2.2259,-2.2259,-2.2259,-2.2259,-2.2259,-2.2259,-2.2259,-2.2259,-2.2259,-2.2283,-2.2367,-2.285,-2.3068,-2.3164,-2.3659,-2.384,-2.384,-1.7088,-1.9003,-2.0975,-2.3087,-2.4708,-2.5856,-2.6122,-2.5977,-2.5928,-2.6182,-2.6218,-2.6315,-2.6544,-2.658,-2.658,-2.658,-2.6278,-2.6001,-2.5784,-2.5566,-2.5433,-2.5433,-2.5433,-2.5433,-2.5433,-2.5397,-2.524,-2.4987,-2.4987,-2.4854,-2.4625,-2.4589,-2.4564,-2.4564,-2.4516,-2.4504,-2.4504,-2.4504,-2.4504,-2.4504,-2.4504,-2.4528,-2.4564,-2.4564,-2.4589,-2.4625,-2.4625,-2.4601,-2.4528,-2.4311,-2.4214,-2.4142,-2.3913,-2.384,-2.384,-2.384,-2.384,-2.384,-2.384,-2.384,-2.384,-2.384,-2.3816,-2.3731,-2.3502,-2.3393,-2.32,-2.2742,-2.2621,-2.2524,-2.2307,-2.2259,-2.2259,-2.2259,-2.2259,-2.2259,-2.2259,-2.2259,-2.2259,-2.2259,-2.2259,-2.2259,-2.2259,-2.2259,-2.2259,-2.2259,-2.2259,-2.2259,-2.2259,-2.2259,-2.2259,-2.2259,-2.2259,-2.2259,-2.2259,-2.2259,-2.2259,-2.2259,-2.2259,-2.2259,-2.2259,-2.2259,-2.2259,-2.2259,-2.2259,-2.2259,-2.2259,-2.2259,-2.2392,-2.2621,-2.2923,-2.3188,-2.343,-2.3731,-2.384,-2.384,-1.6999,-1.8076,-1.9133,-2.1057,-2.2998,-2.4266,-2.4391,-2.5196,-2.5928,-2.6182,-2.6218,-2.6266,-2.6399,-2.6411,-2.6411,-2.6411,-2.6291,-2.617,-2.6049,-2.5796,-2.5578,-2.5446,-2.5433,-2.5433,-2.5433,-2.5433,-2.5373,-2.5252,-2.5252,-2.5192,-2.5059,-2.4914,-2.4854,-2.4842,-2.4697,-2.4625,-2.4625,-2.4625,-2.4625,-2.4625,-2.4625,-2.4721,-2.4854,-2.4854,-2.4939,-2.5059,-2.5059,-2.4975,-2.483,-2.4709,-2.448,-2.4214,-2.4094,-2.3961,-2.384,-2.384,-2.384,-2.384,-2.384,-2.384,-2.384,-2.384,-2.384,-2.3816,-2.3695,-2.355,-2.3381,-2.314,-2.285,-2.2621,-2.2488,-2.2355,-2.2259,-2.2259,-2.2259,-2.2259,-2.2259,-2.2259,-2.2259,-2.2259,-2.2259,-2.2259,-2.2259,-2.2259,-2.2259,-2.2259,-2.2259,-2.2259,-2.2259,-2.2259,-2.2259,-2.2259,-2.2259,-2.2259,-2.2259,-2.2259,-2.2259,-2.2259,-2.2259,-2.2259,-2.2259,-2.2259,-2.2259,-2.2259,-2.2259,-2.2343,-2.2476,-2.2476,-2.2621,-2.2887,-2.3164,-2.3345,-2.349,-2.3744,-2.384,-2.384,-1.64,-1.7135,-1.782,-1.931,-2.1047,-2.2308,-2.2536,-2.3917,-2.5184,-2.5384,-2.577,-2.6134,-2.6134,-2.6182,-2.6218,-2.6218,-2.6218,-2.6194,-2.6134,-2.594,-2.5735,-2.5542,-2.547,-2.5433,-2.5433,-2.5433,-2.5433,-2.5433,-2.5433,-2.5433,-2.5433,-2.5228,-2.5132,-2.5132,-2.4914,-2.4818,-2.4818,-2.4818,-2.4818,-2.4818,-2.4818,-2.4939,-2.5132,-2.5132,-2.5264,-2.5433,-2.5433,-2.5313,-2.5132,-2.5071,-2.477,-2.4395,-2.4275,-2.4094,-2.3925,-2.3864,-2.384,-2.384,-2.384,-2.384,-2.384,-2.384,-2.384,-2.384,-2.384,-2.3683,-2.3526,-2.3466,-2.3128,-2.2814,-2.2754,-2.2573,-2.2428,-2.2367,-2.2355,-2.2331,-2.2271,-2.2259,-2.2259,-2.2259,-2.2259,-2.2259,-2.2259,-2.2259,-2.2259,-2.2259,-2.2259,-2.2259,-2.2259,-2.2259,-2.2259,-2.2259,-2.2259,-2.2259,-2.2259,-2.2259,-2.2259,-2.2259,-2.2259,-2.2259,-2.2259,-2.2319,-2.2355,-2.2355,-2.2416,-2.2561,-2.2742,-2.2742,-2.2899,-2.3164,-2.3369,-2.349,-2.3562,-2.3768,-2.384,-2.384,-1.4503,-1.5903,-1.7177,-1.7679,-1.9292,-2.0596,-2.0788,-2.2246,-2.3184,-2.3195,-2.4789,-2.5856,-2.5856,-2.6073,-2.6218,-2.6218,-2.6218,-2.6109,-2.5868,-2.5832,-2.582,-2.5796,-2.5566,-2.5433,-2.5433,-2.5433,-2.5433,-2.5433,-2.5433,-2.5433,-2.5433,-2.5421,-2.5409,-2.5409,-2.5385,-2.5373,-2.5373,-2.5373,-2.5373,-2.5373,-2.5373,-2.5385,-2.5409,-2.5409,-2.5421,-2.5433,-2.5433,-2.5421,-2.5373,-2.5132,-2.5023,-2.4902,-2.4395,-2.4226,-2.4154,-2.3913,-2.384,-2.384,-2.384,-2.384,-2.384,-2.384,-2.384,-2.384,-2.384,-2.3828,-2.3744,-2.3502,-2.3418,-2.3321,-2.3056,-2.2995,-2.2911,-2.2657,-2.2621,-2.2536,-2.2295,-2.2259,-2.2259,-2.2259,-2.2259,-2.2259,-2.2259,-2.2259,-2.2259,-2.2259,-2.2259,-2.2259,-2.2259,-2.2259,-2.2259,-2.2259,-2.2259,-2.2259,-2.2259,-2.2259,-2.2259,-2.2259,-2.2259,-2.2259,-2.2271,-2.2512,-2.2621,-2.2633,-2.2874,-2.2995,-2.3019,-2.3019,-2.3176,-2.343,-2.3442,-2.3599,-2.3816,-2.384,-2.384,-2.384,-1.4557,-1.5104,-1.5629,-1.5585,-1.7169,-1.8389,-1.8531,-1.9859,-2.1557,-2.261,-2.3487,-2.4189,-2.5407,-2.5675,-2.5735,-2.5735,-2.588,-2.594,-2.5832,-2.5977,-2.5928,-2.5602,-2.5494,-2.5433,-2.5433,-2.5433,-2.5433,-2.5433,-2.5433,-2.5433,-2.5433,-2.5433,-2.5433,-2.5433,-2.5433,-2.5433,-2.5433,-2.5433,-2.5433,-2.5433,-2.5433,-2.5433,-2.5433,-2.5433,-2.5433,-2.5433,-2.5433,-2.5433,-2.5421,-2.5325,-2.518,-2.4975,-2.4601,-2.4359,-2.4178,-2.3925,-2.384,-2.384,-2.384,-2.384,-2.384,-2.384,-2.384,-2.384,-2.384,-2.384,-2.3816,-2.3719,-2.3562,-2.3418,-2.3321,-2.3152,-2.3007,-2.2911,-2.2899,-2.2802,-2.2536,-2.25,-2.244,-2.2283,-2.2259,-2.2259,-2.2259,-2.2259,-2.2259,-2.2259,-2.2259,-2.2259,-2.2259,-2.2259,-2.2259,-2.2259,-2.2259,-2.2259,-2.2259,-2.2259,-2.2343,-2.25,-2.25,-2.2585,-2.2754,-2.285,-2.2899,-2.2899,-2.2995,-2.314,-2.3297,-2.3297,-2.3454,-2.3695,-2.3695,-2.3756,-2.384,-2.384,-2.384,-2.384,-1.4584,-1.4597,-1.457,-1.4462,-1.5505,-1.6348,-1.6233,-1.7789,-1.9525,-2.0742,-2.1953,-2.317,-2.4395,-2.5092,-2.5433,-2.5433,-2.5602,-2.5699,-2.5699,-2.5868,-2.5856,-2.5566,-2.5482,-2.5433,-2.5433,-2.5433,-2.5433,-2.5433,-2.5433,-2.5433,-2.5433,-2.5433,-2.5433,-2.5433,-2.5433,-2.5433,-2.5433,-2.5433,-2.5433,-2.5433,-2.5433,-2.5433,-2.5433,-2.5433,-2.5433,-2.5433,-2.5433,-2.5433,-2.5433,-2.5433,-2.5313,-2.512,-2.4842,-2.4516,-2.4178,-2.3925,-2.384,-2.384,-2.384,-2.384,-2.384,-2.384,-2.384,-2.384,-2.384,-2.384,-2.384,-2.384,-2.3695,-2.3575,-2.3575,-2.3418,-2.3261,-2.3188,-2.3176,-2.308,-2.2814,-2.2778,-2.2705,-2.2524,-2.25,-2.25,-2.25,-2.244,-2.238,-2.238,-2.2307,-2.2259,-2.2259,-2.2259,-2.2259,-2.2259,-2.2343,-2.238,-2.238,-2.238,-2.2476,-2.2657,-2.2742,-2.2874,-2.3043,-2.3128,-2.3176,-2.3176,-2.3261,-2.3406,-2.3575,-2.3575,-2.3683,-2.384,-2.384,-2.384,-2.384,-2.384,-2.384,-2.384,-1.4299,-1.4299,-1.4299,-1.4299,-1.4299,-1.4299,-1.4299,-1.5873,-1.7088,-1.7088,-2.0221,-2.2654,-2.2654,-2.4224,-2.5433,-2.5433,-2.5433,-2.5433,-2.5433,-2.5433,-2.5554,-2.582,-2.5578,-2.5433,-2.5433,-2.5433,-2.5433,-2.5433,-2.5433,-2.5433,-2.5433,-2.5433,-2.5433,-2.5433,-2.5433,-2.5433,-2.5433,-2.5433,-2.5433,-2.5433,-2.5433,-2.5433,-2.5433,-2.5433,-2.5433,-2.5433,-2.5433,-2.5433,-2.5433,-2.5433,-2.5433,-2.5397,-2.5132,-2.4673,-2.4178,-2.3925,-2.384,-2.384,-2.384,-2.384,-2.384,-2.384,-2.384,-2.384,-2.384,-2.384,-2.384,-2.384,-2.384,-2.384,-2.384,-2.384,-2.3756,-2.3502,-2.3454,-2.3357,-2.308,-2.3043,-2.3043,-2.3043,-2.3043,-2.3043,-2.3043,-2.2814,-2.2657,-2.2657,-2.2416,-2.2271,-2.2271,-2.2271,-2.2271,-2.2271,-2.2512,-2.2657,-2.2657,-2.2657,-2.2657,-2.2657,-2.2923,-2.3043,-2.3056,-2.3333,-2.3454,-2.3466,-2.3731,-2.384,-2.384,-2.384,-2.384,-2.384,-2.384,-2.384,-2.384,-2.384,-2.384,-2.384,-1.4299,-1.4299,-1.4299,-1.4299,-1.4299,-1.4299,-1.4299,-1.4822,-1.5697,-1.6912,-1.8139,-1.97,-2.2309,-2.317,-2.4041,-2.5263,-2.5433,-2.5433,-2.5433,-2.5433,-2.547,-2.5554,-2.5482,-2.5433,-2.5433,-2.5433,-2.5433,-2.5433,-2.5433,-2.5433,-2.5433,-2.5433,-2.5433,-2.5433,-2.5433,-2.5433,-2.5433,-2.5433,-2.5433,-2.5433,-2.5433,-2.5433,-2.5433,-2.5433,-2.5433,-2.5433,-2.5433,-2.5433,-2.5433,-2.5433,-2.5433,-2.5361,-2.489,-2.4516,-2.4178,-2.3925,-2.384,-2.384,-2.384,-2.384,-2.384,-2.384,-2.384,-2.384,-2.384,-2.384,-2.384,-2.384,-2.384,-2.384,-2.384,-2.384,-2.3816,-2.3744,-2.3731,-2.3635,-2.3369,-2.3333,-2.3261,-2.3068,-2.3043,-2.3043,-2.3043,-2.2971,-2.2923,-2.2923,-2.285,-2.2814,-2.2814,-2.2814,-2.2814,-2.2814,-2.2887,-2.2923,-2.2923,-2.2923,-2.3019,-2.3212,-2.3297,-2.343,-2.3611,-2.3683,-2.3731,-2.3731,-2.3816,-2.384,-2.384,-2.384,-2.384,-2.384,-2.384,-2.384,-2.384,-2.384,-2.384,-2.384,-1.4299,-1.4299,-1.4299,-1.4299,-1.4299,-1.4299,-1.4299,-1.4299,-1.4653,-1.5873,-1.6569,-1.7955,-2.0221,-2.1088,-2.2309,-2.4224,-2.4921,-2.5433,-2.5433,-2.5433,-2.5433,-2.5433,-2.5433,-2.5433,-2.5433,-2.5433,-2.5433,-2.5433,-2.5433,-2.5433,-2.5433,-2.5433,-2.5433,-2.5433,-2.5433,-2.5433,-2.5433,-2.5433,-2.5433,-2.5433,-2.5433,-2.5433,-2.5433,-2.5433,-2.5433,-2.5433,-2.5433,-2.5433,-2.5433,-2.5433,-2.5433,-2.5361,-2.4927,-2.4601,-2.4335,-2.4082,-2.3925,-2.384,-2.384,-2.384,-2.384,-2.384,-2.384,-2.384,-2.384,-2.384,-2.384,-2.384,-2.384,-2.384,-2.384,-2.384,-2.384,-2.384,-2.384,-2.3792,-2.3635,-2.3611,-2.355,-2.3381,-2.3357,-2.3357,-2.3357,-2.3261,-2.3164,-2.3056,-2.3043,-2.3043,-2.3043,-2.3043,-2.3043,-2.3043,-2.3152,-2.32,-2.32,-2.3309,-2.3393,-2.3454,-2.3562,-2.3695,-2.384,-2.384,-2.384,-2.384,-2.384,-2.384,-2.384,-2.384,-2.384,-2.384,-2.384,-2.384,-2.384,-2.384,-2.384,-2.384,-1.4299,-1.4299,-1.4299,-1.4299,-1.4299,-1.4299,-1.4299,-1.4299,-1.4299,-1.4299,-1.5873,-1.692,-1.7088,-1.8654,-2.0395,-2.2309,-2.4041,-2.4921,-2.4921,-2.4921,-2.4921,-2.4921,-2.4921,-2.4921,-2.4921,-2.5263,-2.5433,-2.5433,-2.5433,-2.5433,-2.5433,-2.5433,-2.5433,-2.5433,-2.5433,-2.5433,-2.5433,-2.5433,-2.5433,-2.5433,-2.5433,-2.5433,-2.5433,-2.5433,-2.5433,-2.5433,-2.5433,-2.5433,-2.5433,-2.5433,-2.5433,-2.5397,-2.5132,-2.4854,-2.4576,-2.4311,-2.4045,-2.384,-2.384,-2.384,-2.384,-2.384,-2.384,-2.384,-2.384,-2.384,-2.384,-2.384,-2.384,-2.384,-2.384,-2.384,-2.384,-2.384,-2.384,-2.384,-2.384,-2.384,-2.384,-2.384,-2.384,-2.384,-2.384,-2.3635,-2.3381,-2.3128,-2.3116,-2.3116,-2.3116,-2.3116,-2.3116,-2.3116,-2.3357,-2.349,-2.349,-2.3719,-2.3719,-2.349,-2.3731,-2.384,-2.384,-2.384,-2.384,-2.384,-2.384,-2.384,-2.384,-2.384,-2.384,-2.384,-2.384,-2.384,-2.384,-2.384,-2.384,-2.384,-1.4299,-1.4299,-1.4299,-1.4299,-1.4299,-1.4299,-1.4299,-1.4299,-1.4299,-1.4299,-1.4646,-1.5521,-1.6912,-1.7438,-1.8479,-2.0395,-2.0915,-2.1088,-2.1088,-2.1088,-2.1088,-2.1088,-2.1088,-2.1088,-2.1088,-2.3869,-2.5433,-2.5433,-2.5433,-2.5433,-2.5433,-2.5433,-2.5433,-2.5433,-2.5433,-2.5433,-2.5433,-2.5433,-2.5433,-2.5433,-2.5433,-2.5433,-2.5433,-2.5433,-2.5433,-2.5433,-2.5433,-2.5433,-2.5433,-2.5433,-2.5433,-2.5397,-2.5132,-2.4854,-2.4576,-2.4311,-2.4045,-2.384,-2.384,-2.384,-2.384,-2.384,-2.384,-2.384,-2.384,-2.384,-2.384,-2.384,-2.384,-2.384,-2.384,-2.384,-2.384,-2.384,-2.384,-2.384,-2.384,-2.384,-2.384,-2.384,-2.384,-2.384,-2.384,-2.3792,-2.3731,-2.3671,-2.3671,-2.3671,-2.3671,-2.3671,-2.3671,-2.3671,-2.3731,-2.3756,-2.3756,-2.3816,-2.3816,-2.3756,-2.3816,-2.384,-2.384,-2.384,-2.384,-2.384,-2.384,-2.384,-2.384,-2.384,-2.384,-2.384,-2.384,-2.384,-2.384,-2.384,-2.384,-2.384,-1.4299,-1.4299,-1.4299,-1.4299,-1.4299,-1.4299,-1.4299,-1.4299,-1.4299,-1.4299,-1.4299,-1.4653,-1.5697,-1.5697,-1.6569,-1.8479,-1.9351,-1.9873,-1.9873,-1.9873,-1.9873,-1.9873,-1.9873,-1.9873,-1.9873,-2.178,-2.2826,-2.2826,-2.2826,-2.317,-2.4041,-2.4041,-2.4566,-2.5433,-2.5433,-2.5433,-2.5433,-2.5433,-2.5433,-2.5433,-2.5433,-2.5433,-2.5433,-2.5433,-2.5433,-2.5433,-2.5433,-2.5433,-2.5433,-2.5433,-2.5433,-2.5409,-2.5277,-2.4951,-2.4601,-2.4468,-2.4142,-2.384,-2.384,-2.384,-2.384,-2.384,-2.384,-2.384,-2.384,-2.384,-2.384,-2.384,-2.384,-2.384,-2.384,-2.384,-2.384,-2.384,-2.384,-2.384,-2.384,-2.384,-2.384,-2.384,-2.384,-2.384,-2.384,-2.384,-2.384,-2.384,-2.384,-2.384,-2.384,-2.384,-2.384,-2.384,-2.384,-2.384,-2.384,-2.384,-2.384,-2.384,-2.384,-2.384,-2.384,-2.384,-2.384,-2.384,-2.384,-2.384,-2.384,-2.384,-2.384,-2.384,-2.384,-2.384,-2.384,-2.384,-2.384,-2.384,-1.4299,-1.4299,-1.4299,-1.4299,-1.4299,-1.4299,-1.4299,-1.4299,-1.4299,-1.4299,-1.4299,-1.4299,-1.4299,-1.4299,-1.4999,-1.6569,-1.7955,-1.9003,-1.9003,-1.9003,-1.9003,-1.9003,-1.9003,-1.9003,-1.9003,-1.9003,-1.9177,-1.9873,-1.9873,-2.0742,-2.2126,-2.2481,-2.3525,-2.4921,-2.5263,-2.5433,-2.5433,-2.5433,-2.5433,-2.5433,-2.5433,-2.5433,-2.5433,-2.5433,-2.5433,-2.5433,-2.5433,-2.5433,-2.5433,-2.5433,-2.5433,-2.5433,-2.5433,-2.5096,-2.4685,-2.4637,-2.4287,-2.39,-2.3852,-2.384,-2.384,-2.384,-2.384,-2.384,-2.384,-2.384,-2.384,-2.384,-2.384,-2.368,-2.3348,-2.3348,-2.3187,-2.3027,-2.2866,-2.2866,-2.2866,-2.3187,-2.3348,-2.3348,-2.368,-2.384,-2.384,-2.384,-2.384,-2.384,-2.384,-2.384,-2.384,-2.384,-2.384,-2.384,-2.384,-2.384,-2.384,-2.384,-2.384,-2.384,-2.384,-2.384,-2.384,-2.384,-2.384,-2.384,-2.384,-2.384,-2.384,-2.384,-2.384,-2.384,-2.384,-2.384,-2.384,-2.384,-2.384,-2.384,-1.4299,-1.4299,-1.4299,-1.4299,-1.4299,-1.4299,-1.4299,-1.4299,-1.4299,-1.4299,-1.4299,-1.4299,-1.4299,-1.4299,-1.4476,-1.4653,-1.4822,-1.4999,-1.4999,-1.4999,-1.4999,-1.4999,-1.4999,-1.4999,-1.4999,-1.4999,-1.6569,-1.9873,-1.9873,-2.0047,-2.0221,-2.1964,-2.2826,-2.3181,-2.4738,-2.5433,-2.5433,-2.5433,-2.5433,-2.5433,-2.5433,-2.5433,-2.5433,-2.5433,-2.5433,-2.5433,-2.5433,-2.5433,-2.5433,-2.5433,-2.5433,-2.5433,-2.5433,-2.5228,-2.4939,-2.4697,-2.442,-2.413,-2.39,-2.384,-2.384,-2.384,-2.384,-2.384,-2.384,-2.384,-2.384,-2.384,-2.384,-2.3348,-2.1867,-2.1545,-2.106,-1.9602,-1.9277,-1.9277,-1.9277,-2.0575,-2.1545,-2.1545,-2.2854,-2.384,-2.384,-2.384,-2.384,-2.384,-2.384,-2.384,-2.384,-2.384,-2.384,-2.384,-2.384,-2.384,-2.384,-2.384,-2.384,-2.384,-2.384,-2.384,-2.384,-2.384,-2.384,-2.384,-2.384,-2.384,-2.384,-2.384,-2.384,-2.384,-2.384,-2.384,-2.384,-2.384,-2.384,-2.384,-1.4299,-1.4299,-1.4299,-1.4299,-1.4299,-1.4299,-1.4299,-1.4299,-1.4299,-1.4299,-1.4299,-1.4299,-1.4299,-1.4299,-1.4299,-1.4299,-1.4299,-1.4299,-1.4299,-1.4299,-1.4299,-1.4299,-1.4299,-1.4299,-1.4299,-1.4299,-1.5175,-1.6745,-1.6745,-1.7263,-1.8305,-1.9177,-2.0742,-2.2654,-2.3525,-2.4395,-2.5433,-2.5433,-2.5433,-2.5433,-2.5433,-2.5433,-2.5433,-2.5433,-2.5433,-2.5433,-2.5433,-2.5433,-2.5433,-2.5433,-2.5433,-2.5433,-2.5433,-2.5252,-2.5023,-2.4902,-2.4564,-2.4214,-2.4094,-2.3949,-2.384,-2.384,-2.384,-2.384,-2.384,-2.384,-2.384,-2.384,-2.3027,-2.2039,-2.1383,-2.0403,-1.943,-1.8789,-1.8626,-1.8626,-1.8626,-1.9267,-2.0079,-2.106,-2.2694,-2.384,-2.384,-2.384,-2.384,-2.384,-2.384,-2.384,-2.384,-2.384,-2.384,-2.384,-2.384,-2.384,-2.384,-2.384,-2.384,-2.384,-2.384,-2.384,-2.384,-2.384,-2.384,-2.384,-2.384,-2.384,-2.384,-2.384,-2.384,-2.384,-2.384,-2.384,-2.384,-2.384,-2.384,-2.384]}]]